[[{"header":{"parameterUnit":"m.s-1","parameterCategory":1,"la1":31.0,"la2":29.5877,"lo1":-88.7671,"lo2":-86.6584,"dy":0.0162,"dx":0.0185,"nx":115,"ny":88,"refTime":"2024-07-02T06:00:00:Z","depth":0,"parameterNumber":2,"parameterNumberName":"U-component_of_WINDS"},"data":[0.0,0.0,0.0,0.0,0.0,0.0,0.0,0.0,0.0,0.0,0.0,0.0,0.0,0.0,0.0,0.0,0.0,0.0,0.0,0.0,0.0,0.0,0.0,0.0,0.0,0.0,0.0,0.0,0.0,0.0,0.0,0.0,0.0,0.0,0.0,0.0,0.0,0.0,0.0,0.0,0.0,0.0,0.0,0.0,0.0,0.0,0.0,0.0,0.0,0.0,0.0,0.0,0.0,0.0,0.0,0.0,0.0,0.0,0.0,0.0,0.0,0.0,0.0,0.0,0.0,0.0,0.0,0.0,0.0,0.0,0.0,0.0,0.0,0.0,0.0,0.0,0.0,0.0,0.0,0.0,0.0,0.0,0.0,0.0,0.0,0.0,0.0,0.0,0.0,0.0,0.0,0.0,0.0,0.0,0.0,0.0,0.0,0.0,0.0,0.0,0.0,0.0,0.0,0.0,0.0,0.0,0.0,0.0,0.0,0.0,0.0,0.0,0.0,0.0,0.0,0.0,0.0,0.0,0.0,0.0,0.0,0.0,0.0,0.0,0.0,0.0,0.0,0.0,0.0,0.0,0.0,0.0,0.0,0.0,0.0,0.0,0.0,0.0,0.0,0.0,0.0,0.0,0.0,0.0,0.0,0.0,0.0,0.0,0.0,0.0,0.0,0.0,0.0,0.0,0.0,0.0,0.0,0.0,0.0,0.0,0.0,0.0,0.0,0.0,0.0,0.0,0.0,0.0,0.0,0.0,0.0,0.0,0.0,0.0,0.0,0.0,0.0,0.0,0.0,0.0,0.0,0.0,0.0,0.0,0.0,0.0,0.0,0.0,0.0,0.0,0.0,0.0,0.0,0.0,0.0,0.0,0.0,0.0,0.0,0.0,0.0,0.0,0.0,0.0,0.0,0.0,0.0,0.0,0.0,0.0,0.0,0.0,0.0,0.0,0.0,0.0,0.0,0.0,0.0,0.0,0.0,0.0,0.0,0.0,0.0,0.0,0.0,0.0,0.0,0.0,0.0,0.0,0.0,0.0,0.0,0.0,0.0,0.0,0.0,0.0,0.0,0.0,0.0,0.0,0.0,0.0,0.0,0.0,0.0,0.0,0.0,0.0,0.0,0.0,0.0,0.0,0.0,0.0,0.0,0.0,0.0,0.0,0.0,0.0,0.0,0.0,0.0,0.0,0.0,0.0,0.0,0.0,0.0,0.0,0.0,0.0,0.0,0.0,0.0,0.0,0.0,0.0,0.0,0.0,0.0,0.0,0.0,0.0,0.0,0.0,0.0,0.0,0.0,0.0,0.0,0.0,0.0,0.0,0.0,0.0,0.0,0.0,0.0,0.0,0.0,0.0,0.0,0.0,0.0,0.0,0.0,0.0,0.0,0.0,0.0,0.0,0.0,0.0,0.0,0.0,0.0,0.0,0.0,0.0,0.0,0.0,0.0,0.0,0.0,0.0,0.0,0.0,0.0,0.0,0.0,0.0,0.0,0.0,0.0,0.0,0.0,0.0,0.0,0.0,0.0,0.0,0.0,0.0,0.0,0.0,0.0,0.0,0.0,0.0,0.0,0.0,0.0,0.0,0.0,0.0,0.0,0.0,0.0,0.0,0.0,0.0,0.0,0.0,0.0,0.0,0.0,0.0,0.0,0.0,0.0,0.0,0.0,0.0,0.0,0.0,0.0,0.0,0.0,0.0,0.0,0.0,0.0,0.0,0.0,0.0,0.0,0.0,0.0,0.0,0.0,0.0,0.0,0.0,0.0,0.0,0.0,0.0,0.0,0.0,0.0,0.0,0.0,0.0,0.0,0.0,0.0,0.0,0.0,0.0,0.0,0.0,0.0,0.0,0.0,0.0,0.0,0.0,0.0,0.0,0.0,0.0,0.0,0.0,0.0,0.0,0.0,0.0,0.0,0.0,0.0,0.0,0.0,0.0,0.0,0.0,0.0,0.0,0.0,0.0,0.0,0.0,0.0,0.0,0.0,0.0,0.0,0.0,0.0,0.0,0.0,0.0,0.0,0.0,0.0,0.0,0.0,0.0,0.0,0.0,0.0,0.0,0.0,0.0,0.0,0.0,0.0,0.0,0.0,0.0,0.0,0.0,0.0,0.0,0.0,0.0,0.0,0.0,0.0,0.0,0.0,0.0,0.0,0.0,0.0,0.0,0.0,0.0,0.0,0.0,0.0,0.0,0.0,0.0,0.0,0.0,0.0,0.0,0.0,0.0,0.0,0.0,0.0,0.0,0.0,0.0,0.0,0.0,0.0,0.0,0.0,0.0,0.0,0.0,0.0,0.0,0.0,0.0,0.0,0.0,0.0,0.0,0.0,0.0,0.0,0.0,0.0,0.0,0.0,0.0,0.0,0.0,0.0,0.0,0.0,0.0,0.0,0.0,0.0,0.0,0.0,0.0,0.0,0.0,0.0,0.0,0.0,0.0,0.0,0.0,0.0,0.0,0.0,0.0,0.0,0.0,0.0,0.0,0.0,0.0,0.0,0.0,0.0,0.0,0.0,0.0,0.0,0.0,0.0,0.0,0.0,0.0,0.0,0.0,0.0,0.0,0.0,0.0,0.0,0.0,0.0,0.0,0.0,0.0,0.0,0.0,0.0,0.0,0.0,0.0,0.0,0.0,0.0,0.0,0.0,0.0,0.0,0.0,0.0,0.0,0.0,0.0,0.0,0.0,0.0,0.0,0.0,0.0,0.0,0.0,0.0,0.0,0.0,0.0,0.0,0.0,0.0,0.0,0.0,0.0,0.0,0.0,0.0,0.0,0.0,0.0,0.0,0.0,0.0,0.0,0.0,0.0,0.0,0.0,0.0,0.0,0.0,0.0,0.0,0.0,0.0,0.0,0.0,0.0,0.0,0.0,0.0,0.0,0.0,0.0,0.0,0.0,0.0,0.0,0.0,0.0,0.0,0.0,0.0,0.0,0.0,0.0,0.0,0.0,0.0,0.0,0.0,0.0,0.0,0.0,0.0,0.0,0.0,0.0,0.0,0.0,0.0,0.0,0.0,0.0,0.0,0.0,0.0,0.0,0.0,0.0,0.0,0.0,0.0,0.0,0.0,0.0,0.0,0.0,0.0,0.0,0.0,0.0,0.0,0.0,0.0,0.0,0.0,0.0,0.0,0.0,0.0,0.0,0.0,0.0,0.0,0.0,0.0,0.0,0.0,0.0,0.0,0.0,0.0,0.0,0.0,0.0,0.0,0.0,0.0,0.0,0.0,0.0,0.0,0.0,0.0,0.0,0.0,0.0,0.0,0.0,0.0,0.0,0.0,0.0,0.0,0.0,0.0,0.0,0.0,0.0,0.0,0.0,0.0,0.0,0.0,0.0,0.0,0.0,0.0,0.0,0.0,0.0,0.0,0.0,0.0,0.0,0.0,0.0,0.0,0.0,0.0,0.0,0.0,0.0,0.0,0.0,0.0,0.0,0.0,0.0,0.0,0.0,0.0,0.0,0.0,0.0,0.0,0.0,0.0,0.0,0.0,0.0,0.0,0.0,0.0,0.0,0.0,0.0,0.0,0.0,0.0,0.0,0.0,0.0,0.0,0.0,0.0,0.0,0.0,0.0,0.0,0.0,0.0,0.0,0.0,0.0,0.0,0.0,0.0,0.0,0.0,0.0,0.0,0.0,0.0,0.0,0.0,0.0,0.0,0.0,0.0,0.0,0.0,0.0,0.0,0.0,0.0,0.0,0.0,0.0,0.0,0.0,0.0,0.0,0.0,0.0,0.0,0.0,0.0,0.0,0.0,0.0,0.0,0.0,0.0,0.0,0.0,0.0,0.0,0.0,0.0,0.0,0.0,0.0,0.0,0.0,0.0,0.0,0.0,0.0,0.0,0.0,0.0,0.0,0.0,0.0,0.0,0.0,0.0,0.0,0.0,0.0,0.0,0.0,0.0,0.0,0.0,0.0,0.0,0.0,0.0,0.0,0.0,0.0,0.0,0.0,0.0,0.0,0.0,0.0,0.0,0.0,0.0,0.0,0.0,0.0,0.0,0.0,0.0,0.0,0.0,0.0,0.0,0.0,0.0,0.0,0.0,0.0,0.0,0.0,0.0,0.0,0.0,0.0,0.0,0.0,0.0,0.0,0.0,0.0,0.0,0.0,0.0,0.0,0.0,0.0,0.0,0.0,0.0,0.0,0.0,0.0,0.0,0.0,0.0,0.0,0.0,0.0,0.0,0.0,0.0,0.0,0.0,0.0,0.0,0.0,0.0,0.0,0.0,0.0,0.0,0.0,0.0,0.0,0.0,0.0,-0.2122,0.0,0.0,0.0,0.0,0.0,0.0,0.0,0.0,0.0,0.0,0.0,0.0,0.0,0.0,0.0,0.0,0.0,0.0,0.0,0.0,0.0,0.0,0.0,0.0,0.0,0.0,0.0,0.0,0.0,0.0,0.0,0.0,0.0,0.0,0.0,0.0,0.0,0.0,0.0,0.0,0.0,0.0,0.0,0.0,0.0,0.0,0.0,0.0,0.0,0.0,0.0,0.0,0.0,0.0,0.0,0.0,0.0,0.0,0.0,0.0,0.0,0.0,0.0,0.0,0.0,0.0,0.0,0.0,0.0,0.0,0.0,0.0,0.0,0.0,0.0,0.0,0.0,0.0,0.0,0.0,0.0,0.0,0.0,0.0,0.0,0.0,0.0,0.0,0.0,0.0,0.0,0.0,0.0,0.0,0.0,0.0,0.0,0.0,0.0,0.0,0.0,0.0,0.0,0.0,0.0,0.0,0.0,0.0,0.0,0.0,-0.1569,-0.1724,-0.1854,-0.192,-0.199,0.0,0.0,0.0,0.0,0.0,0.0,0.0,0.0,0.0,0.0,0.0,0.0,0.0,0.0,0.0,0.0,0.0,0.0,0.0,0.0,0.0,0.0,0.0,0.0,0.0,0.0,0.0,0.0,0.0,0.0,0.0,0.0,0.0,0.0,0.0,0.0,0.0,0.0,0.0,0.0,0.0,0.0,0.0,0.0,0.0,0.0,0.0,0.0,0.0,0.0,0.0,0.0,0.0,0.0,0.0,0.0,0.0,0.0,0.0,0.0,0.0,0.0,0.0,0.0,0.0,0.0,0.0,0.0,0.0,0.0,0.0,0.0,0.0,0.0,0.0,0.0,0.0,0.0,0.0,0.0,0.0,0.0,0.0,0.0,0.0,0.0,0.0,0.0,0.0,0.0,0.0,0.0,0.0,0.0,0.0,0.0,0.0,0.0,0.0,0.0,0.0,0.0,0.0,0.0,0.0,0.0,0.0,0.0,0.0,0.0,0.0,0.0,-0.1651,-0.174,-0.1765,0.0,0.0,0.0,0.0,0.0,0.0,0.0,0.0,0.0,0.0,0.0,0.0,0.0,0.0,0.0,0.0,0.0,0.0,0.0,0.0,0.0,0.0,0.0,0.0,0.0,0.0,0.0,0.0,0.0,0.0,0.0,0.0,0.0,0.0,0.0,0.0,0.0,0.0,0.0,0.0,0.0,0.0,0.0,0.0,0.0,0.0,0.0,0.0,0.0,0.0,0.0,0.0,0.0,0.0,0.0,0.0,0.0,0.0,0.0,0.0,0.0,0.0,0.0,0.0,0.0,0.0,0.0,0.0,0.0,0.0,0.0,0.0,0.0,0.0,0.0,0.0,0.0,0.0,0.0,0.0,0.0,0.0,0.0,0.0,0.0,0.0,0.0,0.0,0.0,0.0,0.0,0.0,0.0,0.0,0.0,0.0,0.0,0.0,0.0,0.0,0.0,0.0,0.0,0.0,0.0,0.0,0.0,0.0,0.0,0.0,-0.1319,-0.1341,-0.141,0.0,-0.1371,0.0,0.0,0.0,0.0,0.0,0.0,0.0,0.0,0.0,0.0,0.0,0.0,0.0,0.0,0.0,0.0,0.0,0.0,0.0,0.0,0.0,0.0,0.0,0.0,0.0,0.0,0.0,0.0,0.0,0.0,0.0,0.0,0.0,0.0,0.0,0.0,0.0,0.0,0.0,0.0,0.0,0.0,0.0,0.0,0.0,0.0,0.0,0.0,0.0,0.0,0.0,0.0,0.0,0.0,0.0,0.0,0.0,0.0,0.0,0.0,0.0,0.0,0.0,0.0,0.0,0.0,0.0,0.0,0.0,0.0,0.0,0.0,0.0,0.0,0.0,0.0,0.0,0.0,0.0,0.0,0.0,0.0,0.0,0.0,0.0,0.0,0.0,0.0,0.0,0.0,0.0,0.0,0.0,0.0,0.0,0.0,0.0,0.0,0.0,0.0,0.0,0.0,0.0,0.0,0.0,0.0,0.0,0.0,0.0,0.0,0.0,-0.1347,-0.1374,-0.1323,0.0,0.0,0.0,0.0,0.0,0.0,0.0,0.0,0.0,0.0,0.0,0.0,0.0,0.0,0.0,0.0,0.0,0.0,0.0,0.0,0.0,0.0,0.0,0.0,0.0,0.0,0.0,0.0,0.0,0.0,0.0,0.0,0.0,0.0,0.0,0.0,0.0,0.0,0.0,0.0,0.0,0.0,0.0,0.0,0.0,0.0,0.0,0.0,0.0,0.0,0.0,0.0,0.0,0.0,0.0,0.0,0.0,0.0,0.0,0.0,0.0,0.0,0.0,0.0,0.0,0.0,0.0,0.0,0.0,0.0,0.0,0.0,0.0,0.0,0.0,0.0,0.0,0.0,0.0,0.0,0.0,0.0,0.0,0.0,0.0,0.0,0.0,0.0,0.0,0.0,0.0,0.0,0.0,0.0,0.0,0.0,0.0,0.0,0.0,0.0,0.0,0.0,0.0,0.0,0.0,0.0,0.0,0.0,0.0,0.0,-0.12,0.0,-0.1377,-0.1375,-0.1234,-0.1031,0.0,0.0,0.0,0.0,0.0,0.0,0.0,0.0,0.0,0.0,0.0,0.0,0.0,0.0,0.0,0.0,0.0,0.0,0.0,0.0,0.0,0.0,0.0,0.0,0.0,0.0,0.0,0.0,0.0,0.0,0.0,0.0,0.0,0.0,0.0,0.0,0.0,0.0,0.0,0.0,0.0,0.0,0.0,0.0,0.0,0.0,0.0,0.0,0.0,0.0,0.0,0.0,0.0,0.0,0.0,0.0,0.0,0.0,0.0,0.0,0.0,0.0,0.0,0.0,0.0,0.0,0.0,0.0,0.0,0.0,0.0,0.0,0.0,0.0,0.0,0.0,0.0,0.0,0.0,0.0,0.0,0.0,0.0,0.0,0.0,0.0,0.0,0.0,0.0,0.0,0.0,0.0,0.0,0.0,0.0,0.0,0.0,0.0,0.0,0.0,0.0,0.0,0.0,0.0,0.0,0.0,0.0,0.0,0.0,-0.1076,-0.1172,-0.1313,-0.1258,-0.1108,0.0,0.0,0.0,0.0,0.0,0.0,0.0,0.0,0.0,0.0,0.0,0.0,0.0,0.0,0.0,0.0,0.0,0.0,0.0,0.0,0.0,0.0,0.0,0.0,0.0,0.0,0.0,0.0,0.0,0.0,0.0,0.0,0.0,0.0,0.0,0.0,0.0,0.0,0.0,0.0,0.0,0.0,0.0,0.0,0.0,0.0,0.0,0.0,0.0,0.0,0.0,0.0,0.0,0.0,0.0,0.0,0.0,0.0,0.0,0.0,0.0,0.0,0.0,0.0,0.0,0.0,0.0,0.0,0.0,0.0,0.0,0.0,0.0,0.0,0.0,0.0,0.0,0.0,0.0,0.0,0.0,0.0,0.0,0.0,0.0,0.0,0.0,0.0,0.0,0.0,0.0,0.0,0.0,0.0,0.0,0.0,0.0,0.0,0.0,0.0,0.0,0.0,0.0,0.0,0.0,0.0,0.0,0.0,0.0,-0.1011,-0.1099,-0.1246,-0.1356,-0.1251,-0.113,0.0,0.0,0.0,0.0,0.0,0.0,0.0,0.0,0.0,0.0,0.0,0.0,0.0,0.0,0.0,0.0,0.0,0.0,0.0,0.0,0.0,0.0,0.0,0.0,0.0,0.0,0.0,0.0,0.0,0.0,0.0,0.0,0.0,0.0,0.0,0.0,0.0,0.0,0.0,0.0,0.0,0.0,0.0,0.0,0.0,0.0,0.0,0.0,0.0,0.0,0.0,0.0,0.0,0.0,0.0,0.0,0.0,0.0,0.0,0.0,0.0,0.0,0.0,0.0,0.0,0.0,0.0,0.0,0.0,0.0,0.0,0.0,0.0,0.0,0.0,0.0,0.0,0.0,0.0,0.0,0.0,0.0,0.0,0.0,0.0,0.0,0.0,0.0,0.0,0.0,0.0,0.0,0.0,0.0,0.0,0.0,0.0,0.0,0.0,0.0,0.0,0.0,0.0,0.0,0.0,0.0,0.0,0.0,0.0,-0.0922,0.0,-0.1132,0.0,-0.1145,-0.1028,0.0,0.0,0.0,0.0,0.0,0.0,0.0,0.0,0.0,0.0,0.0,0.0,0.0,0.0,0.0,0.0,0.0,0.0,0.0,0.0,0.0,0.0,0.0,0.0,0.0,0.0,0.0,0.0,0.0,0.0,0.0,0.0,0.0,0.0,0.0,0.0,0.0,0.0,0.0,0.0,0.0,0.0,0.0,0.0,0.0,0.0,0.0,0.0,0.0,0.0,0.0,0.0,0.0,0.0,0.0,0.0,0.0,0.0,0.0,0.0,0.0,0.0,0.0,0.0,0.0,0.0,0.0,0.0,0.0,0.0,0.0,0.0,0.0,0.0,0.0,0.0,0.0,0.0,0.0,0.0,0.0,0.0,0.0,0.0,0.0,0.0,0.0,0.0,0.0,0.0,0.0,0.0,0.0,0.0,0.0,0.0,0.0,0.0,0.0,0.0,0.0,0.0,0.0,0.0,0.0,0.0,0.0,0.0,-0.0807,-0.0802,-0.0875,-0.0914,-0.091,-0.0895,-0.0866,0.0,0.0,0.0,0.0,0.0,0.0,0.0,0.0,0.0,0.0,0.0,0.0,0.0,0.0,0.0,0.0,0.0,0.0,0.0,0.0,0.0,0.0,0.0,0.0,0.0,0.0,0.0,0.0,0.0,0.0,0.0,0.0,0.0,0.0,0.0,0.0,0.0,0.0,0.0,0.0,0.0,0.0,0.0,0.0,0.0,0.0,0.0,0.0,0.0,0.0,0.0,0.0,0.0,0.0,0.0,0.0,0.0,0.0,0.0,0.0,0.0,0.0,0.0,0.0,0.0,0.0,0.0,0.0,0.0,0.0,0.0,0.0,0.0,0.0,0.0,0.0,0.0,0.0,0.0,0.0,0.0,0.0,0.0,0.0,0.0,0.0,0.0,0.0,0.0,0.0,0.0,0.0,0.0,0.0,0.0,0.0,0.0,0.0,0.0,0.0,0.0,0.0,0.0,0.0,0.0,0.0,0.0,0.0,0.0,-0.0782,-0.0811,-0.0826,-0.0825,-0.0785,-0.0751,0.0,0.0,0.0,0.0,0.0,0.0,0.0,0.0,0.0,0.0,0.0,0.0,0.0,0.0,0.0,0.0,0.0,0.0,0.0,0.0,0.0,0.0,0.0,0.0,0.0,0.0,0.0,0.0,0.0,0.0,0.0,0.0,0.0,0.0,0.0,0.0,0.0,0.0,0.0,0.0,0.0,0.0,0.0,0.0,0.0,0.0,0.0,0.0,0.0,0.0,0.0,0.0,0.0,0.0,0.0,0.0,0.0,0.0,0.0,0.0,0.0,0.0,0.0,0.0,0.0,0.0,0.0,0.0,0.0,0.0,0.0,0.0,0.0,0.0,0.0,0.0,0.0,0.0,0.0,0.0,0.0,0.0,0.0,0.0,0.0,0.0,0.0,0.0,0.0,0.0,0.0,0.0,0.0,0.0,0.0,0.0,0.0,0.0,0.0,0.0,0.0,0.0,0.0,0.0,0.0,0.0,0.0,0.0,0.0,-0.0198,-0.036,-0.0444,-0.0444,-0.047,-0.0486,-0.0521,0.0,0.0,0.0,0.0,0.0,0.0,0.0,0.0,0.0,0.0,0.0,0.0,0.0,0.0,0.0,0.0,0.0,0.0,0.0,0.0,0.0,0.0,0.0,0.0,0.0,0.0,0.0,0.0,0.0,0.0,0.0,0.0,0.0,0.0,0.0,0.0,0.0,0.0,0.0,0.0,0.0,0.0,0.0,0.0,0.0,0.0,0.0,0.0,0.0,0.0,0.0,0.0,0.0,0.0,0.0,0.0,0.0,0.0,0.0,0.0,0.0,0.0,0.0,0.0,0.0,0.0,0.0,0.0,0.0,0.0,0.0,0.0,0.0,0.0,0.0,0.0,0.0,0.0,0.0,0.0,0.0,0.0,0.0,0.0,0.0,0.0,0.0,0.0,0.0,0.0,0.0,0.0,0.0,0.0,0.0,0.0,0.0,0.0,0.0,0.0,0.0,0.0,0.0,0.0,0.0,0.0,0.0,0.0,0.0814,0.0392,0.0171,0.0128,-0.0,-0.0122,0.0,0.0,0.0,0.0,0.0,0.0,0.0,0.0,0.0,0.0,0.0,0.0,0.0,0.0,0.0,0.0,0.0,0.0,0.0,0.0,0.0,0.0,0.0,0.0,0.0,0.0,0.0,0.0,0.0,0.0,0.0,0.0,0.0,0.0,0.0,0.0,0.0,0.0,0.0,0.0,0.0,0.0,0.0,0.0,0.0,0.0,0.0,0.0,0.0,0.0,0.0,0.0,0.0,0.0,0.0,0.0,0.0,0.0,0.0,0.0,0.0,0.0,0.0,0.0,0.0,0.0,0.0,0.0,0.0,0.0,0.0,0.0,0.0,0.0,0.0,0.0,0.0,0.0,0.0,0.0,0.0,0.0,0.0,0.0,0.0,0.0,0.0,0.0,0.0,0.0,0.0,0.0,0.0,0.0,0.0,0.0,0.0,0.0,0.0,0.0,0.0,0.0,0.0,0.0,0.0,0.0,0.0,0.0,0.0,0.0782,0.0748,0.0695,0.0676,0.0411,0.0258,0.0,0.0,0.0,0.0,0.0,0.0,0.0,0.0,0.0,0.0,0.0,0.0,0.0,0.0,0.0,0.0,0.0,0.0,0.0,0.0,0.0,0.0,0.0,0.0,0.0,0.0,0.0,0.0,0.0,0.0,0.0,0.0,0.0,0.0,0.0,0.0,0.0,0.0,0.0,0.0,0.0,0.0,0.0,0.0,0.0,0.0,0.0,0.0,0.0,0.0,0.0,0.0,0.0,0.0,0.0,0.0,0.0,0.0,0.0,0.0,0.0,0.0,0.0,0.0,0.0,0.0,0.0,0.0,0.0,0.0,0.0,0.0,0.0,0.0,0.0,0.0,0.0,0.0,0.0,0.0,0.0,0.0,0.0,0.0,0.0,0.0,0.0,0.0,0.0,0.0,0.0,0.0,0.0,0.0,0.0,0.0,0.0,0.0,0.0,0.0,0.0,0.0,0.0,0.0,0.0,0.0,0.0,0.0,0.0807,0.0806,0.0849,0.0862,0.0898,0.0688,0.0548,0.0,0.0,0.0,0.0,0.0,0.0,0.0,0.0,0.0,0.0,0.0,0.0,0.0,0.0,0.0,0.0,0.0,0.0,0.0,0.0,0.0,0.0,0.0,0.0,0.0,0.0,0.0,0.0,0.0,0.0,0.0,0.0,0.0,0.0,0.0,0.0,0.0,0.0,0.0,0.0,0.0,0.0,0.0,0.0,0.0,0.0,0.0,0.0,0.0,0.0,0.0,0.0,0.0,0.0,0.0,0.0,0.0,0.0,0.0,0.0,0.0,0.0,0.0,0.0,0.0,0.0,0.0,0.0,0.0,0.0,0.0,0.0,0.0,0.0,0.0,0.0,0.0,0.0,0.0,0.0,0.0,0.0,0.0,0.0,0.0,0.0,0.0,0.0,0.0,0.0,0.0,0.0,0.0,0.0,0.0,0.0,0.0,0.0,0.0,0.0,0.0,0.0,0.0,0.0,0.0,0.0,0.0,0.0,0.0781,0.0812,0.0868,0.0897,0.0896,0.0838,0.0768,0.0,0.0,0.0,0.0,0.0,0.0,0.0,0.0,0.0,0.0,0.0,0.0,0.0,0.0,0.0,0.0,0.0,0.0,0.0,0.0,0.0,0.0,0.0,0.0,0.0,0.0,0.0,0.0,0.0,0.0,0.0,0.0,0.0,0.0,0.0,0.0,0.0,0.0,0.0,0.0,0.0,0.0,0.0,0.0,0.0,0.0,0.0,0.0,0.0,0.0,0.0,0.0,0.0,0.0,0.0,0.0,0.0,0.0,0.0,0.0,0.0,0.0,0.0,0.0,0.0,0.0,0.0,0.0,0.0,0.0,0.0,0.0,0.0,0.0,0.0,0.0,0.0,0.0,0.0,0.0,0.0,0.0,0.0,0.0,0.0,0.0,0.0,0.0,0.0,0.0,0.0,0.0,0.0,0.0,0.0,0.0,0.0,0.0,0.0,0.0,0.0,0.0,0.0,0.0,0.0,0.0,0.0,0.0,0.0812,0.0895,0.0878,0.0897,0.0897,0.0838,0.0788,0.0,0.0,0.0,0.0,0.0,0.0,0.0,0.0,0.0,0.0,0.0,0.0,0.0,0.0,0.0,0.0,0.0,0.0,0.0,0.0,0.0,0.0,0.0,0.0,0.0,0.0,0.0,0.0,0.0,0.0,0.0,0.0,0.0,0.0,0.0,0.0,0.0,0.0,0.0,0.0,0.0,0.0,0.0,0.0,0.0,0.0,0.0,0.0,-0.0754,0.0,0.0,0.0,0.0,0.0,0.0,0.0,0.0,0.0,0.0,0.0,0.0,0.0,0.0,0.0,0.0,0.0,0.0,0.0,0.0,0.0,0.0,0.0,0.0,0.0,0.0,0.0,0.0,0.0,0.0,0.0,0.0,0.0,0.0,0.0,0.0,0.0,0.0,0.0,0.0,0.0,0.0,0.0,0.0,0.0,0.0,0.0,0.0,0.0,0.0,0.0,0.0,0.0,0.0,0.0,0.0,0.0,0.0,0.0,0.0821,0.0905,0.0882,0.0897,0.0896,0.0852,0.0808,0.0,0.0,0.0,0.0,0.0,0.0,0.0,0.0,0.0,0.0,0.0,0.0,0.0,0.0,0.0,0.0,0.0,0.0,0.0,0.0,0.0,0.0,0.0,0.0,0.0,0.0,0.0,0.0,0.0,0.0,0.0,0.0,0.0,0.0,0.0,0.0,0.0,0.0,0.0,0.0,0.0,0.0,0.0,0.0,0.0,0.0,0.0,0.0,0.0,0.0,0.0,0.0,0.0,0.0,0.0,0.0,0.0,0.0,0.0,0.0,0.0,0.0,0.0,0.0,0.0,0.0,0.0,0.0,0.0,0.0,0.0,0.0,0.0,0.0,0.0,0.0,0.0,0.0,0.0,0.0,0.0,0.0,0.0,0.0,0.0,0.0,0.0,0.0,0.0,0.0,0.0,0.0,0.0,0.0,0.0,0.0,0.0,0.0,0.0,0.0,0.0,0.0,0.0,0.0,0.0,0.0,0.0,0.0779,0.0824,0.0858,0.0884,0.0897,0.0897,0.0868,0.0877,0.077,0.0,0.0,0.0,0.0,0.0,0.0,0.0,0.0,0.0,0.0,0.0,0.0,0.0,0.0,0.0,0.0,0.0,0.0,0.0,0.0,0.0,0.0,0.0,0.0,0.0,0.0,0.0,0.0,0.0,0.0,0.0,0.0,0.0,0.0,0.0,0.0,0.0,0.0,0.0395,0.0474,0.0,0.0,0.0,0.0,0.0,0.0,0.0,0.0,0.0136,0.0,0.0,0.0,0.0,0.0,0.0,0.0,0.0,0.0,0.0,0.0,0.0,0.0,0.0,0.0,0.0,0.0,0.0,0.0,0.0,0.0,0.0,0.0,0.0,0.0,0.0,0.0,0.0,0.0,0.0,0.0,0.0,0.0,0.0,0.0,0.0,0.0,0.0,0.0,0.0,0.0,0.0,0.0,0.0,0.0,0.0,0.0,0.0,0.0,0.0,0.0,0.0,0.0,0.0,0.0,0.0,0.0804,0.079,0.0834,0.0888,0.0895,0.0897,0.0896,0.0868,0.0888,0.0799,0.0,0.0,0.0,0.0,0.0,0.0,0.0,0.0,0.0,0.0,0.0,0.0,0.0,0.0,0.0,0.0,0.0,0.0,0.0,0.0,0.0,0.0,0.0,0.0,0.0,0.0,0.0,0.0,0.0,0.0,0.0,0.0,0.0,0.0,0.0,0.0,0.0,0.0,0.0,0.0604,0.0748,0.0,0.0,0.0,0.0,0.0,0.0,0.0,0.0,0.0751,0.0,0.0,0.0,0.0,0.0,0.0,0.0,0.0,0.0,0.0,0.0,0.0,0.0,0.0,0.0,0.0,0.0,0.0,0.0,0.0,0.0,0.0,0.0,0.0,0.0,0.0,0.0,0.0,0.0,0.0,0.0,0.0,0.0,0.0,0.0,0.0,0.0,0.0,0.0,0.0,0.0,0.0,0.0,0.0,0.0,0.0,0.0,0.0,0.0,0.0,0.0,0.0,0.0,0.0,0.0,0.0783,0.0815,0.0852,0.0896,0.0897,0.0897,0.0897,0.0868,0.0838,0.0,0.0,0.0,0.0,0.0,0.0,0.0,0.0,0.0,0.0,0.0,0.0,0.0,0.0,0.0,0.0,0.0,0.0,0.0,0.0,0.0,0.0,0.0,0.0,0.0,0.0,0.0,0.0,0.0,0.0,0.0,0.0,0.0,0.0,0.0,0.0,0.0,0.0,0.0,0.0,0.0857,0.101,0.1011,0.0,0.0,0.0,0.0,0.0,0.0,0.1024,0.1062,0.0,0.0,0.0,0.0,0.0,0.0,0.0,0.0,0.0,0.0,0.0,0.0,0.0,0.0,0.0,0.0,0.0,0.0,0.0,0.0,0.0,0.0,0.0,0.0,0.0,0.0,0.0,0.0,0.0,0.0,0.0,0.0,0.0,0.0,0.0,0.0,0.0,0.0,0.0,0.0,0.0,0.0,0.0,0.0,0.0,0.0,0.0,0.0,0.0,0.0,0.0,0.0,0.0,0.0,0.0,0.0804,0.0837,0.0867,0.0896,0.0897,0.0897,0.0896,0.0862,0.0832,0.0,0.0,0.0,0.0,0.0,0.0,0.0,0.0,0.0,0.0,0.0,0.0,0.0,0.0,0.0,0.0,0.0,0.0,0.0,0.0,0.0,0.0,0.0,0.0,0.0,0.0,0.0,0.0,0.0,0.0,0.0,0.0,0.0,0.0,0.0,0.0,0.0,0.0,0.0,0.0,0.0,0.1281,0.1238,0.1264,0.0,0.0,0.0,0.0,0.1336,0.1345,0.0,0.0,0.0,0.0,0.0,0.0,0.0,0.0,0.0,0.0,0.0,0.0,0.0,0.0,0.0,0.0,0.0,0.0,0.0,0.0,0.0,0.0,0.0,0.0,0.0,0.0,0.0,0.0,0.0,0.0,0.0,0.0,0.0,0.0,0.0,0.0,0.0,0.0,0.0,0.0,0.0,0.0,0.0,0.0,0.0,0.0,0.0,0.0,0.0,0.0,0.0,0.0,0.0,0.0,0.0,0.0,0.0804,0.0836,0.0867,0.0896,0.0897,0.0897,0.0896,0.0842,0.081,0.0,0.0,0.0,0.0,0.0,0.0,0.0,0.0,0.0,0.0,0.0,0.0,0.0,0.0,0.0,0.0,0.0,0.0,0.0,0.0,0.0,0.0,0.0,0.0,0.0,0.0,0.0,0.0,0.0,0.0,0.0,0.0,0.0,0.0,0.0,0.0,0.0,0.0,0.0,0.0,0.0,0.1547,0.1316,0.1505,0.1541,0.0,0.0,0.1798,0.1734,0.187,0.0,0.0,0.0,0.0,0.0,0.0,0.0,0.0,0.0,0.0,0.0,0.0,0.0,0.0,0.0,0.0,0.0,0.0,0.0,0.0,0.0,0.0,0.0,0.0,0.0,0.0,0.0,0.0,0.0,0.0,0.0,0.0,0.0,0.0,0.0,0.0,0.0,0.0,0.0,0.0,0.0,0.0,0.0,0.0,0.0,0.0,0.0,0.0,0.0,0.0,0.0,0.0,0.0,0.0,0.0,0.0827,0.0806,0.0853,0.0885,0.0896,0.0897,0.0897,0.0897,0.0838,0.0807,0.0,0.0,0.0,0.0,0.0,0.0,0.0,0.0,0.0,0.0,0.0,0.0,0.0,0.0,0.0,0.0,0.0,0.0,0.0,0.0,0.0,0.0,0.0,0.0,0.0,0.0,0.0,0.0,0.0,0.0,0.0,0.0,0.0,0.0,0.0,0.0,0.0,0.0,0.0,0.0,0.0,0.0,0.1663,0.1778,0.0,0.0,0.0,0.1959,0.2019,0.0,0.0,0.0,0.0,0.0,0.0,0.0,0.0,0.0,0.0,0.0,0.0,0.0,0.0,0.0,0.0,0.0,0.0,0.0,0.0,0.0,0.0,0.0,0.0,0.0,0.0,0.0,0.0,0.0,0.0,0.0,0.0,0.0,0.0,0.0,0.0,0.0,0.0,0.0,0.0,0.0,0.0,0.0,0.0,0.0,0.0,0.0,0.0,0.0,0.0,0.0,0.0,0.0,0.0,0.0,0.0,0.0,0.0857,0.0867,0.0897,0.0897,0.0897,0.0897,0.0896,0.0838,0.0,0.0,0.0,0.0,0.0,0.0,0.0,0.0,0.0,0.0,0.0,0.0,0.0,0.0,0.0,0.0,0.0,0.0,0.0,0.0,0.0,0.0,0.0,0.0,0.0,0.0,0.0,0.0406,0.0,0.0,0.0,0.0,0.0,0.0,0.0,0.0,0.0,0.0,0.0,0.0,0.0,0.0,0.2113,0.1952,0.2029,0.2127,0.0,0.0,0.2171,0.2199,0.2216,0.2219,0.0,0.0,0.0,0.0,0.0,0.0,0.0,0.0,0.0,0.0,0.0,0.0,0.0,0.0,0.0,0.0,0.0,0.0,0.0,0.0,0.0,0.0,0.0,0.0,0.0,0.0,0.0,0.0,0.0,0.0,0.0,0.0,0.0,0.0,0.0,0.0,0.0,0.0,0.0,0.0,0.0,0.0,0.0,0.0,0.0,0.0,0.0,0.0,0.0,0.0,0.0,0.0,0.0,0.0,0.0,0.101,0.092,0.0897,0.0897,0.0897,0.0897,0.0896,0.0838,0.0807,0.0,0.0,0.0,0.0,0.0,0.0,0.0,0.0,0.0,0.0,0.0,0.0,0.0,0.0,0.0,0.0,0.0,0.0,0.0,0.0,0.0,0.0,0.0,0.0,0.0,0.0,0.0,0.0,0.0,0.0,0.0,0.0,0.0,0.0,0.0,0.0,0.0,0.0,0.0,0.0,0.0,0.213,0.1897,0.2235,0.2336,0.0,0.0,0.2422,0.2342,0.2503,0.2578,0.2323,0.0,0.0,0.0,0.0,0.0,0.0,0.0,0.0,0.0,0.0,0.0,0.0,0.0,0.0,0.0,0.0,0.0,0.0,0.0,0.0,0.0,0.0,0.0,0.0,0.0,0.0,0.0,0.0,0.0,0.0,0.0,0.0,0.0,0.0,0.0,0.0,0.0,0.0,0.0,0.0,0.0,0.0,0.0,0.0,0.0,0.0,0.0,0.0,0.0,0.0,0.0,0.0,0.0,0.1019,0.1009,0.0921,0.0897,0.0897,0.0897,0.0897,0.0897,0.0857,0.0825,0.0,0.0,0.0,0.0,0.0,0.0,0.0,0.0,0.0,0.0,0.0,0.0,0.0,0.0,0.0,0.0,0.0,0.0,0.0,0.0,0.0,0.0,0.0,0.0,0.0,0.0,0.0,0.0,0.0388,0.0436,0.046,0.0,0.0,0.0,0.0,0.0,0.0,0.0,0.0,0.0,0.0,0.2148,0.223,0.2358,0.0,0.0,0.2465,0.2454,0.2422,0.2565,0.257,0.2364,0.2379,0.0,0.0,0.0,0.0,0.0,0.0,0.0,0.0,0.0,0.0,0.0,0.0,0.0,0.0,0.0,0.0,0.0,0.0,0.0,0.0,0.0,0.0,0.0,0.0,0.0,0.0,0.0,0.0,0.0,0.0,0.0,0.0,0.0,0.0,0.0,0.0,0.0,0.0,0.0,0.0,0.0,0.0,0.0,0.0,0.0,0.0,0.0,0.0,0.0,0.0,0.0,0.0,0.1135,0.1128,0.0981,0.0897,0.0897,0.0897,0.0897,0.0896,0.0868,0.0894,0.0,0.0,0.0,0.0,0.0,0.0,0.0,0.0,0.0,0.0,0.0,0.0,0.0,0.0,0.0,0.0,0.0,0.0,0.0,0.0,0.0,0.0,0.0,0.0,0.0,0.0,0.0,0.0,0.0392,0.0422,0.0484,0.0,0.0,0.0,0.0,0.0,0.0,0.0,0.0,0.0,0.0,0.2027,0.2052,0.2261,0.2465,0.2465,0.2354,0.2296,0.2352,0.2415,0.2424,0.2344,0.0,0.0,0.0,0.0,0.0,0.0,0.0,0.0,0.0,0.0,0.0,0.0,0.0,0.0,0.0,0.0,0.0,0.0,0.0,0.0,0.0,0.0,0.0,0.0,0.0,0.0,0.0,0.2676,0.0,0.0,0.2523,0.0,0.0,0.0,0.0,0.0,0.0,0.0,0.0,0.0,0.0,0.0,0.0,0.0,0.0,0.0,0.0,0.0,0.0,0.0,0.0,0.0,0.0,0.1231,0.1277,0.1047,0.0897,0.0897,0.0897,0.0897,0.0896,0.0868,0.0905,0.0904,0.0,0.0,0.0,0.0,0.0,0.0,0.0,0.0,0.0,0.0,0.0,0.0,0.0,0.0,0.0,0.0,0.0,0.0,0.0,0.0,0.0,0.0,0.0,0.0,0.0,0.0,0.0393,0.0393,0.0432,0.0,0.0,0.0,0.0,0.0,0.0,0.0,0.0,0.0,0.0,0.1433,0.1777,0.1394,0.1847,0.2184,0.2015,0.1903,0.1846,0.1959,0.2014,0.2101,0.0,0.0,0.0,0.0,0.0,0.0,0.0,0.0,0.0,0.0,0.0,0.0,0.0,0.0,0.0,0.0,0.0,0.0,0.0,0.0,0.0,0.0,0.0,0.0,0.0,0.0,0.0,0.294,0.2783,0.0,0.0,0.0,0.0,0.0,0.0,0.0,0.0,0.0,0.0,0.0,0.1845,0.1738,0.0,0.0,0.0,0.0,0.0,0.0,0.0,0.0,0.0,0.0,0.0,0.0,0.1233,0.1279,0.1047,0.0897,0.0897,0.0897,0.0897,0.0897,0.0887,0.0872,0.0905,0.0,0.0,0.0,0.0,0.0,0.0,0.0,0.0,0.0,0.0,0.0,0.0,0.0,0.0,0.0,0.0,0.0,0.0,0.0,0.0,0.0,0.0,0.0,0.0,0.0,0.0449,0.0,0.0,0.0,0.0,0.0,0.0,0.0,0.0,0.0,0.0,0.0,0.0409,0.0743,0.1032,0.1495,0.2132,0.2191,0.1962,0.0,0.0,0.0,0.0,0.0,0.0,0.0,0.0,0.0,0.0,0.0,0.0,0.0,0.0,0.2505,0.2356,0.2303,0.2274,0.2246,0.0,0.0,0.0,0.0,0.0,0.0,0.0,0.0,0.0,0.0,0.0,0.0,0.0,0.0,0.2869,0.2616,0.2512,0.0,0.0,0.0,0.0,0.0,0.0,0.0,0.0,0.1977,0.1738,0.1628,0.1494,0.1436,0.0,0.1501,0.1519,0.0,0.0,0.0,0.0,0.0,0.0,0.0,0.0,0.1204,0.1193,0.0998,0.0897,0.0897,0.0897,0.0897,0.0897,0.0897,0.0878,0.0889,0.0791,0.0746,0.0,0.0,0.0,0.0,0.0,0.0,0.0,0.0,0.0,0.0,0.0,0.0,0.0,0.0,0.0,0.0,0.0,0.0,0.0,0.0,0.0,0.0,0.0,0.0262,0.0,0.0,0.0,0.0,0.0,0.0,0.0,0.0,0.0,-0.0146,-0.0051,0.0107,0.033,0.0501,0.0841,0.1515,0.0,0.0,0.0,0.0,0.0,0.0,0.0,0.1374,0.1853,0.2068,0.2282,0.2713,0.2895,0.3015,0.3015,0.0,0.0,0.2544,0.246,0.2419,0.2419,0.2442,0.2466,0.2466,0.2491,0.2511,0.0,0.0,0.0,0.0,0.0,0.0,0.0,0.0,0.2609,0.2494,0.0,0.2055,0.0,0.0,0.0,0.0,0.2095,0.2075,0.0,0.0,0.1565,0.1421,0.1358,0.124,0.1177,0.1174,0.1259,0.1278,0.1289,0.1419,0.0,0.0,0.0,0.0,0.0,0.0,0.1247,0.1122,0.0955,0.0899,0.09,0.09,0.0898,0.0898,0.0897,0.087,0.0815,0.0836,0.0849,0.0686,0.0705,0.0,0.0,0.0,0.0,0.0,0.0,0.0,0.0,0.0,0.0,0.0,0.0,0.0,0.0,0.0,0.0,0.0,0.0,0.0,0.0,-0.0171,0.0,0.0,0.0,0.0,0.0,0.0,0.0,0.0,0.0,0.0,-0.0223,-0.0109,-0.011,-0.0351,0.0,0.0,0.0,0.0,0.0826,0.0826,0.0363,0.0062,0.0308,0.0123,0.0371,0.1666,0.0,0.0,0.2778,0.2964,0.2968,0.2964,0.2962,0.2965,0.2736,0.257,0.2456,0.2452,0.2523,0.2617,0.2628,0.2646,0.2697,0.3709,0.0,0.0,0.0,0.0,0.4059,0.3887,0.3505,0.3457,0.3079,0.2477,0.2324,0.0,0.0,0.0,0.0,0.0,0.0,0.1755,0.1602,0.1397,0.1271,0.1182,0.114,0.1128,0.102,0.1075,0.1054,0.1083,0.1123,0.1227,0.1314,0.0,0.0,0.0,0.0,0.1097,0.1159,0.0988,0.0872,0.0872,0.0872,0.0862,0.0898,0.0897,0.089,0.0872,0.0859,0.0889,0.0852,0.0748,0.0,0.0,0.0,0.0,0.0,0.0,0.0,0.0,0.0,0.0,0.0,0.0,0.0,0.0,0.0,0.0,0.0,0.0,0.0,-0.0486,-0.0537,-0.0629,0.0,0.0,0.0,0.0,0.0,0.0,0.0,0.0,0.0,-0.0895,-0.076,-0.064,0.0,0.0,-0.0541,-0.0782,-0.0424,-0.0183,-0.0427,-0.043,0.0,-0.037,-0.0377,-0.0127,0.051,0.0842,0.1181,0.1574,0.2097,0.2424,0.2424,0.277,0.3032,0.2985,0.2943,0.2803,0.2861,0.288,0.2899,0.2901,0.2924,0.2879,0.373,0.3897,0.3675,0.3572,0.357,0.3608,0.3414,0.2952,0.2937,0.2649,0.2098,0.2086,0.2002,0.166,0.1724,0.0,0.0,0.0,0.1481,0.1369,0.1265,0.12,0.1114,0.1131,0.1121,0.1087,0.1086,0.1065,0.1023,0.1023,0.1096,0.1102,0.0,0.0,0.1245,0.1133,0.1097,0.114,0.1021,0.0961,0.0961,0.089,0.087,0.0898,0.0897,0.0897,0.0897,0.088,0.0864,0.0905,0.0802,0.0756,0.0,0.0,0.0,0.0,0.0,0.0,0.0,0.0,0.0,0.0,0.0,-0.0424,-0.0553,0.0,0.0,0.0,-0.0457,-0.0497,-0.0785,-0.0894,0.0,0.0,0.0,0.0,0.0,0.0,0.0,-0.1328,-0.1388,-0.1393,-0.1397,-0.1273,-0.1139,-0.0881,-0.0809,-0.0868,-0.1067,0.0,-0.0835,-0.1039,-0.092,-0.0794,-0.0861,-0.0805,-0.0543,-0.0136,0.0481,0.0902,0.1041,0.1455,0.1732,0.1798,0.2052,0.2232,0.2232,0.2202,0.2397,0.2861,0.3047,0.3007,0.3007,0.3034,0.3062,0.3747,0.3712,0.3313,0.294,0.2669,0.2735,0.2311,0.1581,0.1758,0.1611,0.137,0.1608,0.1599,0.1421,0.1421,0.0,0.1836,0.1465,0.1201,0.1133,0.1161,0.1172,0.117,0.117,0.1169,0.1166,0.1166,0.1138,0.1084,0.1082,0.1056,0.1003,0.1128,0.1185,0.1174,0.1173,0.1113,0.0992,0.0992,0.0992,0.0992,0.0959,0.0871,0.0902,0.0898,0.0897,0.0897,0.0897,0.0885,0.0911,0.0907,0.0865,0.0735,0.0,0.0,0.0,0.0,0.0,0.0,0.0,0.0,0.0,0.0,0.0,0.0,0.0,0.0,0.0,-0.1097,0.0,-0.0954,-0.1165,0.0,0.0,0.0,-0.1348,-0.1344,-0.1389,-0.1496,-0.1665,0.0,0.0,-0.1682,-0.1659,-0.152,-0.1182,-0.1084,-0.1075,-0.117,-0.1136,-0.1095,-0.1188,-0.1218,-0.1164,-0.1154,-0.1157,-0.094,-0.0362,0.0364,0.0725,0.0725,0.087,0.0871,0.0942,0.0944,0.1015,0.1016,0.1083,0.134,0.2557,0.281,0.2919,0.299,0.3035,0.3072,0.2418,0.2413,0.1944,0.2297,0.3037,0.2743,0.2454,0.232,0.2292,0.2116,0.1944,0.1735,0.154,0.1288,0.1288,0.1303,0.1327,0.1261,0.1203,0.1225,0.1232,0.1224,0.1201,0.1201,0.1189,0.1167,0.1166,0.1159,0.1217,0.1145,0.1138,0.1195,0.1194,0.1146,0.1054,0.1049,0.1,0.1022,0.1023,0.1023,0.1022,0.0909,0.0881,0.0874,0.091,0.0897,0.0897,0.0897,0.0894,0.0887,0.0864,0.0895,0.0873,0.0756,0.0,0.0,0.0,0.0,0.0,0.0,0.0,0.0,0.0,-0.1043,-0.1231,0.0,-0.1239,0.0,-0.1271,-0.1216,-0.1085,-0.1337,0.0,0.0,-0.1586,-0.1614,-0.1605,-0.1593,-0.1642,-0.1822,-0.1751,-0.1655,-0.1734,-0.1564,-0.1367,-0.1207,-0.127,-0.1339,-0.1206,-0.1212,-0.1148,-0.1228,-0.1236,-0.1166,-0.1168,-0.1166,-0.1168,-0.0947,-0.0802,-0.0655,-0.0656,-0.0218,0.0146,0.0218,0.0655,0.0945,0.0946,0.1018,0.1083,0.1407,0.1456,0.1716,0.2195,0.2375,0.2619,0.2423,0.2336,0.1906,0.2065,0.2714,0.2165,0.1996,0.2017,0.1992,0.19,0.1732,0.1608,0.1657,0.1792,0.1402,0.1334,0.1508,0.1337,0.1261,0.1276,0.1343,0.1248,0.1232,0.1232,0.1224,0.1283,0.1283,0.12,0.1187,0.1187,0.1179,0.1166,0.1166,0.1133,0.107,0.1054,0.1049,0.1052,0.1052,0.1046,0.1033,0.0987,0.0897,0.0884,0.0913,0.0897,0.0897,0.0897,0.0897,0.0897,0.0881,0.0812,0.0639,0.0553,0.0434,0.0,0.0,0.0,0.0,0.0,0.0,0.0,0.0,0.0,0.0,0.0,-0.1429,-0.1455,-0.1452,-0.1433,-0.1427,-0.1593,-0.1758,-0.1819,-0.1849,-0.1873,-0.1822,-0.1858,-0.1827,-0.1809,-0.1858,-0.1816,-0.1744,-0.1708,-0.1584,-0.1433,-0.1509,-0.1428,-0.1264,-0.1186,-0.1191,-0.128,-0.1207,-0.1206,-0.1207,-0.1282,-0.1207,-0.1282,-0.1207,-0.1206,-0.1207,-0.0905,-0.0603,-0.0603,-0.0301,-0.0,-0.0,-0.0,-0.0,-0.0,-0.0,0.0434,0.1355,0.1616,0.1879,0.2706,0.2699,0.2252,0.2069,0.2059,0.1554,0.1274,0.1274,0.1274,0.1272,0.1353,0.1353,0.1688,0.2356,0.16,0.1515,0.1848,0.1485,0.1309,0.1306,0.1277,0.1342,0.1342,0.1338,0.1336,0.1336,0.1336,0.1243,0.1218,0.1218,0.1204,0.1253,0.1252,0.1176,0.1171,0.1146,0.1114,0.1076,0.1076,0.1064,0.1039,0.0946,0.0918,0.083,0.0805,0.0789,0.0785,0.0785,0.0785,0.0785,0.0785,0.0609,0.0268,0.0213,0.0052,0.0,-0.0455,0.0,0.0,0.0,0.0,0.0,0.0,0.0,0.0,-0.1623,-0.167,-0.1725,-0.1681,-0.1699,-0.182,-0.1882,-0.1941,-0.2001,-0.206,-0.2076,-0.197,-0.2124,-0.2146,-0.1836,-0.1953,-0.2055,-0.1903,-0.1862,-0.1808,-0.1646,-0.1644,-0.1555,-0.13,-0.1218,-0.1226,-0.1333,-0.1336,-0.1328,-0.133,-0.1333,-0.1254,-0.1334,-0.1331,-0.1336,-0.1333,-0.1255,-0.1256,-0.1256,-0.1253,-0.1254,-0.1257,-0.1256,-0.1256,-0.1174,-0.1154,-0.0678,0.0515,0.0872,0.1164,0.1774,0.1748,0.1656,0.164,0.1524,0.1424,0.1419,0.133,0.1418,0.1405,0.1382,0.1382,0.1455,0.1517,0.1348,0.1348,0.1431,0.1342,0.1339,0.1338,0.1308,0.1294,0.1292,0.1348,0.1336,0.1336,0.1336,0.1254,0.1249,0.1249,0.1246,0.1318,0.1318,0.1228,0.1204,0.0,0.0,0.0,0.1078,0.1076,0.107,0.0716,0.0505,0.049,0.0297,0.0,0.0168,0.0168,0.0168,0.0168,0.0056,0.0,0.0,0.0,0.0,0.0,0.0,0.0,0.0,0.0,0.0,0.0,-0.1687,-0.1744,-0.1721,-0.1811,-0.1835,-0.1846,-0.1837,-0.188,-0.2001,-0.2131,-0.2127,-0.2187,-0.2247,-0.2239,-0.2303,-0.2311,-0.2335,-0.2315,-0.2252,-0.2181,-0.2103,-0.2037,-0.1808,-0.1651,-0.173,-0.1726,-0.1562,-0.1403,-0.1328,-0.1335,-0.1336,-0.1336,-0.1336,-0.1336,-0.1336,-0.1336,-0.1336,-0.1336,-0.1336,-0.1336,-0.1336,-0.1336,-0.1336,-0.1336,-0.1336,-0.1336,-0.1336,-0.1336,-0.1252,-0.1006,-0.0076,0.0074,0.0364,0.1517,0.1504,0.1033,0.084,0.0,0.0462,0.0277,0.0277,0.1086,0.1427,0.1412,0.1412,0.1229,0.0869,0.1217,0.113,0.0869,0.1204,0.1368,0.1367,0.1339,0.1324,0.1324,0.1309,0.1294,0.128,0.1279,0.1113,0.0786,0.0786,0.0629,0.0393,0.0393,0.039,0.0308,0.0305,0.044,0.0686,0.0474,0.0337,0.0269,0.0065,-0.0064,-0.0126,-0.0241,0.0,0.0,0.0,0.0,0.0,0.0,0.0,0.0,0.0,0.0,-0.1093,-0.1345,-0.1556,-0.1635,-0.1636,-0.1675,-0.1818,-0.1911,-0.1914,-0.1887,-0.191,-0.1951,-0.201,-0.2015,-0.2065,-0.2183,-0.2225,-0.2267,-0.2324,-0.2358,-0.2326,-0.2299,-0.2386,-0.24,-0.2192,-0.2198,-0.2196,-0.2042,-0.1964,-0.1887,-0.173,-0.1808,-0.181,-0.1651,-0.1573,-0.1573,-0.1493,-0.1336,-0.1336,-0.1336,-0.1336,-0.1337,-0.1336,-0.1336,-0.1336,-0.1336,-0.1336,-0.1336,-0.1336,-0.1336,-0.1336,-0.1336,-0.1336,-0.1336,-0.1336,-0.1336,-0.1175,-0.0772,-0.0687,-0.0454,0.1057,0.1246,0.0479,0.0096,-0.0,-0.0572,-0.0858,-0.0856,0.0458,0.0,0.0,0.1076,0.0718,0.0269,0.0807,0.0718,0.0269,0.0793,0.1048,0.1047,0.0941,0.0932,0.0932,0.0928,0.0917,0.09,0.0897,0.0644,0.0158,0.0157,-0.0079,-0.055,-0.0629,-0.0629,-0.0627,-0.0767,-0.0593,-0.0071,-0.0413,-0.0608,-0.0605,-0.0723,-0.0777,-0.0773,-0.0799,-0.0777,-0.0772,-0.1101,-0.1313,-0.1314,-0.1371,-0.1427,-0.1542,-0.1599,-0.1599,-0.1657,-0.1657,-0.1733,-0.1894,-0.1896,-0.1924,-0.1984,-0.2044,-0.2117,-0.2054,-0.2008,-0.2061,-0.2162,-0.218,-0.223,-0.2339,-0.2277,-0.2372,-0.2429,-0.2436,-0.2378,-0.2267,-0.2353,-0.2356,-0.2132,-0.2215,-0.2215,-0.2072,-0.1994,-0.1909,-0.1911,-0.1918,-0.1831,-0.175,-0.1669,-0.1665,-0.1506,-0.1355,-0.1276,-0.1274,-0.1277,-0.1351,-0.1348,-0.1346,-0.1343,-0.1338,-0.1341,-0.1344,-0.1348,-0.1344,-0.1346,-0.1345,-0.1341,-0.1337,-0.1336,-0.1336,-0.1336,-0.1336,-0.1336,-0.1019,-0.0496,0.0489,-0.0391,-0.0774,-0.0763,-0.0858,-0.0858,-0.0857,-0.0651,-0.0456,-0.0448,-0.0448,-0.0448,-0.0538,-0.0448,-0.0448,-0.0538,-0.0447,-0.0357,-0.0357,-0.0437,-0.0519,-0.0518,-0.0509,-0.0503,-0.0501,-0.041,-0.0486,-0.0565,-0.0476,-0.055,-0.0629,-0.0629,-0.0629,-0.0627,-0.115,-0.1358,-0.1272,-0.1072,-0.1033,-0.1009,-0.1407,-0.1585,-0.1548,-0.147,-0.1446,-0.141,-0.1401,-0.146,-0.146,-0.1581,-0.1642,-0.1703,-0.1823,-0.1947,-0.1947,-0.1947,-0.1952,-0.1959,-0.1961,-0.2048,-0.211,-0.2172,-0.2116,-0.2124,-0.2146,-0.2144,-0.2234,-0.2277,-0.2335,-0.2398,-0.2407,-0.2432,-0.2486,-0.2497,-0.2501,-0.2431,-0.2512,-0.2533,-0.2497,-0.2508,-0.2528,-0.2482,-0.2409,-0.2158,-0.1996,-0.1985,-0.1994,-0.1903,-0.164,-0.1379,-0.138,-0.1319,-0.1333,-0.1328,-0.1335,-0.1321,-0.13,-0.1296,-0.1289,-0.1348,-0.1283,-0.1295,-0.1296,-0.1296,-0.1296,-0.1296,-0.1274,-0.1342,-0.134,-0.1339,-0.1336,-0.1336,-0.1336,-0.1257,-0.0502,-0.0398,-0.1195,-0.1486,-0.1573,-0.1967,-0.2152,-0.213,-0.2014,-0.1606,-0.0835,-0.0835,-0.1014,-0.1278,-0.0913,-0.0997,-0.1256,-0.0897,-0.0718,-0.0717,-0.071,-0.0707,-0.0706,-0.0787,-0.0779,-0.077,-0.0762,-0.0915,-0.1219,-0.1205,-0.1351,-0.1649,-0.1648,-0.1649,-0.1647,-0.1941,-0.1994,-0.1967,-0.1825,-0.1697,-0.1722,-0.1927,-0.197,-0.1983,-0.1886,-0.1857,-0.1831,-0.1803,-0.1787,-0.1787,-0.1848,-0.1848,-0.1848,-0.1971,-0.2033,-0.2033,-0.2033,-0.1986,-0.2084,-0.2116,-0.2148,-0.2179,-0.2169,-0.2192,-0.2165,-0.2213,-0.22,-0.226,-0.2367,-0.2405,-0.2462,-0.2469,-0.248,-0.2507,-0.251,-0.251,-0.2514,-0.2542,-0.257,-0.26,-0.2632,-0.2662,-0.2688,-0.2608,-0.244,-0.2187,-0.2019,-0.1851,-0.1853,-0.1602,-0.1428,-0.1498,-0.1422,-0.1346,-0.1349,-0.1348,-0.1341,-0.1328,-0.1327,-0.1322,-0.1308,-0.132,-0.1325,-0.1327,-0.1327,-0.1327,-0.1326,-0.1302,-0.1286,-0.128,-0.1346,-0.1338,-0.1336,-0.1336,-0.1336,-0.0806,-0.1109,-0.1917,-0.222,-0.2321,-0.2927,-0.3203,-0.3162,-0.3161,-0.2448,-0.1545,-0.1437,-0.1702,-0.2051,-0.1576,-0.1559,-0.1989,-0.1438,-0.1166,-0.1166,-0.1166,-0.1166,-0.1166,-0.1166,-0.1245,-0.1226,-0.122,-0.1537,-0.1902,-0.1879,-0.2087,-0.2438,-0.251,-0.251,-0.251,-0.251,-0.2488,-0.244,-0.2397,-0.2341,-0.2196,-0.2195,-0.2236,-0.2176,-0.2129,-0.2164,-0.2147,-0.2038,-0.2014,-0.2012,-0.2076,-0.2076,-0.2076,-0.2012,-0.2014,-0.2076,-0.2012,-0.2033,-0.2145,-0.2193,-0.2227,-0.2174,-0.2217,-0.2325,-0.2493,-0.2499,-0.2464,-0.2403,-0.2431,-0.2459,-0.2497,-0.2508,-0.251,-0.251,-0.251,-0.2518,-0.2533,-0.2572,-0.2617,-0.2638,-0.2685,-0.2717,-0.273,-0.2648,-0.2566,-0.2311,-0.1963,-0.1707,-0.171,-0.156,-0.1474,-0.1547,-0.1452,-0.1371,-0.1368,-0.137,-0.1367,-0.1361,-0.1357,-0.1352,-0.1348,-0.135,-0.1357,-0.1357,-0.1357,-0.1357,-0.1355,-0.1333,-0.1316,-0.1311,-0.1298,-0.1279,-0.1351,-0.1341,-0.1337,-0.2522,-0.2017,-0.2725,-0.313,-0.3029,-0.313,-0.3226,-0.3221,-0.3222,-0.3119,-0.2898,-0.2905,-0.2859,-0.2938,-0.2798,-0.2771,-0.2851,-0.2716,-0.2604,-0.2604,-0.2694,-0.2694,-0.2604,-0.2694,-0.2691,-0.2677,-0.2548,-0.2518,-0.2579,-0.2569,-0.2489,-0.2516,-0.251,-0.251,-0.251,-0.251,-0.2507,-0.2501,-0.2496,-0.2439,-0.2261,-0.2254,-0.2227,-0.2169,-0.2161,-0.2202,-0.2149,-0.2207,-0.2204,-0.2203,-0.22,-0.2202,-0.2202,-0.2202,-0.2202,-0.22,-0.2202,-0.2207,-0.2213,-0.2218,-0.2246,-0.2229,-0.2315,-0.2651,-0.3426,-0.3597,-0.3229,-0.2732,-0.2549,-0.2577,-0.251,-0.251,-0.2512,-0.2518,-0.2516,-0.2531,-0.2583,-0.2598,-0.2643,-0.2755,-0.2766,-0.2793,-0.2832,-0.2665,-0.2402,-0.2216,-0.1947,-0.177,-0.1683,-0.151,-0.1426,-0.1424,-0.1425,-0.1423,-0.1422,-0.1427,-0.1411,-0.1391,-0.1386,-0.1378,-0.1369,-0.1373,-0.1386,-0.1386,-0.1386,-0.1386,-0.1381,-0.1364,-0.1345,-0.1343,-0.1335,-0.1328,-0.1304,-0.1281,-0.1346,-0.3029,-0.2725,-0.3029,-0.323,-0.323,-0.323,-0.323,-0.323,-0.323,-0.323,-0.3226,-0.3176,-0.3136,-0.3098,-0.304,-0.2993,-0.2955,-0.2899,-0.2875,-0.2875,-0.2875,-0.2875,-0.2875,-0.2875,-0.2875,-0.2873,-0.2847,-0.2818,-0.2768,-0.2661,-0.2587,-0.2561,-0.253,-0.251,-0.251,-0.251,-0.251,-0.251,-0.251,-0.2485,-0.2441,-0.2403,-0.2358,-0.2233,-0.2227,-0.2199,-0.2214,-0.2207,-0.2191,-0.2224,-0.2221,-0.2221,-0.2221,-0.2221,-0.2221,-0.2221,-0.2221,-0.244,-0.2957,-0.2958,-0.3201,-0.3712,-0.3772,-0.399,-0.4368,-0.4434,-0.4315,-0.3938,-0.3501,-0.3288,-0.321,-0.2821,-0.2523,-0.2555,-0.2564,-0.2587,-0.2647,-0.2685,-0.2734,-0.2781,-0.2816,-0.2843,-0.2868,-0.2604,-0.2334,-0.2155,-0.1885,-0.1615,-0.1615,-0.1436,-0.1436,-0.1436,-0.1436,-0.1436,-0.1436,-0.1436,-0.1429,-0.1421,-0.1416,-0.141,-0.1405,-0.1406,-0.1416,-0.1416,-0.1414,-0.1415,-0.1417,-0.1394,-0.1373,-0.1371,-0.1356,-0.1343,-0.1331,-0.132,-0.1312,-0.323,-0.323,-0.323,-0.323,-0.323,-0.323,-0.323,-0.323,-0.323,-0.323,-0.323,-0.323,-0.3206,-0.3157,-0.3085,-0.3025,-0.2977,-0.2907,-0.2875,-0.2875,-0.2875,-0.2875,-0.2875,-0.2875,-0.2875,-0.2875,-0.2873,-0.2841,-0.2781,-0.2699,-0.2635,-0.2601,-0.2556,-0.2526,-0.2511,-0.251,-0.251,-0.251,-0.251,-0.251,-0.2503,-0.2467,-0.2417,-0.2365,-0.2358,-0.2331,-0.2202,-0.2198,-0.2241,-0.2183,-0.2381,-0.2507,-0.2488,-0.2707,-0.2861,-0.2881,-0.2863,-0.316,-0.3804,-0.3883,-0.4138,-0.4753,-0.485,-0.4989,-0.5179,-0.5337,-0.5464,-0.5619,-0.4919,-0.446,-0.4182,-0.3634,-0.3354,-0.3346,-0.344,-0.3309,-0.3215,-0.3188,-0.3134,-0.2896,-0.2846,-0.2875,-0.2875,-0.2604,-0.2334,-0.2334,-0.1885,-0.1525,-0.1525,-0.1525,-0.1436,-0.1436,-0.1436,-0.1436,-0.1436,-0.1436,-0.1436,-0.1436,-0.1433,-0.1433,-0.1436,-0.1435,-0.1435,-0.1427,-0.1433,-0.1434,-0.1429,-0.1412,-0.1401,-0.1397,-0.1382,-0.1362,-0.136,-0.1354,-0.1348,-0.323,-0.323,-0.323,-0.323,-0.323,-0.323,-0.323,-0.323,-0.323,-0.323,-0.323,-0.323,-0.3229,-0.3215,-0.3105,-0.3143,-0.3029,-0.2928,-0.2877,-0.2875,-0.2875,-0.2875,-0.2875,-0.2875,-0.2875,-0.2875,-0.2875,-0.2845,-0.2789,-0.2774,-0.2715,-0.2609,-0.2598,-0.2567,-0.2523,-0.2591,-0.251,-0.2586,-0.2666,-0.2588,-0.2588,-0.2585,-0.2551,-0.2572,-0.2416,-0.2388,-0.2339,-0.2258,-0.2303,-0.2244,-0.2793,-0.3172,-0.324,-0.3983,-0.4431,-0.4586,-0.4512,-0.4504,-0.4682,-0.4776,-0.4829,-0.4941,-0.5127,-0.5324,-0.604,-0.6153,-0.6472,-0.7249,-0.6486,-0.5836,-0.5388,-0.4991,-0.4968,-0.5165,-0.5264,-0.49,-0.423,-0.4165,-0.3769,-0.3115,-0.2959,-0.2875,-0.2875,-0.2694,-0.2604,-0.2604,-0.2244,-0.1795,-0.1885,-0.1705,-0.1436,-0.1436,-0.1436,-0.1436,-0.1436,-0.1436,-0.1436,-0.1436,-0.1436,-0.1436,-0.1436,-0.1436,-0.1436,-0.1436,-0.1436,-0.1436,-0.1435,-0.1433,-0.1429,-0.1421,-0.1406,-0.1392,-0.1389,-0.1365,-0.1361,-0.323,-0.323,-0.323,-0.323,-0.323,-0.323,-0.323,-0.323,-0.323,-0.323,-0.323,-0.323,-0.323,-0.3225,-0.3143,-0.3086,-0.3042,-0.2965,-0.2909,-0.2879,-0.2875,-0.2875,-0.2875,-0.2875,-0.2875,-0.2875,-0.2875,-0.2864,-0.2839,-0.2804,-0.2763,-0.2711,-0.2638,-0.2589,-0.2645,-0.3079,-0.3366,-0.3366,-0.3834,-0.407,-0.4068,-0.4068,-0.4051,-0.402,-0.3018,-0.245,-0.2391,-0.2388,-0.2582,-0.3092,-0.2872,-0.2931,-0.3399,-0.3777,-0.4239,-0.4704,-0.4742,-0.4985,-0.5542,-0.5715,-0.5925,-0.6522,-0.6543,-0.6634,-0.6923,-0.7015,-0.7173,-0.7346,-0.7368,-0.7092,-0.6866,-0.6031,-0.5336,-0.5513,-0.5559,-0.5521,-0.5272,-0.5127,-0.4793,-0.3935,-0.332,-0.2875,-0.2873,-0.2604,-0.2424,-0.2515,-0.1974,-0.1795,-0.1795,-0.1615,-0.1436,-0.1436,-0.1436,-0.1436,-0.1436,-0.1436,-0.1436,-0.1436,-0.1436,-0.1436,-0.1436,-0.1436,-0.1436,-0.1436,-0.1436,-0.1436,-0.1435,-0.1435,-0.1436,-0.1433,-0.1417,-0.1414,-0.1419,-0.1398,-0.1397,-0.323,-0.323,-0.323,-0.323,-0.323,-0.323,-0.323,-0.323,-0.323,-0.323,-0.323,-0.323,-0.323,-0.3225,-0.3187,-0.3135,-0.3074,-0.2995,-0.2926,-0.2877,-0.2875,-0.2875,-0.2875,-0.2875,-0.2875,-0.2964,-0.323,-0.332,-0.3405,-0.3624,-0.3758,-0.3721,-0.3617,-0.3553,-0.3602,-0.4079,-0.4268,-0.4423,-0.4787,-0.5004,-0.5004,-0.5004,-0.5004,-0.4849,-0.3756,-0.2955,-0.283,-0.2903,-0.3172,-0.355,-0.3534,-0.3898,-0.463,-0.4737,-0.4968,-0.5552,-0.5599,-0.5858,-0.6514,-0.6618,-0.6893,-0.7464,-0.748,-0.748,-0.748,-0.748,-0.7508,-0.7581,-0.7675,-0.7841,-0.7851,-0.6998,-0.6376,-0.6503,-0.6554,-0.6415,-0.6148,-0.616,-0.5716,-0.4919,-0.43,-0.3765,-0.3408,-0.3048,-0.2781,-0.2694,-0.1974,-0.1705,-0.1795,-0.1615,-0.1436,-0.1436,-0.1436,-0.1436,-0.1436,-0.1436,-0.1436,-0.1436,-0.1436,-0.1436,-0.1436,-0.1436,-0.1436,-0.1436,-0.1436,-0.1436,-0.1436,-0.1436,-0.1436,-0.1436,-0.1432,-0.1427,-0.1431,-0.1433,-0.1426,-0.323,-0.323,-0.323,-0.323,-0.323,-0.323,-0.323,-0.323,-0.323,-0.323,-0.323,-0.323,-0.323,-0.3229,-0.3222,-0.3192,-0.312,-0.3025,-0.2947,-0.2897,-0.2883,-0.2882,-0.2883,-0.3056,-0.3142,-0.3232,-0.3942,-0.43,-0.4385,-0.4994,-0.5388,-0.5478,-0.5355,-0.5194,-0.5441,-0.5241,-0.5333,-0.5302,-0.5303,-0.5171,-0.5002,-0.5234,-0.5237,-0.516,-0.4606,-0.4213,-0.39,-0.4053,-0.4009,-0.4013,-0.5044,-0.6247,-0.6678,-0.6718,-0.6972,-0.7131,-0.7234,-0.7238,-0.7439,-0.7383,-0.7375,-0.748,-0.748,-0.748,-0.748,-0.75,-0.7573,-0.7699,-0.7877,-0.7923,-0.8203,-0.8094,-0.8076,-0.8524,-0.8269,-0.7921,-0.7316,-0.7051,-0.6697,-0.5897,-0.5453,-0.5277,-0.4565,-0.4028,-0.3671,-0.305,-0.2423,-0.1973,-0.1974,-0.1705,-0.1436,-0.1436,-0.1436,-0.1437,-0.1436,-0.1436,-0.1437,-0.1438,-0.1436,-0.1436,-0.1436,-0.1436,-0.1436,-0.1436,-0.1436,-0.1436,-0.1436,-0.1436,-0.1436,-0.1436,-0.1436,-0.1436,-0.1436,-0.1436,-0.1436,-0.323,-0.323,-0.323,-0.323,-0.323,-0.323,-0.323,-0.323,-0.323,-0.323,-0.323,-0.323,-0.323,-0.323,-0.323,-0.3198,-0.3138,-0.3097,-0.3052,-0.3089,-0.3044,-0.3023,-0.3105,-0.361,-0.4208,-0.4741,-0.5097,-0.5275,-0.5364,-0.563,-0.5697,-0.5657,-0.5664,-0.5609,-0.565,-0.6028,-0.6247,-0.6231,-0.6665,-0.6905,-0.6721,-0.6707,-0.6703,-0.6707,-0.6546,-0.616,-0.5461,-0.4681,-0.4585,-0.5325,-0.5331,-0.5714,-0.6315,-0.6511,-0.6757,-0.7379,-0.7439,-0.7415,-0.7468,-0.748,-0.748,-0.748,-0.748,-0.748,-0.75,-0.7598,-0.7691,-0.7793,-0.7971,-0.8191,-0.828,-0.8414,-0.8495,-0.8564,-0.8572,-0.848,-0.812,-0.7496,-0.7051,-0.6697,-0.6074,-0.563,-0.5364,-0.5092,-0.4559,-0.3673,-0.3045,-0.2597,-0.2063,-0.1615,-0.1436,-0.1436,-0.1437,-0.144,-0.1444,-0.1444,-0.144,-0.144,-0.1439,-0.1436,-0.1436,-0.1436,-0.1436,-0.1436,-0.1436,-0.1436,-0.1436,-0.1436,-0.1436,-0.1436,-0.1436,-0.1436,-0.1436,-0.1436,-0.1436,-0.323,-0.323,-0.323,-0.323,-0.323,-0.323,-0.323,-0.323,-0.323,-0.323,-0.323,-0.323,-0.323,-0.3331,-0.3632,-0.3807,-0.3767,-0.4157,-0.4324,-0.4261,-0.3779,-0.3632,-0.3689,-0.4428,-0.5099,-0.5719,-0.6074,-0.6254,-0.6254,-0.6605,-0.6786,-0.6763,-0.6779,-0.6737,-0.6724,-0.7102,-0.7281,-0.7138,-0.7545,-0.7671,-0.7521,-0.748,-0.748,-0.748,-0.748,-0.7249,-0.6626,-0.5844,-0.5693,-0.6086,-0.6009,-0.6244,-0.663,-0.6703,-0.6938,-0.7326,-0.748,-0.748,-0.748,-0.748,-0.748,-0.748,-0.748,-0.748,-0.7516,-0.765,-0.7772,-0.7886,-0.8105,-0.8321,-0.8398,-0.8487,-0.8564,-0.8572,-0.8572,-0.8572,-0.8476,-0.8032,-0.7676,-0.7584,-0.7139,-0.6694,-0.6251,-0.5983,-0.5356,-0.4202,-0.3491,-0.2865,-0.2063,-0.1615,-0.1436,-0.1436,-0.1436,-0.1444,-0.1455,-0.1453,-0.1444,-0.1444,-0.1443,-0.1438,-0.1436,-0.1436,-0.1436,-0.1436,-0.1436,-0.1436,-0.1436,-0.1436,-0.1436,-0.1436,-0.1436,-0.1436,-0.1436,-0.1436,-0.1436,-0.323,-0.323,-0.323,-0.323,-0.323,-0.323,-0.323,-0.323,-0.3331,-0.3432,-0.333,-0.3632,-0.3531,-0.3732,-0.4531,-0.4926,-0.5029,-0.5712,-0.6101,-0.5849,-0.5333,-0.4915,-0.4885,-0.5505,-0.5899,-0.6251,-0.6874,-0.7139,-0.7231,-0.7944,-0.8568,-0.8384,-0.8288,-0.856,-0.8249,-0.8381,-0.8131,-0.7954,-0.7886,-0.7732,-0.7537,-0.7508,-0.7492,-0.7484,-0.748,-0.748,-0.7326,-0.7246,-0.6938,-0.6549,-0.6942,-0.7249,-0.748,-0.748,-0.7407,-0.748,-0.748,-0.748,-0.748,-0.748,-0.748,-0.748,-0.748,-0.748,-0.7504,-0.7679,-0.7858,-0.7979,-0.8199,-0.8385,-0.8515,-0.8564,-0.8572,-0.8572,-0.8572,-0.8572,-0.8572,-0.8568,-0.8392,-0.848,-0.848,-0.8212,-0.7231,-0.7048,-0.6068,-0.4736,-0.3848,-0.3133,-0.2241,-0.1793,-0.1525,-0.1436,-0.1436,-0.1447,-0.1459,-0.1448,-0.1443,-0.1455,-0.145,-0.1439,-0.1436,-0.1436,-0.1436,-0.1436,-0.1436,-0.1436,-0.1436,-0.1436,-0.1436,-0.1436,-0.1436,-0.1436,-0.1436,-0.1436,-0.1436,-0.323,-0.323,-0.323,-0.323,-0.323,-0.323,-0.323,-0.3331,-0.4033,-0.4433,-0.4533,-0.5229,-0.5427,-0.5627,-0.5827,-0.5927,-0.6126,-0.6323,-0.642,-0.6515,-0.6964,-0.692,-0.6652,-0.6671,-0.7139,-0.7676,-0.7944,-0.8208,-0.8208,-0.848,-0.8572,-0.8572,-0.8572,-0.8572,-0.8552,-0.8511,-0.8398,-0.8243,-0.8178,-0.7983,-0.7732,-0.7687,-0.7614,-0.7488,-0.7488,-0.7488,-0.7484,-0.748,-0.7403,-0.7249,-0.733,-0.748,-0.748,-0.748,-0.748,-0.748,-0.748,-0.748,-0.748,-0.748,-0.748,-0.748,-0.748,-0.748,-0.7492,-0.7772,-0.7943,-0.8069,-0.8288,-0.8507,-0.856,-0.8572,-0.8572,-0.8572,-0.8572,-0.8572,-0.8572,-0.8572,-0.8572,-0.8572,-0.8572,-0.8388,-0.8208,-0.794,-0.7401,-0.6157,-0.5001,-0.4022,-0.2864,-0.1883,-0.1436,-0.1436,-0.1438,-0.1451,-0.1457,-0.1444,-0.1445,-0.1463,-0.1457,-0.1437,-0.1436,-0.1436,-0.1436,-0.1436,-0.1436,-0.1436,-0.1436,-0.1436,-0.1436,-0.1436,-0.1436,-0.1436,-0.1436,-0.1436,-0.1436,-0.323,-0.323,-0.323,-0.323,-0.323,-0.3632,-0.3831,-0.4031,-0.5031,-0.5429,-0.5629,-0.6124,-0.642,-0.642,-0.6822,-0.712,-0.7123,-0.7524,-0.7822,-0.7796,-0.8174,-0.8255,-0.8096,-0.7889,-0.8032,-0.848,-0.8572,-0.8568,-0.8568,-0.8572,-0.8572,-0.8572,-0.8572,-0.8572,-0.8572,-0.8564,-0.8475,-0.8321,-0.8284,-0.8146,-0.7894,-0.7866,-0.7768,-0.7638,-0.7598,-0.7577,-0.7504,-0.748,-0.748,-0.748,-0.748,-0.748,-0.748,-0.748,-0.748,-0.748,-0.748,-0.748,-0.748,-0.748,-0.748,-0.748,-0.748,-0.7529,-0.7626,-0.7862,-0.802,-0.8158,-0.841,-0.854,-0.8572,-0.8572,-0.8572,-0.8572,-0.8572,-0.8572,-0.8572,-0.8572,-0.8572,-0.8572,-0.8572,-0.8572,-0.8572,-0.848,-0.7848,-0.6864,-0.5445,-0.4376,-0.3307,-0.2239,-0.1438,-0.144,-0.1439,-0.1448,-0.1459,-0.1453,-0.1442,-0.1458,-0.1456,-0.1437,-0.1436,-0.1436,-0.1436,-0.1436,-0.1436,-0.1436,-0.1436,-0.1436,-0.1436,-0.1436,-0.1436,-0.1436,-0.1436,-0.1436,-0.1436,-0.323,-0.323,-0.333,-0.3331,-0.3632,-0.4533,-0.4933,-0.5133,-0.6126,-0.6523,-0.6623,-0.6722,-0.7021,-0.6822,-0.7819,-0.8124,-0.8223,-0.8924,-0.9304,-0.919,-0.9088,-0.8942,-0.8802,-0.8524,-0.8492,-0.8572,-0.8572,-0.8572,-0.8572,-0.8572,-0.8572,-0.8572,-0.8572,-0.8572,-0.8572,-0.8572,-0.8475,-0.8369,-0.8349,-0.8251,-0.8085,-0.8036,-0.7935,-0.7748,-0.7671,-0.7606,-0.7516,-0.748,-0.748,-0.748,-0.748,-0.748,-0.748,-0.748,-0.748,-0.748,-0.748,-0.748,-0.748,-0.748,-0.7504,-0.7525,-0.7533,-0.7594,-0.7776,-0.7967,-0.8126,-0.8247,-0.8455,-0.8552,-0.8572,-0.8572,-0.8572,-0.8572,-0.8572,-0.8572,-0.8572,-0.8572,-0.8572,-0.8572,-0.8572,-0.8572,-0.8568,-0.8296,-0.7933,-0.758,-0.6157,-0.491,-0.3842,-0.2774,-0.198,-0.1448,-0.1446,-0.1444,-0.1455,-0.1463,-0.1451,-0.1449,-0.1445,-0.1436,-0.1436,-0.1436,-0.1436,-0.1436,-0.1436,-0.1436,-0.1436,-0.1436,-0.1436,-0.1436,-0.1436,-0.1436,-0.1436,-0.1436,-0.1436,-0.323,-0.323,-0.4133,-0.4433,-0.4634,-0.5627,-0.6027,-0.6126,-0.7223,-0.7624,-0.7822,-0.8524,-0.8825,-0.8825,-0.9023,-0.9225,-0.9122,-0.9509,-0.9559,-0.9368,-0.9047,-0.8897,-0.8844,-0.8658,-0.858,-0.8572,-0.8572,-0.8572,-0.8572,-0.8572,-0.8572,-0.8572,-0.8572,-0.8572,-0.8572,-0.8568,-0.8556,-0.8507,-0.8503,-0.8402,-0.8268,-0.8223,-0.8089,-0.7821,-0.7646,-0.7545,-0.75,-0.748,-0.748,-0.748,-0.748,-0.748,-0.748,-0.748,-0.748,-0.748,-0.748,-0.748,-0.7484,-0.7496,-0.7553,-0.7667,-0.7699,-0.7772,-0.7947,-0.8117,-0.8231,-0.8321,-0.8455,-0.8564,-0.8572,-0.8572,-0.8572,-0.8572,-0.8572,-0.8572,-0.8572,-0.8572,-0.8572,-0.8572,-0.8572,-0.8572,-0.8572,-0.8384,-0.8116,-0.7937,-0.6956,-0.5622,-0.4467,-0.331,-0.243,-0.163,-0.1461,-0.1459,-0.1465,-0.1476,-0.1474,-0.1461,-0.1452,-0.1437,-0.1437,-0.1436,-0.1436,-0.1436,-0.1436,-0.1436,-0.1436,-0.1436,-0.1436,-0.1436,-0.1436,-0.1436,-0.1436,-0.1436,-0.1436,-0.3533,-0.4033,-0.4533,-0.5133,-0.5729,-0.6625,-0.712,-0.7322,-0.8322,-0.8726,-0.8825,-0.9426,-0.9624,-0.9624,-0.9624,-0.9624,-0.96,-0.9527,-0.9401,-0.9206,-0.8946,-0.8787,-0.8698,-0.8625,-0.8572,-0.8572,-0.8572,-0.8572,-0.8572,-0.8572,-0.8572,-0.8572,-0.8572,-0.8572,-0.8572,-0.8572,-0.8568,-0.8564,-0.8568,-0.8511,-0.8434,-0.8414,-0.8308,-0.8008,-0.7764,-0.7614,-0.7618,-0.7525,-0.7488,-0.748,-0.7484,-0.748,-0.748,-0.748,-0.748,-0.748,-0.748,-0.748,-0.7488,-0.7565,-0.7659,-0.7752,-0.7829,-0.7971,-0.8097,-0.8243,-0.8333,-0.841,-0.8503,-0.8572,-0.8572,-0.8572,-0.8572,-0.8572,-0.8572,-0.8572,-0.8572,-0.8572,-0.8572,-0.8572,-0.8572,-0.8572,-0.8568,-0.8296,-0.8296,-0.8116,-0.7224,-0.5888,-0.5001,-0.3846,-0.2694,-0.1991,-0.1652,-0.1478,-0.148,-0.1489,-0.1594,-0.1582,-0.1569,-0.1636,-0.1619,-0.1527,-0.1436,-0.1436,-0.1436,-0.1436,-0.1436,-0.1436,-0.1436,-0.1436,-0.1436,-0.1436,-0.1436,-0.1436,-0.1436,-0.4033,-0.5033,-0.5233,-0.5829,-0.6725,-0.7822,-0.8223,-0.8421,-0.9225,-0.9426,-0.9624,-0.9624,-0.9624,-0.9624,-0.9624,-0.9624,-0.9571,-0.9397,-0.9234,-0.9108,-0.8869,-0.871,-0.8605,-0.858,-0.8572,-0.8572,-0.8572,-0.8572,-0.8572,-0.8572,-0.8572,-0.8572,-0.8572,-0.8572,-0.8572,-0.8572,-0.8572,-0.8572,-0.8568,-0.8564,-0.8548,-0.8544,-0.8438,-0.8227,-0.7967,-0.7805,-0.7772,-0.7679,-0.7573,-0.7533,-0.7525,-0.7508,-0.7484,-0.748,-0.748,-0.748,-0.748,-0.748,-0.7516,-0.7638,-0.776,-0.7793,-0.7959,-0.8134,-0.8284,-0.8349,-0.8418,-0.8495,-0.8572,-0.8572,-0.8572,-0.8572,-0.8572,-0.8572,-0.8572,-0.8572,-0.8572,-0.8572,-0.8572,-0.8572,-0.8572,-0.8572,-0.848,-0.8296,-0.8296,-0.8208,-0.7224,-0.6245,-0.5179,-0.4304,-0.3064,-0.2289,-0.1954,-0.1888,-0.1894,-0.1787,-0.18,-0.1791,-0.1777,-0.1749,-0.1719,-0.1529,-0.1438,-0.1436,-0.1436,-0.1436,-0.1436,-0.1436,-0.1436,-0.1436,-0.1436,-0.1436,-0.1436,-0.1436,-0.1436,-0.5133,-0.6224,-0.7123,-0.7627,-0.7918,-0.8821,-0.9324,-0.9327,-0.9525,-0.9624,-0.9624,-0.9624,-0.9624,-0.9624,-0.9624,-0.9624,-0.9559,-0.9332,-0.9141,-0.9035,-0.88,-0.8597,-0.8584,-0.8572,-0.8572,-0.8572,-0.8572,-0.8572,-0.8572,-0.8572,-0.8572,-0.8572,-0.8572,-0.8572,-0.8572,-0.8572,-0.8572,-0.8572,-0.8572,-0.8572,-0.8572,-0.856,-0.8495,-0.8316,-0.8093,-0.7988,-0.7967,-0.7935,-0.7862,-0.7732,-0.772,-0.763,-0.7545,-0.7504,-0.7508,-0.748,-0.7484,-0.7488,-0.7537,-0.7671,-0.7825,-0.7967,-0.8138,-0.8312,-0.8455,-0.8507,-0.8519,-0.854,-0.8572,-0.8572,-0.8572,-0.8572,-0.8572,-0.8572,-0.8572,-0.8572,-0.8572,-0.8572,-0.8572,-0.8572,-0.8572,-0.8568,-0.8388,-0.8032,-0.776,-0.7408,-0.6605,-0.5628,-0.465,-0.3961,-0.3267,-0.2687,-0.2277,-0.221,-0.2234,-0.2209,-0.2199,-0.2092,-0.198,-0.1861,-0.174,-0.1538,-0.144,-0.1437,-0.1436,-0.1436,-0.1436,-0.1436,-0.1436,-0.1436,-0.1436,-0.1436,-0.1436,-0.1436,-0.1436,-0.5732,-0.7223,-0.7822,-0.8322,-0.8825,-0.9327,-0.9624,-0.9624,-0.9624,-0.9624,-0.9624,-0.9624,-0.9624,-0.9624,-0.9624,-0.9624,-0.9531,-0.9263,-0.9108,-0.9015,-0.8751,-0.8572,-0.8572,-0.8572,-0.8572,-0.8572,-0.8572,-0.8572,-0.8572,-0.8572,-0.8572,-0.8572,-0.8572,-0.8572,-0.8572,-0.8572,-0.8572,-0.8572,-0.8572,-0.8572,-0.8572,-0.8572,-0.8507,-0.8418,-0.8264,-0.8166,-0.8138,-0.8044,-0.7897,-0.7821,-0.789,-0.7789,-0.762,-0.76,-0.7671,-0.7533,-0.7496,-0.7541,-0.763,-0.7793,-0.7967,-0.8146,-0.8325,-0.8459,-0.854,-0.8564,-0.8572,-0.8572,-0.8572,-0.8572,-0.8572,-0.8572,-0.8572,-0.8572,-0.8572,-0.8572,-0.8572,-0.8572,-0.8572,-0.8572,-0.8572,-0.8568,-0.8388,-0.794,-0.7228,-0.6605,-0.5985,-0.5097,-0.4117,-0.3692,-0.3269,-0.2893,-0.2486,-0.2441,-0.2466,-0.2454,-0.243,-0.2413,-0.2092,-0.1971,-0.1847,-0.1638,-0.1443,-0.1436,-0.1436,-0.1436,-0.1436,-0.1436,-0.1436,-0.1436,-0.1436,-0.1436,-0.1436,-0.1436,-0.1436,-0.6531,-0.8322,-0.8322,-0.8825,-0.9525,-0.9624,-0.9624,-0.9624,-0.9624,-0.9624,-0.9624,-0.9624,-0.9624,-0.9624,-0.962,-0.9608,-0.9547,-0.9226,-0.9088,-0.8958,-0.8723,-0.8572,-0.8572,-0.8572,-0.8572,-0.8572,-0.8572,-0.8572,-0.8572,-0.8572,-0.8572,-0.8572,-0.8572,-0.8572,-0.8572,-0.8572,-0.8572,-0.8572,-0.8572,-0.8572,-0.8572,-0.8572,-0.8572,-0.8568,-0.8422,-0.8349,-0.8333,-0.8239,-0.8138,-0.8089,-0.8052,-0.7988,-0.7781,-0.7849,-0.7874,-0.7646,-0.759,-0.7679,-0.7801,-0.7971,-0.8126,-0.8251,-0.845,-0.8544,-0.8568,-0.8572,-0.8572,-0.8572,-0.8572,-0.8572,-0.8572,-0.8572,-0.8572,-0.8572,-0.8572,-0.8572,-0.8572,-0.8572,-0.8572,-0.8572,-0.8572,-0.8568,-0.8476,-0.776,-0.7051,-0.6163,-0.5544,-0.4654,-0.3764,-0.3585,-0.3267,-0.2995,-0.2692,-0.2666,-0.2699,-0.2607,-0.2683,-0.2663,-0.2317,-0.1987,-0.186,-0.1645,-0.154,-0.1436,-0.1436,-0.1436,-0.1436,-0.1436,-0.1436,-0.1436,-0.1436,-0.1436,-0.1436,-0.1436,-0.1436,-0.8322,-0.9422,-0.9422,-0.9529,-0.9624,-0.9624,-0.9624,-0.9624,-0.9624,-0.9624,-0.9624,-0.9624,-0.9624,-0.9624,-0.9612,-0.9531,-0.9372,-0.9173,-0.8999,-0.8865,-0.8674,-0.8572,-0.8572,-0.8572,-0.8572,-0.8572,-0.8572,-0.8572,-0.8572,-0.8572,-0.8572,-0.8572,-0.8572,-0.8572,-0.8572,-0.8572,-0.8572,-0.8572,-0.8572,-0.8572,-0.8572,-0.8572,-0.8572,-0.856,-0.8536,-0.8511,-0.8503,-0.8442,-0.848,-0.8446,-0.8348,-0.8254,-0.8115,-0.7996,-0.8008,-0.7963,-0.7955,-0.7963,-0.8012,-0.8126,-0.8251,-0.8337,-0.8471,-0.8552,-0.8572,-0.8572,-0.8572,-0.8572,-0.8572,-0.8572,-0.8572,-0.8572,-0.8572,-0.8572,-0.8572,-0.8572,-0.8572,-0.8572,-0.8572,-0.8572,-0.8572,-0.8572,-0.8568,-0.7676,-0.6786,-0.5899,-0.5099,-0.421,-0.3593,-0.3421,-0.3261,-0.2985,-0.2887,-0.2867,-0.2789,-0.2803,-0.2804,-0.2893,-0.2432,-0.1992,-0.1867,-0.1649,-0.1536,-0.1436,-0.1436,-0.1436,-0.1436,-0.1436,-0.1436,-0.1436,-0.1436,-0.1436,-0.1436,-0.1436,-0.1436,-0.9225,-0.9628,-0.9624,-0.9624,-0.9624,-0.9624,-0.9624,-0.9624,-0.9624,-0.9624,-0.9624,-0.9624,-0.9624,-0.9612,-0.9531,-0.9433,-0.9303,-0.9072,-0.8909,-0.88,-0.8653,-0.8572,-0.8572,-0.8572,-0.8572,-0.8572,-0.8572,-0.8572,-0.8572,-0.8572,-0.8572,-0.8572,-0.8572,-0.8572,-0.8572,-0.8572,-0.8572,-0.8572,-0.8572,-0.8572,-0.8572,-0.8572,-0.8572,-0.8572,-0.8572,-0.8572,-0.8572,-0.8568,-0.8627,-0.8628,-0.8537,-0.8361,-0.8256,-0.8251,-0.8296,-0.8178,-0.8276,-0.8272,-0.8207,-0.826,-0.8337,-0.843,-0.8519,-0.8564,-0.8572,-0.8572,-0.8572,-0.8572,-0.8572,-0.8572,-0.8572,-0.8572,-0.8572,-0.8572,-0.8572,-0.8572,-0.8572,-0.8572,-0.8572,-0.8572,-0.8572,-0.8572,-0.848,-0.7852,-0.7139,-0.6517,-0.5544,-0.4567,-0.3879,-0.3455,-0.3208,-0.3064,-0.3068,-0.3064,-0.3065,-0.297,-0.2875,-0.2854,-0.2491,-0.2064,-0.1861,-0.1743,-0.1537,-0.1436,-0.1436,-0.1436,-0.1436,-0.1436,-0.1436,-0.1436,-0.1436,-0.1436,-0.1436,-0.1436,-0.1436,-0.9624,-0.9624,-0.9624,-0.9624,-0.9624,-0.9624,-0.9624,-0.9624,-0.9624,-0.9624,-0.9624,-0.9624,-0.9624,-0.9587,-0.9453,-0.934,-0.9263,-0.8962,-0.8816,-0.8723,-0.8641,-0.858,-0.8572,-0.8572,-0.8572,-0.8572,-0.8572,-0.8572,-0.8572,-0.8572,-0.8572,-0.8572,-0.8572,-0.8572,-0.8572,-0.8572,-0.8572,-0.8572,-0.8572,-0.8572,-0.8572,-0.8572,-0.8572,-0.8572,-0.8572,-0.8572,-0.8572,-0.8572,-0.8564,-0.8556,-0.8552,-0.8475,-0.8394,-0.8442,-0.8463,-0.8398,-0.8459,-0.8467,-0.8394,-0.839,-0.8442,-0.8515,-0.8572,-0.8572,-0.8572,-0.8572,-0.8572,-0.8572,-0.8572,-0.8572,-0.8572,-0.8572,-0.8572,-0.8572,-0.8572,-0.8572,-0.8572,-0.8572,-0.8572,-0.8572,-0.8572,-0.8572,-0.8392,-0.794,-0.7408,-0.6962,-0.6074,-0.4921,-0.415,-0.3555,-0.331,-0.3152,-0.3038,-0.3127,-0.305,-0.3046,-0.2947,-0.2733,-0.247,-0.2153,-0.2054,-0.1745,-0.1441,-0.1436,-0.1436,-0.1436,-0.1436,-0.1436,-0.1436,-0.1436,-0.1436,-0.1436,-0.1436,-0.1436,-0.1436,-0.9624,-0.9624,-0.9624,-0.9624,-0.9624,-0.9624,-0.9624,-0.9624,-0.9624,-0.9624,-0.9624,-0.9624,-0.9624,-0.9579,-0.9437,-0.9271,-0.9116,-0.8909,-0.8751,-0.8641,-0.8572,-0.8572,-0.8572,-0.8572,-0.8572,-0.8572,-0.8572,-0.8572,-0.8572,-0.8572,-0.8572,-0.8572,-0.8572,-0.8572,-0.8572,-0.8572,-0.8572,-0.8572,-0.8572,-0.8572,-0.8572,-0.8572,-0.8572,-0.8572,-0.8572,-0.8572,-0.8572,-0.8572,-0.8572,-0.8572,-0.8572,-0.8568,-0.8519,-0.8544,-0.8532,-0.8532,-0.8532,-0.8544,-0.8511,-0.8507,-0.8544,-0.8564,-0.8572,-0.8572,-0.8572,-0.8572,-0.8572,-0.8572,-0.8572,-0.8572,-0.8572,-0.8572,-0.8572,-0.8572,-0.8572,-0.8572,-0.8572,-0.8572,-0.8572,-0.8572,-0.8572,-0.8572,-0.8572,-0.8212,-0.794,-0.7496,-0.6517,-0.5366,-0.4495,-0.381,-0.3477,-0.3238,-0.3109,-0.3078,-0.3031,-0.3038,-0.2948,-0.2839,-0.2597,-0.2378,-0.2269,-0.1944,-0.1627,-0.1525,-0.1525,-0.1436,-0.1436,-0.1436,-0.1436,-0.1436,-0.1436,-0.1436,-0.1436,-0.1436,-0.1436,-0.9624,-0.9624,-0.9624,-0.9624,-0.9624,-0.9624,-0.9624,-0.9624,-0.9624,-0.9624,-0.9624,-0.9624,-0.9624,-0.9575,-0.9437,-0.9259,-0.9088,-0.8905,-0.8731,-0.8621,-0.8572,-0.8572,-0.8572,-0.8572,-0.8572,-0.8572,-0.8572,-0.8572,-0.8572,-0.8572,-0.8572,-0.8572,-0.8572,-0.8572,-0.8572,-0.8572,-0.8572,-0.8572,-0.8572,-0.8572,-0.8572,-0.8572,-0.8572,-0.8572,-0.8572,-0.8572,-0.8572,-0.8572,-0.8572,-0.8572,-0.8572,-0.8572,-0.8572,-0.8572,-0.8572,-0.8572,-0.8572,-0.8572,-0.8572,-0.8572,-0.8572,-0.8572,-0.8572,-0.8572,-0.8572,-0.8572,-0.8572,-0.8572,-0.8572,-0.8572,-0.8572,-0.8572,-0.8572,-0.8572,-0.8572,-0.8572,-0.8572,-0.8572,-0.8572,-0.8572,-0.8572,-0.8572,-0.8572,-0.8568,-0.8388,-0.8032,-0.6962,-0.5905,-0.4952,-0.4076,-0.3748,-0.333,-0.3108,-0.3052,-0.3101,-0.3028,-0.2951,-0.284,-0.2726,-0.2593,-0.2373,-0.2244,-0.1923,-0.1813,-0.1615,-0.1615,-0.1525,-0.1436,-0.1436,-0.1436,-0.1436,-0.1436,-0.1436,-0.1436,-0.1436,-0.9624,-0.9624,-0.9624,-0.9624,-0.9624,-0.9624,-0.9624,-0.9624,-0.9624,-0.9624,-0.9624,-0.9624,-0.9624,-0.9567,-0.9372,-0.9226,-0.9051,-0.8857,-0.8694,-0.8605,-0.8572,-0.8572,-0.8572,-0.8572,-0.8572,-0.8572,-0.8572,-0.8572,-0.8572,-0.8572,-0.8572,-0.8572,-0.8572,-0.8572,-0.8572,-0.8572,-0.8572,-0.8572,-0.8572,-0.8572,-0.8572,-0.8572,-0.8572,-0.8572,-0.8572,-0.8572,-0.8572,-0.8572,-0.8572,-0.8572,-0.8572,-0.8572,-0.8572,-0.8572,-0.8572,-0.8572,-0.8572,-0.8572,-0.8572,-0.8572,-0.8572,-0.8572,-0.8572,-0.8572,-0.8572,-0.8572,-0.8572,-0.8572,-0.8572,-0.8572,-0.8572,-0.8572,-0.8572,-0.8572,-0.8572,-0.8572,-0.8572,-0.8572,-0.8572,-0.8572,-0.8572,-0.8572,-0.8572,-0.8572,-0.858,-0.8396,-0.7944,-0.6732,-0.5445,-0.4652,-0.3939,-0.3526,-0.3109,-0.3048,-0.3079,-0.3116,-0.3054,-0.2975,-0.2848,-0.2691,-0.2558,-0.2338,-0.2209,-0.1989,-0.1885,-0.1705,-0.1615,-0.1525,-0.1436,-0.1436,-0.1436,-0.1436,-0.1436,-0.1436,-0.1436,-0.9616,-0.9624,-0.9612,-0.9612,-0.9608,-0.9624,-0.9624,-0.9624,-0.9624,-0.9624,-0.9624,-0.9624,-0.9624,-0.9555,-0.9315,-0.9161,-0.9043,-0.8775,-0.8597,-0.858,-0.8572,-0.8572,-0.8572,-0.8572,-0.8572,-0.8572,-0.8572,-0.8572,-0.8572,-0.8572,-0.8572,-0.8572,-0.8572,-0.8572,-0.8572,-0.8572,-0.8572,-0.8572,-0.8572,-0.8572,-0.8572,-0.8572,-0.8572,-0.8572,-0.8572,-0.8572,-0.8572,-0.8572,-0.8572,-0.8572,-0.8572,-0.8572,-0.8572,-0.8572,-0.8572,-0.8572,-0.8572,-0.8572,-0.8572,-0.8572,-0.8572,-0.8572,-0.8572,-0.8572,-0.8572,-0.8572,-0.8572,-0.8572,-0.8572,-0.8572,-0.8572,-0.8572,-0.8572,-0.8572,-0.8572,-0.8572,-0.8572,-0.8572,-0.8572,-0.8613,-0.8593,-0.8572,-0.8572,-0.8576,-0.8593,-0.8593,-0.8576,-0.7656,-0.6133,-0.5254,-0.4631,-0.4021,-0.3512,-0.3264,-0.3299,-0.3128,-0.306,-0.3086,-0.3078,-0.2924,-0.2772,-0.2546,-0.2406,-0.2263,-0.2064,-0.1885,-0.1705,-0.1615,-0.1525,-0.1436,-0.1436,-0.1436,-0.1436,-0.1436,-0.1436,-0.9444,-0.9437,-0.9324,-0.934,-0.9453,-0.9575,-0.9624,-0.9624,-0.9624,-0.9624,-0.9624,-0.9624,-0.9624,-0.9543,-0.9372,-0.9177,-0.9047,-0.8881,-0.871,-0.8572,-0.8572,-0.8572,-0.8572,-0.8572,-0.8572,-0.8572,-0.8572,-0.8572,-0.8572,-0.8572,-0.8572,-0.8572,-0.8572,-0.8572,-0.8572,-0.8572,-0.8572,-0.8572,-0.8572,-0.8572,-0.8572,-0.8572,-0.8572,-0.8572,-0.8572,-0.8572,-0.8572,-0.8572,-0.8572,-0.8572,-0.8572,-0.8572,-0.8572,-0.8572,-0.8572,-0.8572,-0.8572,-0.8572,-0.8572,-0.8572,-0.8572,-0.8572,-0.8572,-0.8572,-0.8572,-0.8572,-0.8572,-0.8572,-0.8572,-0.8572,-0.8572,-0.8572,-0.8572,-0.8572,-0.8572,-0.8572,-0.8572,-0.8576,-0.8589,-0.8662,-0.8678,-0.8601,-0.8572,-0.8658,-0.8694,-0.8571,-0.8583,-0.8204,-0.7015,-0.6194,-0.5465,-0.4744,-0.4126,-0.3686,-0.343,-0.3261,-0.3181,-0.3106,-0.3107,-0.3081,-0.2925,-0.2767,-0.2628,-0.2489,-0.2272,-0.2064,-0.18,-0.1622,-0.1527,-0.1436,-0.1436,-0.1436,-0.1436,-0.1436,-0.1436,-0.9259,-0.925,-0.9145,-0.9161,-0.9287,-0.9458,-0.9531,-0.9535,-0.9531,-0.9502,-0.9445,-0.9437,-0.9433,-0.938,-0.9254,-0.9137,-0.8982,-0.8812,-0.8706,-0.8572,-0.8572,-0.8572,-0.8572,-0.8572,-0.8572,-0.8572,-0.8572,-0.8572,-0.8572,-0.8572,-0.8572,-0.8572,-0.8572,-0.8572,-0.8572,-0.8572,-0.8572,-0.8572,-0.8572,-0.8572,-0.8572,-0.8572,-0.8572,-0.8572,-0.8572,-0.8572,-0.8572,-0.8572,-0.8572,-0.8572,-0.8572,-0.8572,-0.8572,-0.8572,-0.8572,-0.8572,-0.8572,-0.8572,-0.8572,-0.8572,-0.8572,-0.8572,-0.8572,-0.8572,-0.8572,-0.8572,-0.8572,-0.8572,-0.8572,-0.8572,-0.8572,-0.8572,-0.8572,-0.8572,-0.858,-0.858,-0.8589,-0.8593,-0.8653,-0.8727,-0.8698,-0.8629,-0.8593,-0.8723,-0.8812,-0.8706,-0.8506,-0.8128,-0.783,-0.6985,-0.6149,-0.5326,-0.4485,-0.3844,-0.3477,-0.3299,-0.3215,-0.3229,-0.3221,-0.3209,-0.3162,-0.2996,-0.2858,-0.2821,-0.2511,-0.2299,-0.1909,-0.1629,-0.153,-0.1436,-0.1436,-0.1436,-0.1436,-0.1436,-0.1436,-0.9181,-0.9092,-0.9084,-0.9076,-0.9116,-0.9275,-0.9348,-0.9348,-0.9344,-0.9259,-0.912,-0.9141,-0.9165,-0.9096,-0.893,-0.8861,-0.8824,-0.8666,-0.8601,-0.8576,-0.8572,-0.8572,-0.8572,-0.8572,-0.8572,-0.8572,-0.8572,-0.8572,-0.8572,-0.8572,-0.8572,-0.8572,-0.8572,-0.8572,-0.8572,-0.8572,-0.8572,-0.8572,-0.8572,-0.8572,-0.8572,-0.8572,-0.8572,-0.8572,-0.8572,-0.8572,-0.8572,-0.8572,-0.8572,-0.8572,-0.8572,-0.8572,-0.8572,-0.8572,-0.8572,-0.8572,-0.8572,-0.8572,-0.8572,-0.8572,-0.8572,-0.8572,-0.8572,-0.8572,-0.8572,-0.8572,-0.8572,-0.8572,-0.8572,-0.8572,-0.8572,-0.8572,-0.8572,-0.858,-0.8597,-0.8605,-0.8613,-0.8653,-0.8727,-0.8747,-0.8686,-0.8633,-0.8617,-0.8718,-0.895,-0.8942,-0.8851,-0.8802,-0.8386,-0.7707,-0.6866,-0.5847,-0.4887,-0.3812,-0.3528,-0.3425,-0.3226,-0.323,-0.3229,-0.3214,-0.317,-0.3136,-0.3,-0.2967,-0.276,-0.254,-0.212,-0.1816,-0.1617,-0.1525,-0.1615,-0.1436,-0.1525,-0.1436,-0.1436,-0.8792,-0.8885,-0.8771,-0.8787,-0.8922,-0.9096,-0.9169,-0.9173,-0.9173,-0.9133,-0.9096,-0.9096,-0.906,-0.9076,-0.8909,-0.8832,-0.8755,-0.867,-0.8597,-0.8572,-0.8572,-0.8572,-0.8572,-0.8572,-0.8572,-0.8572,-0.8572,-0.8572,-0.8572,-0.8572,-0.8572,-0.8572,-0.8572,-0.8572,-0.8572,-0.8572,-0.8572,-0.8572,-0.8572,-0.8572,-0.8572,-0.8572,-0.8572,-0.8572,-0.8572,-0.8572,-0.8572,-0.8572,-0.8572,-0.8572,-0.8572,-0.8572,-0.8572,-0.8572,-0.8572,-0.8572,-0.8572,-0.8572,-0.8572,-0.8572,-0.8572,-0.8572,-0.8572,-0.8572,-0.8572,-0.8572,-0.8572,-0.8572,-0.8572,-0.8572,-0.8572,-0.8572,-0.8572,-0.858,-0.8609,-0.8653,-0.8678,-0.8763,-0.8836,-0.8848,-0.8783,-0.8731,-0.871,-0.8873,-0.9088,-0.9177,-0.9196,-0.9146,-0.883,-0.8227,-0.7641,-0.6614,-0.5729,-0.473,-0.4033,-0.383,-0.3429,-0.323,-0.3229,-0.3226,-0.3203,-0.3172,-0.3142,-0.3009,-0.2877,-0.2549,-0.2224,-0.2009,-0.1797,-0.1885,-0.1974,-0.1705,-0.1525,-0.1525,-0.1525,-0.8629,-0.8698,-0.8613,-0.8629,-0.8731,-0.884,-0.8889,-0.8897,-0.8954,-0.8958,-0.8893,-0.8877,-0.8889,-0.8857,-0.8759,-0.871,-0.8698,-0.8625,-0.8572,-0.8572,-0.8572,-0.8572,-0.8572,-0.8572,-0.8572,-0.8572,-0.8572,-0.8572,-0.8572,-0.8572,-0.8572,-0.8572,-0.8572,-0.8572,-0.8572,-0.8572,-0.8572,-0.8572,-0.8572,-0.8572,-0.8572,-0.8572,-0.8572,-0.8572,-0.8572,-0.8572,-0.8572,-0.8572,-0.8572,-0.8572,-0.8572,-0.8572,-0.8572,-0.8572,-0.8572,-0.8572,-0.8572,-0.8572,-0.8572,-0.8572,-0.8572,-0.8572,-0.8572,-0.8572,-0.8572,-0.8572,-0.8572,-0.8572,-0.8572,-0.8572,-0.8572,-0.8572,-0.8572,-0.8572,-0.8637,-0.8702,-0.8787,-0.8881,-0.893,-0.8962,-0.8934,-0.8877,-0.8934,-0.9092,-0.9218,-0.9287,-0.9388,-0.9425,-0.9087,-0.8583,-0.8086,-0.7518,-0.6625,-0.5727,-0.5031,-0.4232,-0.3732,-0.3432,-0.323,-0.3226,-0.3221,-0.3211,-0.3185,-0.3036,-0.2886,-0.2563,-0.2439,-0.2192,-0.2155,-0.2247,-0.2248,-0.2064,-0.1885,-0.1885,-0.1795,-0.8828,-0.892,-0.8828,-0.9007,-0.8832,-0.8941,-0.8937,-0.8844,-0.9097,-0.8897,-0.8693,-0.8752,-0.8785,-0.873,-0.8785,-0.8777,-0.8693,-0.858,-0.8572,-0.8572,-0.8572,-0.8572,-0.8572,-0.8572,-0.8572,-0.8572,-0.8572,-0.8572,-0.8572,-0.8572,-0.8572,-0.8572,-0.8572,-0.8572,-0.8572,-0.8572,-0.8572,-0.8572,-0.8572,-0.8572,-0.8572,-0.8572,-0.8572,-0.8572,-0.8572,-0.8572,-0.8572,-0.8572,-0.8572,-0.8572,-0.8572,-0.8572,-0.8572,-0.8572,-0.8572,-0.8572,-0.8572,-0.8572,-0.8572,-0.8572,-0.8572,-0.8572,-0.8572,-0.8572,-0.8572,-0.8572,-0.8572,-0.8572,-0.8572,-0.8572,-0.8572,-0.8572,-0.8572,-0.8597,-0.8653,-0.8702,-0.8763,-0.8861,-0.8942,-0.8978,-0.8995,-0.8954,-0.8982,-0.9125,-0.9267,-0.9364,-0.9474,-0.9604,-0.9426,-0.8924,-0.8623,-0.8223,-0.7524,-0.6625,-0.5529,-0.4732,-0.4133,-0.3732,-0.3432,-0.323,-0.3226,-0.3228,-0.323,-0.3077,-0.2927,-0.2892,-0.2661,-0.25,-0.245,-0.2441,-0.2439,-0.2337,-0.2244,-0.2244,-0.2064,-1.0222,-1.0636,-1.0636,-1.0636,-1.0636,-1.0636,-1.0641,-1.0641,-1.0681,-0.9915,-0.892,-0.9257,-0.9257,-0.8828,-0.9257,-0.9262,-0.8656,-0.8572,-0.8572,-0.8572,-0.8572,-0.8572,-0.8572,-0.8572,-0.8572,-0.8572,-0.8572,-0.8572,-0.8572,-0.8572,-0.8572,-0.8572,-0.8572,-0.8572,-0.8572,-0.8572,-0.8572,-0.8572,-0.8572,-0.8572,-0.8572,-0.8572,-0.8572,-0.8572,-0.8572,-0.8572,-0.8572,-0.8572,-0.8572,-0.8572,-0.8572,-0.8572,-0.8572,-0.8572,-0.8572,-0.8572,-0.8572,-0.8572,-0.8572,-0.8572,-0.8572,-0.8572,-0.8572,-0.8572,-0.8572,-0.8572,-0.8572,-0.8572,-0.8572,-0.8572,-0.8572,-0.8572,-0.8576,-0.8621,-0.8658,-0.8694,-0.8735,-0.8832,-0.8934,-0.8991,-0.9027,-0.906,-0.908,-0.9173,-0.9299,-0.9421,-0.9535,-0.962,-0.9624,-0.9324,-0.9324,-0.8924,-0.8223,-0.7325,-0.6326,-0.5529,-0.4933,-0.4033,-0.3531,-0.3331,-0.323,-0.323,-0.3229,-0.321,-0.3073,-0.293,-0.2881,-0.2914,-0.2775,-0.2746,-0.2633,-0.262,-0.2608,-0.2604,-0.2424,-1.1327,-1.1574,-1.1569,-1.1569,-1.1569,-1.1488,-1.1488,-1.1488,-1.1322,-1.0722,-0.9951,-1.0207,-1.0033,-0.9257,-0.9689,-0.9515,-0.8828,-0.8572,-0.8572,-0.8572,-0.8656,-0.8572,-0.8572,-0.8572,-0.8572,-0.8572,-0.8572,-0.8572,-0.8572,-0.8572,-0.8572,-0.8572,-0.8572,-0.8572,-0.8572,-0.8572,-0.8572,-0.8572,-0.8572,-0.8572,-0.8572,-0.8572,-0.8572,-0.8572,-0.8572,-0.8572,-0.8572,-0.8572,-0.8572,-0.8572,-0.8572,-0.8572,-0.8572,-0.8572,-0.8572,-0.8572,-0.8572,-0.8572,-0.8572,-0.8572,-0.8572,-0.8572,-0.8572,-0.8572,-0.8572,-0.8572,-0.8572,-0.8572,-0.8572,-0.8572,-0.8572,-0.8572,-0.8572,-0.8597,-0.8625,-0.8658,-0.8731,-0.8824,-0.8946,-0.906,-0.9125,-0.9214,-0.9263,-0.9372,-0.9478,-0.9506,-0.9612,-0.962,-0.9624,-0.9624,-0.9624,-0.9525,-0.8825,-0.8223,-0.7322,-0.6526,-0.5932,-0.4933,-0.3932,-0.3531,-0.3432,-0.3331,-0.3226,-0.3213,-0.3189,-0.3149,-0.3094,-0.3046,-0.2992,-0.286,-0.2928,-0.2907,-0.2894,-0.288,-0.2698,-1.2248,-1.2334,-1.2328,-1.2328,-1.2328,-1.2157,-1.2163,-1.2077,-1.1918,-1.1832,-1.1752,-1.1837,-1.1149,-1.0371,-1.0202,-0.9602,-0.9345,-0.9432,-0.9174,-0.8915,-0.8911,-0.874,-0.8656,-0.8572,-0.8572,-0.8572,-0.8572,-0.8572,-0.8572,-0.8572,-0.8572,-0.8572,-0.8572,-0.8572,-0.8572,-0.8572,-0.8572,-0.8572,-0.8572,-0.8572,-0.8572,-0.8572,-0.8572,-0.8572,-0.8572,-0.8572,-0.8572,-0.8572,-0.8572,-0.8572,-0.8572,-0.8572,-0.8572,-0.8572,-0.8572,-0.8572,-0.8572,-0.8572,-0.8572,-0.8572,-0.8572,-0.8572,-0.8572,-0.8572,-0.8572,-0.8572,-0.8572,-0.8572,-0.8572,-0.8572,-0.8572,-0.8609,-0.8609,-0.8617,-0.8645,-0.869,-0.8779,-0.8844,-0.8954,-0.9096,-0.9222,-0.9324,-0.9437,-0.9547,-0.9592,-0.9616,-0.9624,-0.9624,-0.9624,-0.9624,-0.9624,-0.9624,-0.9324,-0.8722,-0.8021,-0.7524,-0.6828,-0.5732,-0.4632,-0.4133,-0.3632,-0.3331,-0.3229,-0.3224,-0.3196,-0.3172,-0.3143,-0.3104,-0.3046,-0.2995,-0.3068,-0.3052,-0.2918,-0.2905,-0.2888,-1.3529,-1.4139,-1.4216,-1.4132,-1.4132,-1.4139,-1.4139,-1.4139,-1.4048,-1.4055,-1.3886,-1.3802,-1.3027,-1.1068,-1.1929,-1.1585,-1.0544,-1.0549,-1.0115,-0.9772,-0.9689,-0.9257,-0.8828,-0.8656,-0.866,-0.8656,-0.8656,-0.8656,-0.874,-0.8744,-0.8572,-0.8572,-0.8572,-0.8572,-0.8572,-0.8572,-0.8572,-0.8572,-0.8572,-0.8572,-0.8572,-0.8572,-0.8572,-0.8572,-0.8572,-0.8572,-0.8572,-0.8572,-0.8572,-0.8572,-0.8572,-0.8572,-0.8572,-0.8572,-0.8572,-0.8572,-0.8572,-0.8572,-0.8572,-0.8572,-0.8572,-0.8572,-0.8572,-0.8572,-0.8572,-0.8572,-0.8572,-0.8572,-0.8572,-0.8572,-0.8593,-0.8706,-0.8743,-0.8763,-0.8783,-0.8873,-0.8962,-0.893,-0.8942,-0.912,-0.9291,-0.9401,-0.951,-0.9583,-0.9608,-0.9624,-0.9624,-0.9624,-0.9624,-0.9624,-0.9624,-0.9624,-0.9624,-0.8924,-0.8223,-0.8223,-0.7528,-0.6429,-0.5331,-0.4332,-0.3632,-0.3331,-0.3229,-0.3226,-0.3226,-0.3213,-0.3183,-0.3153,-0.3124,-0.3078,-0.3048,-0.3112,-0.2966,-0.2926,-0.2909]},{"header":{"parameterUnit":"m.s-1","parameterCategory":1,"la1":31.0,"la2":29.5877,"lo1":-88.7671,"lo2":-86.6584,"dy":0.0162,"dx":0.0185,"nx":115,"ny":88,"refTime":"2024-07-02T06:00:00:Z","depth":0,"parameterNumber":3,"parameterNumberName":"V-component_of_WINDS"},"data":[0.0,0.0,0.0,0.0,0.0,0.0,0.0,0.0,0.0,0.0,0.0,0.0,0.0,0.0,0.0,0.0,0.0,0.0,0.0,0.0,0.0,0.0,0.0,0.0,0.0,0.0,0.0,0.0,0.0,0.0,0.0,0.0,0.0,0.0,0.0,0.0,0.0,0.0,0.0,0.0,0.0,0.0,0.0,0.0,0.0,0.0,0.0,0.0,0.0,0.0,0.0,0.0,0.0,0.0,0.0,0.0,0.0,0.0,0.0,0.0,0.0,0.0,0.0,0.0,0.0,0.0,0.0,0.0,0.0,0.0,0.0,0.0,0.0,0.0,0.0,0.0,0.0,0.0,0.0,0.0,0.0,0.0,0.0,0.0,0.0,0.0,0.0,0.0,0.0,0.0,0.0,0.0,0.0,0.0,0.0,0.0,0.0,0.0,0.0,0.0,0.0,0.0,0.0,0.0,0.0,0.0,0.0,0.0,0.0,0.0,0.0,0.0,0.0,0.0,0.0,0.0,0.0,0.0,0.0,0.0,0.0,0.0,0.0,0.0,0.0,0.0,0.0,0.0,0.0,0.0,0.0,0.0,0.0,0.0,0.0,0.0,0.0,0.0,0.0,0.0,0.0,0.0,0.0,0.0,0.0,0.0,0.0,0.0,0.0,0.0,0.0,0.0,0.0,0.0,0.0,0.0,0.0,0.0,0.0,0.0,0.0,0.0,0.0,0.0,0.0,0.0,0.0,0.0,0.0,0.0,0.0,0.0,0.0,0.0,0.0,0.0,0.0,0.0,0.0,0.0,0.0,0.0,0.0,0.0,0.0,0.0,0.0,0.0,0.0,0.0,0.0,0.0,0.0,0.0,0.0,0.0,0.0,0.0,0.0,0.0,0.0,0.0,0.0,0.0,0.0,0.0,0.0,0.0,0.0,0.0,0.0,0.0,0.0,0.0,0.0,0.0,0.0,0.0,0.0,0.0,0.0,0.0,0.0,0.0,0.0,0.0,0.0,0.0,0.0,0.0,0.0,0.0,0.0,0.0,0.0,0.0,0.0,0.0,0.0,0.0,0.0,0.0,0.0,0.0,0.0,0.0,0.0,0.0,0.0,0.0,0.0,0.0,0.0,0.0,0.0,0.0,0.0,0.0,0.0,0.0,0.0,0.0,0.0,0.0,0.0,0.0,0.0,0.0,0.0,0.0,0.0,0.0,0.0,0.0,0.0,0.0,0.0,0.0,0.0,0.0,0.0,0.0,0.0,0.0,0.0,0.0,0.0,0.0,0.0,0.0,0.0,0.0,0.0,0.0,0.0,0.0,0.0,0.0,0.0,0.0,0.0,0.0,0.0,0.0,0.0,0.0,0.0,0.0,0.0,0.0,0.0,0.0,0.0,0.0,0.0,0.0,0.0,0.0,0.0,0.0,0.0,0.0,0.0,0.0,0.0,0.0,0.0,0.0,0.0,0.0,0.0,0.0,0.0,0.0,0.0,0.0,0.0,0.0,0.0,0.0,0.0,0.0,0.0,0.0,0.0,0.0,0.0,0.0,0.0,0.0,0.0,0.0,0.0,0.0,0.0,0.0,0.0,0.0,0.0,0.0,0.0,0.0,0.0,0.0,0.0,0.0,0.0,0.0,0.0,0.0,0.0,0.0,0.0,0.0,0.0,0.0,0.0,0.0,0.0,0.0,0.0,0.0,0.0,0.0,0.0,0.0,0.0,0.0,0.0,0.0,0.0,0.0,0.0,0.0,0.0,0.0,0.0,0.0,0.0,0.0,0.0,0.0,0.0,0.0,0.0,0.0,0.0,0.0,0.0,0.0,0.0,0.0,0.0,0.0,0.0,0.0,0.0,0.0,0.0,0.0,0.0,0.0,0.0,0.0,0.0,0.0,0.0,0.0,0.0,0.0,0.0,0.0,0.0,0.0,0.0,0.0,0.0,0.0,0.0,0.0,0.0,0.0,0.0,0.0,0.0,0.0,0.0,0.0,0.0,0.0,0.0,0.0,0.0,0.0,0.0,0.0,0.0,0.0,0.0,0.0,0.0,0.0,0.0,0.0,0.0,0.0,0.0,0.0,0.0,0.0,0.0,0.0,0.0,0.0,0.0,0.0,0.0,0.0,0.0,0.0,0.0,0.0,0.0,0.0,0.0,0.0,0.0,0.0,0.0,0.0,0.0,0.0,0.0,0.0,0.0,0.0,0.0,0.0,0.0,0.0,0.0,0.0,0.0,0.0,0.0,0.0,0.0,0.0,0.0,0.0,0.0,0.0,0.0,0.0,0.0,0.0,0.0,0.0,0.0,0.0,0.0,0.0,0.0,0.0,0.0,0.0,0.0,0.0,0.0,0.0,0.0,0.0,0.0,0.0,0.0,0.0,0.0,0.0,0.0,0.0,0.0,0.0,0.0,0.0,0.0,0.0,0.0,0.0,0.0,0.0,0.0,0.0,0.0,0.0,0.0,0.0,0.0,0.0,0.0,0.0,0.0,0.0,0.0,0.0,0.0,0.0,0.0,0.0,0.0,0.0,0.0,0.0,0.0,0.0,0.0,0.0,0.0,0.0,0.0,0.0,0.0,0.0,0.0,0.0,0.0,0.0,0.0,0.0,0.0,0.0,0.0,0.0,0.0,0.0,0.0,0.0,0.0,0.0,0.0,0.0,0.0,0.0,0.0,0.0,0.0,0.0,0.0,0.0,0.0,0.0,0.0,0.0,0.0,0.0,0.0,0.0,0.0,0.0,0.0,0.0,0.0,0.0,0.0,0.0,0.0,0.0,0.0,0.0,0.0,0.0,0.0,0.0,0.0,0.0,0.0,0.0,0.0,0.0,0.0,0.0,0.0,0.0,0.0,0.0,0.0,0.0,0.0,0.0,0.0,0.0,0.0,0.0,0.0,0.0,0.0,0.0,0.0,0.0,0.0,0.0,0.0,0.0,0.0,0.0,0.0,0.0,0.0,0.0,0.0,0.0,0.0,0.0,0.0,0.0,0.0,0.0,0.0,0.0,0.0,0.0,0.0,0.0,0.0,0.0,0.0,0.0,0.0,0.0,0.0,0.0,0.0,0.0,0.0,0.0,0.0,0.0,0.0,0.0,0.0,0.0,0.0,0.0,0.0,0.0,0.0,0.0,0.0,0.0,0.0,0.0,0.0,0.0,0.0,0.0,0.0,0.0,0.0,0.0,0.0,0.0,0.0,0.0,0.0,0.0,0.0,0.0,0.0,0.0,0.0,0.0,0.0,0.0,0.0,0.0,0.0,0.0,0.0,0.0,0.0,0.0,0.0,0.0,0.0,0.0,0.0,0.0,0.0,0.0,0.0,0.0,0.0,0.0,0.0,0.0,0.0,0.0,0.0,0.0,0.0,0.0,0.0,0.0,0.0,0.0,0.0,0.0,0.0,0.0,0.0,0.0,0.0,0.0,0.0,0.0,0.0,0.0,0.0,0.0,0.0,0.0,0.0,0.0,0.0,0.0,0.0,0.0,0.0,0.0,0.0,0.0,0.0,0.0,0.0,0.0,0.0,0.0,0.0,0.0,0.0,0.0,0.0,0.0,0.0,0.0,0.0,0.0,0.0,0.0,0.0,0.0,0.0,0.0,0.0,0.0,0.0,0.0,0.0,0.0,0.0,0.0,0.0,0.0,0.0,0.0,0.0,0.0,0.0,0.0,0.0,0.0,0.0,0.0,0.0,0.0,0.0,0.0,0.0,0.0,0.0,0.0,0.0,0.0,0.0,0.0,0.0,0.0,0.0,0.0,0.0,0.0,0.0,0.0,0.0,0.0,0.0,0.0,0.0,0.0,0.0,0.0,0.0,0.0,0.0,0.0,0.0,0.0,0.0,0.0,0.0,0.0,0.0,0.0,0.0,0.0,0.0,0.0,0.0,0.0,0.0,0.0,0.0,0.0,0.0,0.0,0.0,0.0,0.0,0.0,0.0,0.0,0.0,0.0,0.0,0.0,0.0,0.0,0.0,0.0,0.0,0.0,0.0,0.0,0.0,0.0,0.0,0.0,0.0,0.0,0.0,0.0,0.0,0.0,0.0,0.0,0.0,0.0,0.0,0.0,0.0,0.0,0.0,0.0,0.0,0.0,0.0,0.0,0.0,0.0,0.0,0.0,0.0,0.0,0.0,0.0,0.0,0.0,0.0,0.0,0.0,0.0,0.0,0.0,0.0,0.0,0.0,0.0,0.0,0.0,0.0,0.0,0.0,0.0,0.0,0.0,0.0,0.0,0.0,0.0,0.0,0.0,0.0,0.0,0.0,0.0,0.0,0.0,-1.0092,0.0,0.0,0.0,0.0,0.0,0.0,0.0,0.0,0.0,0.0,0.0,0.0,0.0,0.0,0.0,0.0,0.0,0.0,0.0,0.0,0.0,0.0,0.0,0.0,0.0,0.0,0.0,0.0,0.0,0.0,0.0,0.0,0.0,0.0,0.0,0.0,0.0,0.0,0.0,0.0,0.0,0.0,0.0,0.0,0.0,0.0,0.0,0.0,0.0,0.0,0.0,0.0,0.0,0.0,0.0,0.0,0.0,0.0,0.0,0.0,0.0,0.0,0.0,0.0,0.0,0.0,0.0,0.0,0.0,0.0,0.0,0.0,0.0,0.0,0.0,0.0,0.0,0.0,0.0,0.0,0.0,0.0,0.0,0.0,0.0,0.0,0.0,0.0,0.0,0.0,0.0,0.0,0.0,0.0,0.0,0.0,0.0,0.0,0.0,0.0,0.0,0.0,0.0,0.0,0.0,0.0,0.0,0.0,0.0,0.0,-1.0192,-1.0167,-1.0125,-1.0112,-1.0119,0.0,0.0,0.0,0.0,0.0,0.0,0.0,0.0,0.0,0.0,0.0,0.0,0.0,0.0,0.0,0.0,0.0,0.0,0.0,0.0,0.0,0.0,0.0,0.0,0.0,0.0,0.0,0.0,0.0,0.0,0.0,0.0,0.0,0.0,0.0,0.0,0.0,0.0,0.0,0.0,0.0,0.0,0.0,0.0,0.0,0.0,0.0,0.0,0.0,0.0,0.0,0.0,0.0,0.0,0.0,0.0,0.0,0.0,0.0,0.0,0.0,0.0,0.0,0.0,0.0,0.0,0.0,0.0,0.0,0.0,0.0,0.0,0.0,0.0,0.0,0.0,0.0,0.0,0.0,0.0,0.0,0.0,0.0,0.0,0.0,0.0,0.0,0.0,0.0,0.0,0.0,0.0,0.0,0.0,0.0,0.0,0.0,0.0,0.0,0.0,0.0,0.0,0.0,0.0,0.0,0.0,0.0,0.0,0.0,0.0,0.0,0.0,-1.014,-1.0125,-1.014,0.0,0.0,0.0,0.0,0.0,0.0,0.0,0.0,0.0,0.0,0.0,0.0,0.0,0.0,0.0,0.0,0.0,0.0,0.0,0.0,0.0,0.0,0.0,0.0,0.0,0.0,0.0,0.0,0.0,0.0,0.0,0.0,0.0,0.0,0.0,0.0,0.0,0.0,0.0,0.0,0.0,0.0,0.0,0.0,0.0,0.0,0.0,0.0,0.0,0.0,0.0,0.0,0.0,0.0,0.0,0.0,0.0,0.0,0.0,0.0,0.0,0.0,0.0,0.0,0.0,0.0,0.0,0.0,0.0,0.0,0.0,0.0,0.0,0.0,0.0,0.0,0.0,0.0,0.0,0.0,0.0,0.0,0.0,0.0,0.0,0.0,0.0,0.0,0.0,0.0,0.0,0.0,0.0,0.0,0.0,0.0,0.0,0.0,0.0,0.0,0.0,0.0,0.0,0.0,0.0,0.0,0.0,0.0,0.0,0.0,-1.0188,-1.0186,-1.0196,0.0,-1.0241,0.0,0.0,0.0,0.0,0.0,0.0,0.0,0.0,0.0,0.0,0.0,0.0,0.0,0.0,0.0,0.0,0.0,0.0,0.0,0.0,0.0,0.0,0.0,0.0,0.0,0.0,0.0,0.0,0.0,0.0,0.0,0.0,0.0,0.0,0.0,0.0,0.0,0.0,0.0,0.0,0.0,0.0,0.0,0.0,0.0,0.0,0.0,0.0,0.0,0.0,0.0,0.0,0.0,0.0,0.0,0.0,0.0,0.0,0.0,0.0,0.0,0.0,0.0,0.0,0.0,0.0,0.0,0.0,0.0,0.0,0.0,0.0,0.0,0.0,0.0,0.0,0.0,0.0,0.0,0.0,0.0,0.0,0.0,0.0,0.0,0.0,0.0,0.0,0.0,0.0,0.0,0.0,0.0,0.0,0.0,0.0,0.0,0.0,0.0,0.0,0.0,0.0,0.0,0.0,0.0,0.0,0.0,0.0,0.0,0.0,0.0,-1.0972,-1.0989,-1.0975,0.0,0.0,0.0,0.0,0.0,0.0,0.0,0.0,0.0,0.0,0.0,0.0,0.0,0.0,0.0,0.0,0.0,0.0,0.0,0.0,0.0,0.0,0.0,0.0,0.0,0.0,0.0,0.0,0.0,0.0,0.0,0.0,0.0,0.0,0.0,0.0,0.0,0.0,0.0,0.0,0.0,0.0,0.0,0.0,0.0,0.0,0.0,0.0,0.0,0.0,0.0,0.0,0.0,0.0,0.0,0.0,0.0,0.0,0.0,0.0,0.0,0.0,0.0,0.0,0.0,0.0,0.0,0.0,0.0,0.0,0.0,0.0,0.0,0.0,0.0,0.0,0.0,0.0,0.0,0.0,0.0,0.0,0.0,0.0,0.0,0.0,0.0,0.0,0.0,0.0,0.0,0.0,0.0,0.0,0.0,0.0,0.0,0.0,0.0,0.0,0.0,0.0,0.0,0.0,0.0,0.0,0.0,0.0,0.0,0.0,-1.1421,0.0,-1.1854,-1.1618,-1.1496,-1.1497,0.0,0.0,0.0,0.0,0.0,0.0,0.0,0.0,0.0,0.0,0.0,0.0,0.0,0.0,0.0,0.0,0.0,0.0,0.0,0.0,0.0,0.0,0.0,0.0,0.0,0.0,0.0,0.0,0.0,0.0,0.0,0.0,0.0,0.0,0.0,0.0,0.0,0.0,0.0,0.0,0.0,0.0,0.0,0.0,0.0,0.0,0.0,0.0,0.0,0.0,0.0,0.0,0.0,0.0,0.0,0.0,0.0,0.0,0.0,0.0,0.0,0.0,0.0,0.0,0.0,0.0,0.0,0.0,0.0,0.0,0.0,0.0,0.0,0.0,0.0,0.0,0.0,0.0,0.0,0.0,0.0,0.0,0.0,0.0,0.0,0.0,0.0,0.0,0.0,0.0,0.0,0.0,0.0,0.0,0.0,0.0,0.0,0.0,0.0,0.0,0.0,0.0,0.0,0.0,0.0,0.0,0.0,0.0,0.0,-1.2297,-1.2759,-1.2765,-1.1965,-1.1509,0.0,0.0,0.0,0.0,0.0,0.0,0.0,0.0,0.0,0.0,0.0,0.0,0.0,0.0,0.0,0.0,0.0,0.0,0.0,0.0,0.0,0.0,0.0,0.0,0.0,0.0,0.0,0.0,0.0,0.0,0.0,0.0,0.0,0.0,0.0,0.0,0.0,0.0,0.0,0.0,0.0,0.0,0.0,0.0,0.0,0.0,0.0,0.0,0.0,0.0,0.0,0.0,0.0,0.0,0.0,0.0,0.0,0.0,0.0,0.0,0.0,0.0,0.0,0.0,0.0,0.0,0.0,0.0,0.0,0.0,0.0,0.0,0.0,0.0,0.0,0.0,0.0,0.0,0.0,0.0,0.0,0.0,0.0,0.0,0.0,0.0,0.0,0.0,0.0,0.0,0.0,0.0,0.0,0.0,0.0,0.0,0.0,0.0,0.0,0.0,0.0,0.0,0.0,0.0,0.0,0.0,0.0,0.0,0.0,-1.1557,-1.2883,-1.389,-1.4409,-1.3614,-1.2919,0.0,0.0,0.0,0.0,0.0,0.0,0.0,0.0,0.0,0.0,0.0,0.0,0.0,0.0,0.0,0.0,0.0,0.0,0.0,0.0,0.0,0.0,0.0,0.0,0.0,0.0,0.0,0.0,0.0,0.0,0.0,0.0,0.0,0.0,0.0,0.0,0.0,0.0,0.0,0.0,0.0,0.0,0.0,0.0,0.0,0.0,0.0,0.0,0.0,0.0,0.0,0.0,0.0,0.0,0.0,0.0,0.0,0.0,0.0,0.0,0.0,0.0,0.0,0.0,0.0,0.0,0.0,0.0,0.0,0.0,0.0,0.0,0.0,0.0,0.0,0.0,0.0,0.0,0.0,0.0,0.0,0.0,0.0,0.0,0.0,0.0,0.0,0.0,0.0,0.0,0.0,0.0,0.0,0.0,0.0,0.0,0.0,0.0,0.0,0.0,0.0,0.0,0.0,0.0,0.0,0.0,0.0,0.0,0.0,-1.2779,0.0,-1.48,0.0,-1.4545,-1.3829,0.0,0.0,0.0,0.0,0.0,0.0,0.0,0.0,0.0,0.0,0.0,0.0,0.0,0.0,0.0,0.0,0.0,0.0,0.0,0.0,0.0,0.0,0.0,0.0,0.0,0.0,0.0,0.0,0.0,0.0,0.0,0.0,0.0,0.0,0.0,0.0,0.0,0.0,0.0,0.0,0.0,0.0,0.0,0.0,0.0,0.0,0.0,0.0,0.0,0.0,0.0,0.0,0.0,0.0,0.0,0.0,0.0,0.0,0.0,0.0,0.0,0.0,0.0,0.0,0.0,0.0,0.0,0.0,0.0,0.0,0.0,0.0,0.0,0.0,0.0,0.0,0.0,0.0,0.0,0.0,0.0,0.0,0.0,0.0,0.0,0.0,0.0,0.0,0.0,0.0,0.0,0.0,0.0,0.0,0.0,0.0,0.0,0.0,0.0,0.0,0.0,0.0,0.0,0.0,0.0,0.0,0.0,0.0,-1.3687,-1.5311,-1.5405,-1.55,-1.5422,-1.4641,-1.4153,0.0,0.0,0.0,0.0,0.0,0.0,0.0,0.0,0.0,0.0,0.0,0.0,0.0,0.0,0.0,0.0,0.0,0.0,0.0,0.0,0.0,0.0,0.0,0.0,0.0,0.0,0.0,0.0,0.0,0.0,0.0,0.0,0.0,0.0,0.0,0.0,0.0,0.0,0.0,0.0,0.0,0.0,0.0,0.0,0.0,0.0,0.0,0.0,0.0,0.0,0.0,0.0,0.0,0.0,0.0,0.0,0.0,0.0,0.0,0.0,0.0,0.0,0.0,0.0,0.0,0.0,0.0,0.0,0.0,0.0,0.0,0.0,0.0,0.0,0.0,0.0,0.0,0.0,0.0,0.0,0.0,0.0,0.0,0.0,0.0,0.0,0.0,0.0,0.0,0.0,0.0,0.0,0.0,0.0,0.0,0.0,0.0,0.0,0.0,0.0,0.0,0.0,0.0,0.0,0.0,0.0,0.0,0.0,0.0,-1.627,-1.6875,-1.7207,-1.7168,-1.6348,-1.5626,0.0,0.0,0.0,0.0,0.0,0.0,0.0,0.0,0.0,0.0,0.0,0.0,0.0,0.0,0.0,0.0,0.0,0.0,0.0,0.0,0.0,0.0,0.0,0.0,0.0,0.0,0.0,0.0,0.0,0.0,0.0,0.0,0.0,0.0,0.0,0.0,0.0,0.0,0.0,0.0,0.0,0.0,0.0,0.0,0.0,0.0,0.0,0.0,0.0,0.0,0.0,0.0,0.0,0.0,0.0,0.0,0.0,0.0,0.0,0.0,0.0,0.0,0.0,0.0,0.0,0.0,0.0,0.0,0.0,0.0,0.0,0.0,0.0,0.0,0.0,0.0,0.0,0.0,0.0,0.0,0.0,0.0,0.0,0.0,0.0,0.0,0.0,0.0,0.0,0.0,0.0,0.0,0.0,0.0,0.0,0.0,0.0,0.0,0.0,0.0,0.0,0.0,0.0,0.0,0.0,0.0,0.0,0.0,0.0,-1.8143,-1.8356,-1.8491,-1.8491,-1.7963,-1.7122,-1.5909,0.0,0.0,0.0,0.0,0.0,0.0,0.0,0.0,0.0,0.0,0.0,0.0,0.0,0.0,0.0,0.0,0.0,0.0,0.0,0.0,0.0,0.0,0.0,0.0,0.0,0.0,0.0,0.0,0.0,0.0,0.0,0.0,0.0,0.0,0.0,0.0,0.0,0.0,0.0,0.0,0.0,0.0,0.0,0.0,0.0,0.0,0.0,0.0,0.0,0.0,0.0,0.0,0.0,0.0,0.0,0.0,0.0,0.0,0.0,0.0,0.0,0.0,0.0,0.0,0.0,0.0,0.0,0.0,0.0,0.0,0.0,0.0,0.0,0.0,0.0,0.0,0.0,0.0,0.0,0.0,0.0,0.0,0.0,0.0,0.0,0.0,0.0,0.0,0.0,0.0,0.0,0.0,0.0,0.0,0.0,0.0,0.0,0.0,0.0,0.0,0.0,0.0,0.0,0.0,0.0,0.0,0.0,0.0,-2.0726,-1.9977,-1.9589,-1.955,-1.9414,-1.8574,0.0,0.0,0.0,0.0,0.0,0.0,0.0,0.0,0.0,0.0,0.0,0.0,0.0,0.0,0.0,0.0,0.0,0.0,0.0,0.0,0.0,0.0,0.0,0.0,0.0,0.0,0.0,0.0,0.0,0.0,0.0,0.0,0.0,0.0,0.0,0.0,0.0,0.0,0.0,0.0,0.0,0.0,0.0,0.0,0.0,0.0,0.0,0.0,0.0,0.0,0.0,0.0,0.0,0.0,0.0,0.0,0.0,0.0,0.0,0.0,0.0,0.0,0.0,0.0,0.0,0.0,0.0,0.0,0.0,0.0,0.0,0.0,0.0,0.0,0.0,0.0,0.0,0.0,0.0,0.0,0.0,0.0,0.0,0.0,0.0,0.0,0.0,0.0,0.0,0.0,0.0,0.0,0.0,0.0,0.0,0.0,0.0,0.0,0.0,0.0,0.0,0.0,0.0,0.0,0.0,0.0,0.0,0.0,0.0,-2.2389,-2.2839,-2.2763,-2.2119,-2.0914,-1.9744,0.0,0.0,0.0,0.0,0.0,0.0,0.0,0.0,0.0,0.0,0.0,0.0,0.0,0.0,0.0,0.0,0.0,0.0,0.0,0.0,0.0,0.0,0.0,0.0,0.0,0.0,0.0,0.0,0.0,0.0,0.0,0.0,0.0,0.0,0.0,0.0,0.0,0.0,0.0,0.0,0.0,0.0,0.0,0.0,0.0,0.0,0.0,0.0,0.0,0.0,0.0,0.0,0.0,0.0,0.0,0.0,0.0,0.0,0.0,0.0,0.0,0.0,0.0,0.0,0.0,0.0,0.0,0.0,0.0,0.0,0.0,0.0,0.0,0.0,0.0,0.0,0.0,0.0,0.0,0.0,0.0,0.0,0.0,0.0,0.0,0.0,0.0,0.0,0.0,0.0,0.0,0.0,0.0,0.0,0.0,0.0,0.0,0.0,0.0,0.0,0.0,0.0,0.0,0.0,0.0,0.0,0.0,0.0,-2.1762,-2.3072,-2.4321,-2.4692,-2.4202,-2.2528,-2.0911,0.0,0.0,0.0,0.0,0.0,0.0,0.0,0.0,0.0,0.0,0.0,0.0,0.0,0.0,0.0,0.0,0.0,0.0,0.0,0.0,0.0,0.0,0.0,0.0,0.0,0.0,0.0,0.0,0.0,0.0,0.0,0.0,0.0,0.0,0.0,0.0,0.0,0.0,0.0,0.0,0.0,0.0,0.0,0.0,0.0,0.0,0.0,0.0,0.0,0.0,0.0,0.0,0.0,0.0,0.0,0.0,0.0,0.0,0.0,0.0,0.0,0.0,0.0,0.0,0.0,0.0,0.0,0.0,0.0,0.0,0.0,0.0,0.0,0.0,0.0,0.0,0.0,0.0,0.0,0.0,0.0,0.0,0.0,0.0,0.0,0.0,0.0,0.0,0.0,0.0,0.0,0.0,0.0,0.0,0.0,0.0,0.0,0.0,0.0,0.0,0.0,0.0,0.0,0.0,0.0,0.0,0.0,0.0,-2.2369,-2.3247,-2.4848,-2.5687,-2.5648,-2.4009,-2.1998,0.0,0.0,0.0,0.0,0.0,0.0,0.0,0.0,0.0,0.0,0.0,0.0,0.0,0.0,0.0,0.0,0.0,0.0,0.0,0.0,0.0,0.0,0.0,0.0,0.0,0.0,0.0,0.0,0.0,0.0,0.0,0.0,0.0,0.0,0.0,0.0,0.0,0.0,0.0,0.0,0.0,0.0,0.0,0.0,0.0,0.0,0.0,0.0,0.0,0.0,0.0,0.0,0.0,0.0,0.0,0.0,0.0,0.0,0.0,0.0,0.0,0.0,0.0,0.0,0.0,0.0,0.0,0.0,0.0,0.0,0.0,0.0,0.0,0.0,0.0,0.0,0.0,0.0,0.0,0.0,0.0,0.0,0.0,0.0,0.0,0.0,0.0,0.0,0.0,0.0,0.0,0.0,0.0,0.0,0.0,0.0,0.0,0.0,0.0,0.0,0.0,0.0,0.0,0.0,0.0,0.0,0.0,0.0,-2.3247,-2.4124,-2.5141,-2.5687,-2.5687,-2.4009,-2.2564,0.0,0.0,0.0,0.0,0.0,0.0,0.0,0.0,0.0,0.0,0.0,0.0,0.0,0.0,0.0,0.0,0.0,0.0,0.0,0.0,0.0,0.0,0.0,0.0,0.0,0.0,0.0,0.0,0.0,0.0,0.0,0.0,0.0,0.0,0.0,0.0,0.0,0.0,0.0,0.0,0.0,0.0,0.0,0.0,0.0,0.0,0.0,0.0,-1.279,0.0,0.0,0.0,0.0,0.0,0.0,0.0,0.0,0.0,0.0,0.0,0.0,0.0,0.0,0.0,0.0,0.0,0.0,0.0,0.0,0.0,0.0,0.0,0.0,0.0,0.0,0.0,0.0,0.0,0.0,0.0,0.0,0.0,0.0,0.0,0.0,0.0,0.0,0.0,0.0,0.0,0.0,0.0,0.0,0.0,0.0,0.0,0.0,0.0,0.0,0.0,0.0,0.0,0.0,0.0,0.0,0.0,0.0,0.0,-2.3521,-2.4397,-2.5258,-2.5687,-2.5648,-2.4399,-2.313,0.0,0.0,0.0,0.0,0.0,0.0,0.0,0.0,0.0,0.0,0.0,0.0,0.0,0.0,0.0,0.0,0.0,0.0,0.0,0.0,0.0,0.0,0.0,0.0,0.0,0.0,0.0,0.0,0.0,0.0,0.0,0.0,0.0,0.0,0.0,0.0,0.0,0.0,0.0,0.0,0.0,0.0,0.0,0.0,0.0,0.0,0.0,0.0,0.0,0.0,0.0,0.0,0.0,0.0,0.0,0.0,0.0,0.0,0.0,0.0,0.0,0.0,0.0,0.0,0.0,0.0,0.0,0.0,0.0,0.0,0.0,0.0,0.0,0.0,0.0,0.0,0.0,0.0,0.0,0.0,0.0,0.0,0.0,0.0,0.0,0.0,0.0,0.0,0.0,0.0,0.0,0.0,0.0,0.0,0.0,0.0,0.0,0.0,0.0,0.0,0.0,0.0,0.0,0.0,0.0,0.0,0.0,-2.2311,-2.3599,-2.4575,-2.5317,-2.5687,-2.5687,-2.4848,-2.3636,-2.2057,0.0,0.0,0.0,0.0,0.0,0.0,0.0,0.0,0.0,0.0,0.0,0.0,0.0,0.0,0.0,0.0,0.0,0.0,0.0,0.0,0.0,0.0,0.0,0.0,0.0,0.0,0.0,0.0,0.0,0.0,0.0,0.0,0.0,0.0,0.0,0.0,0.0,0.0,-1.0657,-1.1435,0.0,0.0,0.0,0.0,0.0,0.0,0.0,0.0,-1.5605,0.0,0.0,0.0,0.0,0.0,0.0,0.0,0.0,0.0,0.0,0.0,0.0,0.0,0.0,0.0,0.0,0.0,0.0,0.0,0.0,0.0,0.0,0.0,0.0,0.0,0.0,0.0,0.0,0.0,0.0,0.0,0.0,0.0,0.0,0.0,0.0,0.0,0.0,0.0,0.0,0.0,0.0,0.0,0.0,0.0,0.0,0.0,0.0,0.0,0.0,0.0,0.0,0.0,0.0,0.0,0.0,-2.1665,-2.2623,-2.3872,-2.5434,-2.5629,-2.5687,-2.5668,-2.4848,-2.3929,-2.2877,0.0,0.0,0.0,0.0,0.0,0.0,0.0,0.0,0.0,0.0,0.0,0.0,0.0,0.0,0.0,0.0,0.0,0.0,0.0,0.0,0.0,0.0,0.0,0.0,0.0,0.0,0.0,0.0,0.0,0.0,0.0,0.0,0.0,0.0,0.0,0.0,0.0,0.0,0.0,-1.317,-1.4277,0.0,0.0,0.0,0.0,0.0,0.0,0.0,0.0,-1.6389,0.0,0.0,0.0,0.0,0.0,0.0,0.0,0.0,0.0,0.0,0.0,0.0,0.0,0.0,0.0,0.0,0.0,0.0,0.0,0.0,0.0,0.0,0.0,0.0,0.0,0.0,0.0,0.0,0.0,0.0,0.0,0.0,0.0,0.0,0.0,0.0,0.0,0.0,0.0,0.0,0.0,0.0,0.0,0.0,0.0,0.0,0.0,0.0,0.0,0.0,0.0,0.0,0.0,0.0,0.0,-2.2408,-2.3345,-2.4399,-2.5648,-2.5687,-2.5687,-2.5687,-2.4868,-2.4009,0.0,0.0,0.0,0.0,0.0,0.0,0.0,0.0,0.0,0.0,0.0,0.0,0.0,0.0,0.0,0.0,0.0,0.0,0.0,0.0,0.0,0.0,0.0,0.0,0.0,0.0,0.0,0.0,0.0,0.0,0.0,0.0,0.0,0.0,0.0,0.0,0.0,0.0,0.0,0.0,-1.4526,-1.5416,-1.7138,0.0,0.0,0.0,0.0,0.0,0.0,-1.7372,-1.737,0.0,0.0,0.0,0.0,0.0,0.0,0.0,0.0,0.0,0.0,0.0,0.0,0.0,0.0,0.0,0.0,0.0,0.0,0.0,0.0,0.0,0.0,0.0,0.0,0.0,0.0,0.0,0.0,0.0,0.0,0.0,0.0,0.0,0.0,0.0,0.0,0.0,0.0,0.0,0.0,0.0,0.0,0.0,0.0,0.0,0.0,0.0,0.0,0.0,0.0,0.0,0.0,0.0,0.0,0.0,-2.3013,-2.397,-2.4829,-2.5648,-2.5687,-2.5687,-2.5668,-2.4692,-2.3814,0.0,0.0,0.0,0.0,0.0,0.0,0.0,0.0,0.0,0.0,0.0,0.0,0.0,0.0,0.0,0.0,0.0,0.0,0.0,0.0,0.0,0.0,0.0,0.0,0.0,0.0,0.0,0.0,0.0,0.0,0.0,0.0,0.0,0.0,0.0,0.0,0.0,0.0,0.0,0.0,0.0,-1.6748,-1.8278,-1.8668,0.0,0.0,0.0,0.0,-1.8526,-1.8643,0.0,0.0,0.0,0.0,0.0,0.0,0.0,0.0,0.0,0.0,0.0,0.0,0.0,0.0,0.0,0.0,0.0,0.0,0.0,0.0,0.0,0.0,0.0,0.0,0.0,0.0,0.0,0.0,0.0,0.0,0.0,0.0,0.0,0.0,0.0,0.0,0.0,0.0,0.0,0.0,0.0,0.0,0.0,0.0,0.0,0.0,0.0,0.0,0.0,0.0,0.0,0.0,0.0,0.0,0.0,0.0,-2.3013,-2.395,-2.4829,-2.5648,-2.5687,-2.5687,-2.5668,-2.4106,-2.3208,0.0,0.0,0.0,0.0,0.0,0.0,0.0,0.0,0.0,0.0,0.0,0.0,0.0,0.0,0.0,0.0,0.0,0.0,0.0,0.0,0.0,0.0,0.0,0.0,0.0,0.0,0.0,0.0,0.0,0.0,0.0,0.0,0.0,0.0,0.0,0.0,0.0,0.0,0.0,0.0,0.0,-1.9117,-2.0074,-2.0864,-2.137,0.0,0.0,-2.1076,-2.0336,-2.0854,0.0,0.0,0.0,0.0,0.0,0.0,0.0,0.0,0.0,0.0,0.0,0.0,0.0,0.0,0.0,0.0,0.0,0.0,0.0,0.0,0.0,0.0,0.0,0.0,0.0,0.0,0.0,0.0,0.0,0.0,0.0,0.0,0.0,0.0,0.0,0.0,0.0,0.0,0.0,0.0,0.0,0.0,0.0,0.0,0.0,0.0,0.0,0.0,0.0,0.0,0.0,0.0,0.0,0.0,0.0,-2.1058,-2.3072,-2.4438,-2.5336,-2.5668,-2.5687,-2.5687,-2.5687,-2.4009,-2.3111,0.0,0.0,0.0,0.0,0.0,0.0,0.0,0.0,0.0,0.0,0.0,0.0,0.0,0.0,0.0,0.0,0.0,0.0,0.0,0.0,0.0,0.0,0.0,0.0,0.0,0.0,0.0,0.0,0.0,0.0,0.0,0.0,0.0,0.0,0.0,0.0,0.0,0.0,0.0,0.0,0.0,0.0,-2.1126,-2.1979,0.0,0.0,0.0,-2.2395,-2.1978,0.0,0.0,0.0,0.0,0.0,0.0,0.0,0.0,0.0,0.0,0.0,0.0,0.0,0.0,0.0,0.0,0.0,0.0,0.0,0.0,0.0,0.0,0.0,0.0,0.0,0.0,0.0,0.0,0.0,0.0,0.0,0.0,0.0,0.0,0.0,0.0,0.0,0.0,0.0,0.0,0.0,0.0,0.0,0.0,0.0,0.0,0.0,0.0,0.0,0.0,0.0,0.0,0.0,0.0,0.0,0.0,0.0,-2.309,-2.4829,-2.5687,-2.5687,-2.5687,-2.5687,-2.5668,-2.4009,0.0,0.0,0.0,0.0,0.0,0.0,0.0,0.0,0.0,0.0,0.0,0.0,0.0,0.0,0.0,0.0,0.0,0.0,0.0,0.0,0.0,0.0,0.0,0.0,0.0,0.0,0.0,-1.0324,0.0,0.0,0.0,0.0,0.0,0.0,0.0,0.0,0.0,0.0,0.0,0.0,0.0,0.0,-2.1459,-2.2317,-2.3193,-2.3713,0.0,0.0,-2.3631,-2.3373,-2.3018,-2.2528,0.0,0.0,0.0,0.0,0.0,0.0,0.0,0.0,0.0,0.0,0.0,0.0,0.0,0.0,0.0,0.0,0.0,0.0,0.0,0.0,0.0,0.0,0.0,0.0,0.0,0.0,0.0,0.0,0.0,0.0,0.0,0.0,0.0,0.0,0.0,0.0,0.0,0.0,0.0,0.0,0.0,0.0,0.0,0.0,0.0,0.0,0.0,0.0,0.0,0.0,0.0,0.0,0.0,0.0,0.0,-2.3122,-2.4807,-2.5687,-2.5687,-2.5687,-2.5687,-2.5668,-2.4009,-2.3111,0.0,0.0,0.0,0.0,0.0,0.0,0.0,0.0,0.0,0.0,0.0,0.0,0.0,0.0,0.0,0.0,0.0,0.0,0.0,0.0,0.0,0.0,0.0,0.0,0.0,0.0,0.0,0.0,0.0,0.0,0.0,0.0,0.0,0.0,0.0,0.0,0.0,0.0,0.0,0.0,0.0,-2.3184,-2.4105,-2.4919,-2.542,0.0,0.0,-2.5157,-2.4321,-2.4855,-2.4533,-2.2105,0.0,0.0,0.0,0.0,0.0,0.0,0.0,0.0,0.0,0.0,0.0,0.0,0.0,0.0,0.0,0.0,0.0,0.0,0.0,0.0,0.0,0.0,0.0,0.0,0.0,0.0,0.0,0.0,0.0,0.0,0.0,0.0,0.0,0.0,0.0,0.0,0.0,0.0,0.0,0.0,0.0,0.0,0.0,0.0,0.0,0.0,0.0,0.0,0.0,0.0,0.0,0.0,0.0,-2.2223,-2.3103,-2.4827,-2.5687,-2.5687,-2.5687,-2.5687,-2.5687,-2.4536,-2.3638,0.0,0.0,0.0,0.0,0.0,0.0,0.0,0.0,0.0,0.0,0.0,0.0,0.0,0.0,0.0,0.0,0.0,0.0,0.0,0.0,0.0,0.0,0.0,0.0,0.0,0.0,0.0,0.0,-1.1106,-1.1105,-1.1084,0.0,0.0,0.0,0.0,0.0,0.0,0.0,0.0,0.0,0.0,-2.3947,-2.4273,-2.5065,0.0,0.0,-2.5604,-2.5488,-2.5157,-2.4927,-2.4455,-2.3475,-2.312,0.0,0.0,0.0,0.0,0.0,0.0,0.0,0.0,0.0,0.0,0.0,0.0,0.0,0.0,0.0,0.0,0.0,0.0,0.0,0.0,0.0,0.0,0.0,0.0,0.0,0.0,0.0,0.0,0.0,0.0,0.0,0.0,0.0,0.0,0.0,0.0,0.0,0.0,0.0,0.0,0.0,0.0,0.0,0.0,0.0,0.0,0.0,0.0,0.0,0.0,0.0,0.0,-2.2608,-2.3488,-2.4961,-2.5687,-2.5687,-2.5687,-2.5687,-2.5668,-2.4848,-2.4104,0.0,0.0,0.0,0.0,0.0,0.0,0.0,0.0,0.0,0.0,0.0,0.0,0.0,0.0,0.0,0.0,0.0,0.0,0.0,0.0,0.0,0.0,0.0,0.0,0.0,0.0,0.0,0.0,-1.1986,-1.2082,-1.2315,0.0,0.0,0.0,0.0,0.0,0.0,0.0,0.0,0.0,0.0,-2.4389,-2.47,-2.5211,-2.5604,-2.5604,-2.5615,-2.56,-2.5595,-2.5079,-2.4607,-2.434,0.0,0.0,0.0,0.0,0.0,0.0,0.0,0.0,0.0,0.0,0.0,0.0,0.0,0.0,0.0,0.0,0.0,0.0,0.0,0.0,0.0,0.0,0.0,0.0,0.0,0.0,0.0,-1.5176,0.0,0.0,-1.5281,0.0,0.0,0.0,0.0,0.0,0.0,0.0,0.0,0.0,0.0,0.0,0.0,0.0,0.0,0.0,0.0,0.0,0.0,0.0,0.0,0.0,0.0,-2.3483,-2.4361,-2.5252,-2.5687,-2.5687,-2.5687,-2.5687,-2.5668,-2.4848,-2.4397,-2.4358,0.0,0.0,0.0,0.0,0.0,0.0,0.0,0.0,0.0,0.0,0.0,0.0,0.0,0.0,0.0,0.0,0.0,0.0,0.0,0.0,0.0,0.0,0.0,0.0,0.0,0.0,-1.2865,-1.2865,-1.3196,0.0,0.0,0.0,0.0,0.0,0.0,0.0,0.0,0.0,0.0,-2.4294,-2.4643,-2.5528,-2.5617,-2.561,-2.5604,-2.5613,-2.5598,-2.5609,-2.5585,-2.5284,0.0,0.0,0.0,0.0,0.0,0.0,0.0,0.0,0.0,0.0,0.0,0.0,0.0,0.0,0.0,0.0,0.0,0.0,0.0,0.0,0.0,0.0,0.0,0.0,0.0,0.0,0.0,-1.7806,-1.8621,0.0,0.0,0.0,0.0,0.0,0.0,0.0,0.0,0.0,0.0,0.0,-2.3443,-2.4098,0.0,0.0,0.0,0.0,0.0,0.0,0.0,0.0,0.0,0.0,0.0,0.0,-2.3522,-2.44,-2.5252,-2.5687,-2.5687,-2.5687,-2.5687,-2.5687,-2.5414,-2.4985,-2.4397,0.0,0.0,0.0,0.0,0.0,0.0,0.0,0.0,0.0,0.0,0.0,0.0,0.0,0.0,0.0,0.0,0.0,0.0,0.0,0.0,0.0,0.0,0.0,0.0,0.0,-1.3704,0.0,0.0,0.0,0.0,0.0,0.0,0.0,0.0,0.0,0.0,0.0,-2.3434,-2.4305,-2.4881,-2.5347,-2.5654,-2.5688,-2.5648,0.0,0.0,0.0,0.0,0.0,0.0,0.0,0.0,0.0,0.0,0.0,0.0,0.0,0.0,-2.3834,-2.2416,-2.1911,-2.1639,-2.1367,0.0,0.0,0.0,0.0,0.0,0.0,0.0,0.0,0.0,0.0,0.0,0.0,0.0,0.0,-2.074,-2.1305,-2.1632,0.0,0.0,0.0,0.0,0.0,0.0,0.0,0.0,-2.5118,-2.5664,-2.5691,-2.6305,-2.6308,0.0,-2.5444,-2.3975,0.0,0.0,0.0,0.0,0.0,0.0,0.0,0.0,-2.3974,-2.4835,-2.541,-2.5687,-2.5687,-2.5687,-2.5687,-2.5687,-2.5687,-2.5141,-2.3968,-2.2642,-2.1374,0.0,0.0,0.0,0.0,0.0,0.0,0.0,0.0,0.0,0.0,0.0,0.0,0.0,0.0,0.0,0.0,0.0,0.0,0.0,0.0,0.0,0.0,0.0,-1.5017,0.0,0.0,0.0,0.0,0.0,0.0,0.0,0.0,0.0,-2.2343,-2.3555,-2.4629,-2.5232,-2.5522,-2.5689,-2.5697,0.0,0.0,0.0,0.0,0.0,0.0,0.0,-2.7368,-2.7359,-2.7833,-2.8209,-2.817,-2.8133,-2.81,-2.81,0.0,0.0,-2.4203,-2.3406,-2.3018,-2.3018,-2.3231,-2.3464,-2.3464,-2.3698,-2.3892,0.0,0.0,0.0,0.0,0.0,0.0,0.0,0.0,-2.2899,-2.3245,0.0,-2.4092,0.0,0.0,0.0,0.0,-2.3363,-2.4972,0.0,0.0,-2.7553,-2.8304,-2.8268,-2.8391,-2.8374,-2.8296,-2.7471,-2.661,-2.5671,-2.406,0.0,0.0,0.0,0.0,0.0,0.0,-2.4832,-2.5698,-2.5744,-2.5746,-2.5765,-2.5765,-2.5726,-2.5707,-2.5687,-2.4907,-2.3326,-2.395,-2.2875,-1.9656,-2.0183,0.0,0.0,0.0,0.0,0.0,0.0,0.0,0.0,0.0,0.0,0.0,0.0,0.0,0.0,0.0,0.0,0.0,0.0,0.0,0.0,-1.5702,0.0,0.0,0.0,0.0,0.0,0.0,0.0,0.0,0.0,0.0,-2.5585,-2.5039,-2.5097,-2.6814,0.0,0.0,0.0,0.0,-2.7038,-2.7038,-2.7751,-2.8262,-2.826,-2.83,-2.8318,-2.8252,0.0,0.0,-2.8203,-2.8204,-2.8243,-2.8204,-2.8185,-2.7634,-2.6028,-2.4455,-2.3367,-2.3328,-2.4008,-2.4391,-2.4488,-2.5174,-2.5659,-2.7702,0.0,0.0,0.0,0.0,-2.5994,-2.6809,-2.8043,-2.7656,-2.7563,-2.7623,-2.7245,0.0,0.0,0.0,0.0,0.0,0.0,-2.8696,-2.9351,-3.0476,-3.0638,-3.0074,-3.0721,-3.0409,-2.922,-2.8964,-2.8418,-2.7557,-2.7067,-2.5537,-2.3146,0.0,0.0,0.0,0.0,-2.5132,-2.6537,-2.6622,-2.6626,-2.6646,-2.6626,-2.6333,-2.5707,-2.5687,-2.5473,-2.4985,-2.4594,-2.3968,-2.2953,-2.1432,0.0,0.0,0.0,0.0,0.0,0.0,0.0,0.0,0.0,0.0,0.0,0.0,0.0,0.0,0.0,0.0,0.0,0.0,0.0,-1.5891,-1.6397,-1.6961,0.0,0.0,0.0,0.0,0.0,0.0,0.0,0.0,0.0,-2.7329,-2.6806,-2.6672,0.0,0.0,-2.7553,-2.7567,-2.777,-2.7929,-2.7946,-2.8141,0.0,-2.8298,-2.8826,-2.9218,-2.9214,-2.9675,-3.0055,-3.0037,-2.9985,-2.9961,-2.9961,-2.944,-2.8845,-2.8398,-2.7421,-2.6669,-2.6663,-2.6838,-2.7013,-2.7032,-2.7246,-2.7388,-3.2737,-3.0632,-2.8396,-2.8074,-2.9078,-2.9389,-2.9962,-3.0659,-3.0503,-3.0275,-3.0005,-2.9829,-2.9561,-2.923,-2.9226,0.0,0.0,0.0,-3.0824,-3.1357,-3.2202,-3.2341,-3.1895,-3.2383,-3.209,-3.1133,-3.1094,-3.0489,-2.9298,-2.9298,-2.7889,-2.5249,0.0,0.0,-2.5927,-2.5952,-2.6442,-2.7476,-2.752,-2.7522,-2.7522,-2.7192,-2.6587,-2.5726,-2.5687,-2.5687,-2.5687,-2.5199,-2.475,-2.4397,-2.2955,-2.1647,0.0,0.0,0.0,0.0,0.0,0.0,0.0,0.0,0.0,0.0,0.0,-1.6205,-1.6885,0.0,0.0,0.0,-1.6107,-1.6281,-1.713,-1.781,0.0,0.0,0.0,0.0,0.0,0.0,0.0,-2.5336,-2.6487,-2.7738,-2.9087,-2.9152,-2.8981,-2.8834,-2.8524,-2.8424,-2.8769,0.0,-2.9441,-2.9747,-3.0103,-3.0322,-3.0339,-3.0751,-3.1089,-3.1113,-3.1481,-3.1784,-3.1799,-3.1744,-3.173,-3.1668,-3.13,-3.0955,-3.0955,-3.0526,-2.963,-2.8411,-2.8392,-2.8612,-2.8612,-2.8864,-2.9136,-3.7214,-3.6864,-3.29,-3.1249,-3.1293,-3.2071,-3.2046,-3.1484,-3.2198,-3.2069,-3.1376,-3.201,-3.1835,-3.1003,-3.1003,0.0,-3.1137,-3.1959,-3.236,-3.2441,-3.3241,-3.3573,-3.3495,-3.3495,-3.3476,-3.3378,-3.3398,-3.2578,-3.1055,-3.0997,-3.0235,-2.8732,-2.8708,-2.8569,-2.8315,-2.8276,-2.8337,-2.8401,-2.842,-2.8401,-2.8401,-2.7464,-2.6607,-2.5844,-2.5726,-2.5687,-2.5687,-2.5687,-2.5336,-2.4553,-2.4436,-2.3324,-2.1061,0.0,0.0,0.0,0.0,0.0,0.0,0.0,0.0,0.0,0.0,0.0,0.0,0.0,0.0,0.0,-1.7309,0.0,-1.8198,-1.9751,0.0,0.0,0.0,-2.3731,-2.4612,-2.545,-2.6344,-2.7215,0.0,0.0,-3.0813,-3.1656,-3.1643,-3.0094,-2.9218,-2.8984,-2.9782,-3.0623,-3.1368,-3.2009,-3.2829,-3.3339,-3.3046,-3.3144,-3.3151,-3.3142,-3.3338,-3.3215,-3.3215,-3.3211,-3.327,-3.3209,-3.3268,-3.3227,-3.3266,-3.3068,-3.2316,-2.9224,-2.9181,-2.9642,-2.9694,-3.014,-3.051,-3.8166,-3.8088,-3.7097,-3.6255,-3.5613,-3.5852,-3.6226,-3.6626,-3.6177,-3.5875,-3.5611,-3.4546,-3.3597,-3.2787,-3.2787,-3.3158,-3.3782,-3.398,-3.4452,-3.5076,-3.5291,-3.5037,-3.4393,-3.4393,-3.4042,-3.3417,-3.3398,-3.3183,-3.279,-3.2792,-3.2578,-3.2204,-3.2185,-3.0877,-2.8398,-2.8281,-2.8635,-2.9279,-2.9298,-2.9298,-2.9259,-2.7778,-2.69,-2.6704,-2.6058,-2.5687,-2.5687,-2.5687,-2.5609,-2.5395,-2.475,-2.4124,-2.3519,-2.1647,0.0,0.0,0.0,0.0,0.0,0.0,0.0,0.0,0.0,-1.9112,-2.0119,0.0,-1.8905,0.0,-1.8178,-1.8554,-2.0694,-2.1854,0.0,0.0,-2.5028,-2.6396,-2.7218,-2.806,-2.8918,-2.9788,-3.0829,-3.1578,-3.1769,-3.256,-3.296,-3.2536,-3.2319,-3.2277,-3.2497,-3.2653,-3.2871,-3.3083,-3.3317,-3.3398,-3.3456,-3.3398,-3.3437,-3.3385,-3.3408,-3.3372,-3.3392,-3.3378,-3.3379,-3.3378,-3.3333,-3.3307,-3.3346,-3.3305,-3.3088,-3.2215,-3.1763,-3.1437,-3.1388,-3.1042,-3.0709,-3.9613,-3.9619,-3.9681,-3.9399,-3.8811,-3.8122,-3.8092,-3.8482,-3.8014,-3.7823,-3.7773,-3.684,-3.6134,-3.5678,-3.5695,-3.5952,-3.6355,-3.603,-3.6111,-3.654,-3.6186,-3.574,-3.5271,-3.5271,-3.5037,-3.4566,-3.4566,-3.4354,-3.4003,-3.3983,-3.3768,-3.3398,-3.3398,-3.2441,-3.0645,-3.0196,-3.004,-3.0138,-3.0138,-2.9962,-2.9572,-2.8264,-2.7388,-2.6997,-2.6156,-2.5687,-2.5687,-2.5687,-2.5687,-2.5687,-2.5238,-2.4811,-2.4406,-2.306,-2.2125,0.0,0.0,0.0,0.0,0.0,0.0,0.0,0.0,0.0,0.0,0.0,-2.1104,-2.1474,-2.077,-2.1162,-2.3335,-2.4303,-2.5134,-2.6011,-2.7301,-2.8571,-2.9788,-3.0373,-3.0981,-3.1863,-3.2721,-3.3271,-3.3275,-3.402,-3.4553,-3.456,-3.4557,-3.4423,-3.4059,-3.3964,-3.41,-3.4488,-3.4569,-3.4549,-3.4569,-3.4546,-3.4569,-3.4546,-3.4569,-3.4549,-3.4569,-3.4558,-3.4565,-3.4565,-3.453,-3.4492,-3.4512,-3.4512,-3.4512,-3.4394,-3.3828,-3.3142,-3.2667,-3.2186,-3.1859,-4.1279,-4.1181,-4.1247,-4.1198,-4.1003,-3.954,-3.8924,-3.8924,-3.8924,-3.8846,-3.8746,-3.8746,-3.8654,-3.8522,-3.858,-3.8564,-3.8471,-3.7783,-3.7477,-3.7399,-3.656,-3.6166,-3.6166,-3.6049,-3.601,-3.601,-3.601,-3.5603,-3.4881,-3.4881,-3.4471,-3.3766,-3.3746,-3.3671,-3.3534,-3.2812,-3.1895,-3.0821,-3.0801,-3.047,-2.9767,-2.891,-2.8051,-2.7175,-2.6335,-2.5808,-2.5691,-2.5691,-2.5691,-2.5691,-2.5691,-2.5364,-2.4608,-2.4452,-2.4062,0.0,-2.316,0.0,0.0,0.0,0.0,0.0,0.0,0.0,0.0,-2.3968,-2.3887,-2.4666,-2.4043,-2.4296,-2.603,-2.6907,-2.7764,-2.8621,-2.9459,-3.0652,-3.2205,-3.2411,-3.2742,-3.3622,-3.4398,-3.4842,-3.485,-3.5537,-3.6009,-3.59,-3.5861,-3.5611,-3.5034,-3.4881,-3.5115,-3.5913,-3.601,-3.5796,-3.5835,-3.5913,-3.5916,-3.5952,-3.5874,-3.601,-3.5913,-3.5935,-3.5974,-3.5955,-3.5876,-3.5916,-3.5994,-3.5955,-3.5955,-3.586,-3.5254,-3.4525,-3.3707,-3.3309,-3.3319,-4.2776,-4.2151,-4.2155,-4.1745,-4.1085,-4.0776,-4.0639,-4.0623,-4.062,-4.0229,-3.9585,-3.9566,-3.9211,-3.8603,-3.8609,-3.8609,-3.8567,-3.8434,-3.8355,-3.8316,-3.7458,-3.7048,-3.7009,-3.6323,-3.601,-3.601,-3.601,-3.5916,-3.5759,-3.5759,-3.5681,-3.5522,-3.5522,-3.5154,-3.4471,0.0,0.0,0.0,-3.086,-3.0801,-3.0645,-2.9816,-2.8941,-2.8082,-2.7205,0.0,-2.5742,-2.5703,-2.5703,-2.5703,-2.5703,0.0,0.0,0.0,0.0,0.0,0.0,0.0,0.0,0.0,0.0,0.0,-2.4904,-2.4939,-2.541,-2.5894,-2.6244,-2.64,-2.6264,-2.6887,-2.8621,-2.9552,-3.0414,-3.1271,-3.2129,-3.3049,-3.4004,-3.4121,-3.4472,-3.5315,-3.5554,-3.5656,-3.5661,-3.588,-3.6009,-3.6017,-3.6013,-3.5935,-3.5767,-3.5715,-3.5796,-3.5991,-3.601,-3.601,-3.601,-3.601,-3.601,-3.601,-3.601,-3.601,-3.601,-3.601,-3.601,-3.601,-3.601,-3.601,-3.601,-3.601,-3.601,-3.601,-3.5857,-3.5474,-3.4609,-3.3887,-3.3377,-4.345,-4.306,-4.3054,-4.2785,0.0,-4.238,-4.2382,-4.2323,-4.147,-4.0854,-4.0444,-4.0444,-4.0216,-3.9815,-3.9825,-3.9847,-3.9815,-3.9396,-3.9175,-3.9136,-3.8336,-3.7926,-3.7926,-3.7477,-3.7067,-3.6657,-3.6638,-3.6428,-3.6026,-3.6007,-3.601,-3.6013,-3.6013,-3.5779,-3.535,-3.492,-3.363,-3.1457,-3.1051,-3.0857,-3.0819,-2.998,-2.9336,-2.8867,-2.7655,0.0,0.0,0.0,0.0,0.0,0.0,0.0,0.0,0.0,0.0,-2.5035,-2.4631,-2.456,-2.4946,-2.4966,-2.5551,-2.6833,-2.7336,-2.7374,-2.6985,-2.7316,-2.7901,-2.8738,-2.8816,-2.9537,-3.1213,-3.1817,-3.2421,-3.3239,-3.3726,-3.4335,-3.5081,-3.5232,-3.5427,-3.5831,-3.5929,-3.5909,-3.5958,-3.5981,-3.6005,-3.6013,-3.6009,-3.6048,-3.6017,-3.602,-3.602,-3.6004,-3.601,-3.601,-3.601,-3.601,-3.603,-3.601,-3.601,-3.601,-3.601,-3.601,-3.601,-3.601,-3.601,-3.601,-3.601,-3.601,-3.601,-3.601,-3.601,-3.5899,-3.5402,-3.4993,-3.4665,-4.405,-4.3928,-4.3923,-4.3828,-4.3711,-4.3707,-4.3702,-4.3585,-4.2009,0.0,0.0,-4.1099,-4.1107,-4.1112,-4.1105,-4.1107,-4.1054,-4.0363,-4.0025,-3.9986,-3.9188,-3.8817,-3.8817,-3.8661,-3.8212,-3.7509,-3.7352,-3.6908,-3.623,-3.6074,-3.6015,-3.6011,-3.601,-3.601,-3.5932,-3.5128,-3.3979,-3.2598,-3.156,-3.0951,-3.0795,-3.0108,-2.9658,-2.9502,-2.8153,-2.7372,-2.7216,-2.654,-2.6139,-2.6158,-2.6155,-2.6133,-2.6146,-2.6142,-2.6142,-2.6158,-2.6158,-2.6447,-2.7082,-2.7121,-2.7511,-2.8368,-2.9225,-2.9357,-2.8481,-2.8719,-2.9479,-3.0921,-3.1174,-3.1895,-3.3453,-3.3614,-3.3921,-3.4739,-3.4837,-3.5115,-3.5788,-3.5899,-3.5938,-3.6148,-3.6221,-3.6221,-3.6484,-3.6528,-3.6434,-3.6473,-3.659,-3.6458,-3.6423,-3.6407,-3.6309,-3.6316,-3.6518,-3.654,-3.6482,-3.656,-3.6401,-3.6342,-3.6284,-3.6186,-3.6049,-3.6127,-3.6225,-3.6323,-3.6225,-3.6264,-3.6245,-3.6127,-3.603,-3.601,-3.601,-3.601,-3.601,-3.601,-3.5903,-4.5427,-4.4821,-4.4764,-4.4349,-4.3704,-4.3702,-4.3702,-4.3624,-4.2632,-4.1794,-4.1111,-4.1111,-4.1111,-4.111,-4.1111,-4.1111,-4.109,-4.0974,-4.0916,-4.0877,-4.0037,-3.9625,-3.9586,-3.8864,-3.8454,-3.8278,-3.7595,-3.7145,-3.6968,-3.6344,-3.6011,-3.601,-3.601,-3.601,-3.5932,-3.5137,-3.4563,-3.4293,-3.2756,-3.1565,-3.0823,-3.069,-3.0251,-2.953,-2.9279,-2.8792,-2.807,-2.7894,-2.7852,-2.7852,-2.7846,-2.7842,-2.7839,-2.7811,-2.7842,-2.7842,-2.7842,-2.792,-2.8017,-2.8037,-2.8403,-2.926,-3.0117,-3.0258,-2.9455,-3.0687,-3.1646,-3.1953,-3.2557,-3.3395,-3.4291,-3.4428,-3.4778,-3.5558,-3.5713,-3.5772,-3.5894,-3.5928,-3.622,-3.6869,-3.7024,-3.7317,-3.7868,-3.8029,-3.8005,-3.8092,-3.7878,-3.8053,-3.7901,-3.7562,-3.7162,-3.7201,-3.777,-3.816,-3.8043,-3.8219,-3.7828,-3.7223,-3.7126,-3.6911,-3.6323,-3.6735,-3.7087,-3.7126,-3.7126,-3.7106,-3.7106,-3.6482,-3.6166,-3.6108,-3.6088,-3.601,-3.601,-3.601,-3.5994,-4.5993,-4.5662,-4.5629,-4.5386,-4.5051,-4.5055,-4.4792,-4.4343,-4.3919,-4.329,-4.2531,-4.2511,-4.2253,-4.1836,-4.1826,-4.155,-4.1114,-4.1103,-4.1107,-4.1068,-4.0697,-4.0502,-4.0462,-4.009,-3.966,-3.9211,-3.8821,-3.8114,-3.7226,-3.6816,-3.6401,-3.5978,-3.5939,-3.5958,-3.5919,-3.5552,-3.5119,-3.4632,-3.3427,-3.2377,-3.1535,-3.1504,-3.109,-3.0248,-2.9764,-2.9316,-2.8907,-2.8459,-2.8205,-2.8205,-2.8201,-2.8201,-2.8201,-2.8193,-2.8188,-2.8188,-2.8188,-2.8407,-2.889,-2.9338,-2.9786,-3.0214,-3.1018,-3.1349,-3.0959,-3.1641,-3.2484,-3.3361,-3.3843,-3.4389,-3.5207,-3.5304,-3.546,-3.585,-3.5889,-3.5889,-3.5947,-3.6356,-3.6746,-3.7175,-3.7642,-3.8071,-3.8441,-3.8505,-3.8516,-3.8512,-3.8521,-3.853,-3.8569,-3.8619,-3.8489,-3.8115,-3.8333,-3.8551,-3.8629,-3.8609,-3.8414,-3.8043,-3.8004,-3.7848,-3.7458,-3.7809,-3.7946,-3.8004,-3.8004,-3.8004,-3.7985,-3.7282,-3.6813,-3.6657,-3.6264,-3.6069,-3.601,-3.601,-3.601,-4.6204,-4.6198,-4.621,-4.6216,-4.6211,-4.6196,-4.5806,-4.5222,-4.5202,-4.4835,-4.425,-4.3883,-4.3306,-4.2705,-4.2471,-4.2002,-4.1417,-4.1186,-4.1116,-4.1116,-4.1116,-4.1116,-4.1116,-4.1116,-4.0743,-4.0118,-3.9923,-3.911,-3.7882,-3.7414,-3.6757,-3.5992,-3.5889,-3.5889,-3.5889,-3.5889,-3.5577,-3.4895,-3.4272,-3.3473,-3.2426,-3.2406,-3.1973,-3.1115,-3.0453,-3.0,-2.9766,-2.9148,-2.8797,-2.8777,-2.8792,-2.8792,-2.8792,-2.8777,-2.8797,-2.8792,-2.8777,-2.907,-2.9747,-3.0409,-3.0877,-3.1096,-3.17,-3.224,-3.258,-3.2658,-3.3151,-3.4369,-3.4759,-3.5168,-3.5713,-3.5869,-3.5889,-3.5889,-3.5889,-3.6006,-3.622,-3.6785,-3.7428,-3.772,-3.8402,-3.885,-3.9045,-3.909,-3.9154,-3.919,-3.9091,-3.9103,-3.9162,-3.9696,-3.9738,-3.9364,-3.9133,-3.9253,-3.9175,-3.9234,-3.9156,-3.8961,-3.8863,-3.8707,-3.8609,-3.8668,-3.8863,-3.8863,-3.8863,-3.8863,-3.8804,-3.818,-3.7692,-3.7555,-3.7165,-3.6638,-3.642,-3.6147,-3.603,-4.6201,-4.6206,-4.6209,-4.6203,-4.6209,-4.6203,-4.6137,-4.6059,-4.6079,-4.6047,-4.5748,-4.4319,-4.3617,-4.3377,-4.2682,-4.2272,-4.2091,-4.1434,-4.1109,-4.1109,-4.1103,-4.1103,-4.1109,-4.1103,-4.1064,-4.085,-4.0212,-3.9744,-3.9349,-3.7921,-3.6752,-3.5986,-3.5889,-3.5889,-3.5889,-3.5889,-3.585,-3.5772,-3.5694,-3.4876,-3.338,-3.3283,-3.2874,-3.2016,-3.1899,-3.1486,-3.0726,-3.0604,-3.0565,-3.0546,-3.0507,-3.0526,-3.0526,-3.0526,-3.0526,-3.0507,-3.0526,-3.0604,-3.0682,-3.076,-3.1149,-3.1875,-3.2104,-3.2764,-3.4027,-3.4225,-3.4321,-3.4717,-3.5338,-3.5727,-3.5889,-3.5889,-3.5928,-3.6006,-3.5986,-3.6201,-3.6941,-3.7155,-3.7798,-3.9396,-3.9552,-3.9941,-4.0506,-4.0655,-4.073,-4.0584,-4.0539,-4.0547,-4.059,-4.0695,-4.0834,-4.0776,-4.0815,-4.0756,-4.0717,-4.0854,-4.0405,-3.9839,-3.9702,-3.9468,-3.9195,-3.9331,-3.9683,-3.9702,-3.9702,-3.9702,-3.9546,-3.9058,-3.8512,-3.8453,-3.8238,-3.8043,-3.734,-3.6677,-3.6284,-4.6209,-4.6209,-4.6209,-4.6196,-4.6196,-4.6196,-4.6196,-4.6196,-4.6196,-4.6196,-4.6137,-4.5416,-4.4851,-4.4306,-4.3468,-4.2806,-4.226,-4.1461,-4.111,-4.111,-4.111,-4.111,-4.111,-4.111,-4.111,-4.1091,-4.0721,-4.0292,-3.9591,-3.8052,-3.6999,-3.6629,-3.6181,-3.5889,-3.5889,-3.5889,-3.5889,-3.5889,-3.5889,-3.5538,-3.4915,-3.4369,-3.3726,-3.2971,-3.2874,-3.2465,-3.1661,-3.1563,-3.133,-3.0838,-3.0799,-3.0799,-3.0799,-3.0799,-3.0799,-3.0799,-3.0799,-3.0998,-3.1424,-3.1443,-3.1792,-3.2582,-3.3106,-3.371,-3.4333,-3.4856,-3.5146,-3.5249,-3.5551,-3.5787,-3.5794,-3.5846,-3.6084,-3.6532,-3.6668,-3.6999,-3.7857,-3.8402,-3.9104,-3.9766,-4.0273,-4.0662,-4.1013,-4.1109,-4.1106,-4.1115,-4.1109,-4.1101,-4.1101,-4.1108,-4.1108,-4.1108,-4.1108,-4.1108,-4.1108,-4.1108,-4.0912,-4.0678,-4.0561,-4.0366,-4.0229,-4.0268,-4.0561,-4.0542,-4.0503,-4.0522,-4.0581,-3.9917,-3.9312,-3.9253,-3.8824,-3.8473,-3.8121,-3.7789,-3.7575,-4.6196,-4.6196,-4.6196,-4.6196,-4.6196,-4.6196,-4.6196,-4.6196,-4.6196,-4.6196,-4.6196,-4.6196,-4.5845,-4.5144,-4.4111,-4.3254,-4.2572,-4.1578,-4.111,-4.111,-4.111,-4.111,-4.111,-4.111,-4.111,-4.111,-4.1091,-4.0623,-3.9766,-3.8597,-3.7681,-3.7194,-3.6551,-3.6123,-3.5908,-3.5889,-3.5889,-3.5889,-3.5889,-3.5889,-3.5791,-3.5285,-3.4564,-3.3824,-3.3726,-3.3336,-3.2504,-3.2445,-3.2051,-3.1213,-3.112,-3.0992,-3.0759,-3.0936,-3.1138,-3.1352,-3.1158,-3.1384,-3.2139,-3.2208,-3.2531,-3.3295,-3.3972,-3.4406,-3.4654,-3.5183,-3.55,-3.5476,-3.556,-3.5679,-3.6008,-3.6087,-3.6506,-3.7311,-3.744,-3.7824,-3.8695,-3.9402,-3.9818,-4.015,-4.0701,-4.111,-4.111,-4.1109,-4.1106,-4.1106,-4.1109,-4.1104,-4.1104,-4.1104,-4.1108,-4.1108,-4.1108,-4.1108,-4.1108,-4.1108,-4.1108,-4.1108,-4.1049,-4.103,-4.1108,-4.1088,-4.1088,-4.0854,-4.1049,-4.1069,-4.0932,-4.0424,-4.0112,-3.9995,-3.9566,-3.9,-3.8941,-3.8765,-3.859,-4.6196,-4.6196,-4.6196,-4.6196,-4.6196,-4.6196,-4.6196,-4.6196,-4.6196,-4.6196,-4.6196,-4.6196,-4.6176,-4.5981,-4.4403,-4.3578,-4.3312,-4.187,-4.1149,-4.111,-4.111,-4.111,-4.111,-4.111,-4.111,-4.111,-4.111,-4.0682,-3.9883,-3.9669,-3.8831,-3.7311,-3.7155,-3.6707,-3.6084,-3.5922,-3.5889,-3.5864,-3.5878,-3.5883,-3.5883,-3.5844,-3.5377,-3.4612,-3.4544,-3.4155,-3.3453,-3.3341,-3.2927,-3.209,-3.1929,-3.1501,-3.0826,-3.131,-3.2039,-3.2628,-3.2106,-3.2048,-3.2792,-3.2937,-3.3304,-3.4077,-3.4306,-3.4593,-3.5149,-3.5347,-3.535,-3.5239,-3.5427,-3.5836,-3.6598,-3.6674,-3.711,-3.7951,-3.8056,-3.8518,-3.9422,-3.9625,-4.0057,-4.0721,-4.1026,-4.111,-4.111,-4.1103,-4.1109,-4.1109,-4.1111,-4.1113,-4.1109,-4.1117,-4.1108,-4.1108,-4.1108,-4.1108,-4.1108,-4.1108,-4.1108,-4.1108,-4.1108,-4.1108,-4.1108,-4.1108,-4.1108,-4.1108,-4.1108,-4.1108,-4.1088,-4.103,-4.0932,-4.0698,-4.0249,-3.9858,-3.978,-3.9097,-3.898,-4.6196,-4.6196,-4.6196,-4.6196,-4.6196,-4.6196,-4.6196,-4.6196,-4.6196,-4.6196,-4.6196,-4.6196,-4.6196,-4.6118,-4.4949,-4.413,-4.3507,-4.2396,-4.1598,-4.1169,-4.111,-4.111,-4.111,-4.111,-4.111,-4.111,-4.111,-4.0955,-4.0604,-4.0097,-3.9513,-3.8772,-3.772,-3.7019,-3.6682,-3.6099,-3.5779,-3.5779,-3.5732,-3.5726,-3.5706,-3.5706,-3.5551,-3.5279,-3.5379,-3.5032,-3.4194,-3.4155,-3.3749,-3.2863,-3.2824,-3.2681,-3.2341,-3.2516,-3.2754,-3.2947,-3.2705,-3.2866,-3.3569,-3.3698,-3.4039,-3.4765,-3.488,-3.4942,-3.5205,-3.5266,-3.5254,-3.5318,-3.5812,-3.6485,-3.7045,-3.7032,-3.7375,-3.8612,-3.8941,-3.9282,-4.0045,-4.03,-4.0498,-4.0866,-4.1038,-4.111,-4.1091,-4.1109,-4.11,-4.1114,-4.1105,-4.1113,-4.1113,-4.1101,-4.1108,-4.1108,-4.1108,-4.1108,-4.1108,-4.1108,-4.1108,-4.1108,-4.1108,-4.1108,-4.1108,-4.1108,-4.1108,-4.1108,-4.1108,-4.1108,-4.1088,-4.1088,-4.1108,-4.103,-4.0581,-4.0503,-4.0639,-4.0034,-3.9995,-4.6196,-4.6196,-4.6196,-4.6196,-4.6196,-4.6196,-4.6196,-4.6196,-4.6196,-4.6196,-4.6196,-4.6196,-4.6196,-4.6118,-4.5572,-4.4832,-4.3955,-4.2825,-4.1851,-4.1149,-4.111,-4.111,-4.111,-4.111,-4.111,-4.1104,-4.1045,-4.1038,-4.0972,-4.0404,-3.9941,-3.9552,-3.8443,-3.7763,-3.7405,-3.6511,-3.6057,-3.6018,-3.5755,-3.5607,-3.5607,-3.5607,-3.5607,-3.5629,-3.5741,-3.5561,-3.4983,-3.4938,-3.4522,-3.3779,-3.3623,-3.3563,-3.347,-3.3179,-3.3244,-3.3627,-3.346,-3.3654,-3.4309,-3.4448,-3.4653,-3.5114,-3.519,-3.519,-3.519,-3.519,-3.5324,-3.5668,-3.6107,-3.6891,-3.7747,-3.7755,-3.8103,-3.9389,-3.9697,-3.9937,-4.0532,-4.061,-4.0674,-4.0798,-4.0907,-4.098,-4.1011,-4.102,-4.1058,-4.1103,-4.1105,-4.1097,-4.1113,-4.1101,-4.1108,-4.1108,-4.1108,-4.1108,-4.1108,-4.1108,-4.1127,-4.1127,-4.1108,-4.1108,-4.1108,-4.1108,-4.1108,-4.1108,-4.1108,-4.1108,-4.1108,-4.1108,-4.1108,-4.1108,-4.101,-4.0873,-4.0971,-4.103,-4.0834,-4.6196,-4.6196,-4.6196,-4.6196,-4.6196,-4.6196,-4.6196,-4.6196,-4.6196,-4.6196,-4.6196,-4.6196,-4.6196,-4.6176,-4.6079,-4.565,-4.4618,-4.3254,-4.2143,-4.1422,-4.1227,-4.1208,-4.1227,-4.1117,-4.1071,-4.1064,-4.0943,-4.0907,-4.0859,-4.0671,-4.0246,-3.9603,-3.9344,-3.8794,-3.811,-3.729,-3.6783,-3.6571,-3.6018,-3.5662,-3.5588,-3.5554,-3.5574,-3.5585,-3.5582,-3.5591,-3.5607,-3.5571,-3.5182,-3.4553,-3.426,-3.412,-3.3959,-3.3393,-3.3521,-3.4665,-3.4404,-3.4423,-3.4999,-3.5111,-3.5073,-3.519,-3.519,-3.519,-3.519,-3.5286,-3.563,-3.6222,-3.6663,-3.7273,-3.8591,-3.8913,-3.9256,-4.01,-4.0193,-4.0283,-4.0457,-4.0504,-4.0564,-4.0668,-4.073,-4.0773,-4.0859,-4.0896,-4.0929,-4.1039,-4.1081,-4.1085,-4.1105,-4.1097,-4.1108,-4.1108,-4.1127,-4.1147,-4.1127,-4.1108,-4.1147,-4.1166,-4.1127,-4.1108,-4.1108,-4.1108,-4.1108,-4.1108,-4.1108,-4.1108,-4.1108,-4.1108,-4.1108,-4.1108,-4.1108,-4.1108,-4.1108,-4.1108,-4.1108,-4.6196,-4.6196,-4.6196,-4.6196,-4.6196,-4.6196,-4.6196,-4.6196,-4.6196,-4.6196,-4.6196,-4.6196,-4.6196,-4.6196,-4.6196,-4.5728,-4.4871,-4.4286,-4.3643,-4.2838,-4.2214,-4.1922,-4.1779,-4.1268,-4.0897,-4.0819,-4.0776,-4.0754,-4.0742,-4.0706,-4.0539,-4.0249,-3.9676,-3.9289,-3.8967,-3.8061,-3.7332,-3.6741,-3.6407,-3.5944,-3.5403,-3.5326,-3.5307,-3.5326,-3.5316,-3.5386,-3.5481,-3.5553,-3.5427,-3.5106,-3.5145,-3.5085,-3.4922,-3.4707,-3.4759,-3.5092,-3.4999,-3.4885,-3.5133,-3.519,-3.519,-3.519,-3.519,-3.519,-3.5286,-3.5744,-3.6184,-3.6661,-3.7502,-3.8534,-3.8954,-3.9584,-3.9966,-4.0291,-4.0329,-4.0329,-4.0363,-4.0444,-4.0504,-4.0564,-4.0642,-4.0706,-4.0742,-4.0738,-4.0801,-4.0949,-4.0981,-4.0992,-4.1081,-4.1101,-4.1108,-4.1108,-4.1147,-4.1244,-4.1361,-4.1342,-4.1244,-4.1244,-4.1205,-4.1108,-4.1108,-4.1108,-4.1108,-4.1108,-4.1108,-4.1108,-4.1108,-4.1108,-4.1108,-4.1108,-4.1108,-4.1108,-4.1108,-4.1108,-4.1108,-4.6196,-4.6196,-4.6196,-4.6196,-4.6196,-4.6196,-4.6196,-4.6196,-4.6196,-4.6196,-4.6196,-4.6196,-4.6196,-4.6189,-4.6146,-4.5819,-4.5332,-4.5239,-4.4909,-4.4248,-4.3194,-4.258,-4.2163,-4.1267,-4.0796,-4.0694,-4.0642,-4.0635,-4.0635,-4.0559,-4.0549,-4.0414,-3.9976,-3.9726,-3.9649,-3.8789,-3.7901,-3.7153,-3.6673,-3.6088,-3.5381,-3.519,-3.519,-3.519,-3.519,-3.5239,-3.5321,-3.54,-3.5444,-3.5418,-3.5432,-3.5411,-3.534,-3.5307,-3.5281,-3.5223,-3.519,-3.519,-3.519,-3.519,-3.519,-3.519,-3.519,-3.519,-3.5362,-3.5993,-3.6566,-3.7101,-3.8132,-3.9145,-3.9508,-3.9928,-4.0291,-4.0329,-4.0329,-4.0329,-4.031,-4.0381,-4.043,-4.0427,-4.0489,-4.0545,-4.0615,-4.0636,-4.0684,-4.0839,-4.0926,-4.0974,-4.1081,-4.1101,-4.1108,-4.1108,-4.1108,-4.1342,-4.1674,-4.1596,-4.1361,-4.1342,-4.1322,-4.1186,-4.1108,-4.1108,-4.1108,-4.1108,-4.1108,-4.1108,-4.1108,-4.1108,-4.1108,-4.1108,-4.1108,-4.1108,-4.1108,-4.1108,-4.1108,-4.6196,-4.6196,-4.6196,-4.6196,-4.6196,-4.6196,-4.6196,-4.6196,-4.6189,-4.6181,-4.6169,-4.6146,-4.6154,-4.6138,-4.6008,-4.5908,-4.5917,-4.5699,-4.557,-4.5189,-4.423,-4.3139,-4.2061,-4.1117,-4.0688,-4.0615,-4.0534,-4.0489,-4.0492,-4.0398,-4.031,-4.0309,-4.0289,-4.0272,-4.0098,-3.9431,-3.8666,-3.7825,-3.7101,-3.6375,-3.5458,-3.5324,-3.5248,-3.5209,-3.519,-3.519,-3.5223,-3.5219,-3.5281,-3.5336,-3.53,-3.5239,-3.519,-3.519,-3.5226,-3.519,-3.519,-3.519,-3.519,-3.519,-3.519,-3.519,-3.519,-3.519,-3.5305,-3.6126,-3.6967,-3.754,-3.8572,-3.9451,-4.0062,-4.0291,-4.0329,-4.0329,-4.0329,-4.0329,-4.0329,-4.031,-4.0347,-4.0329,-4.0329,-4.0364,-4.0492,-4.0485,-4.0604,-4.078,-4.0894,-4.0954,-4.1052,-4.1074,-4.1104,-4.1108,-4.1108,-4.1439,-4.1791,-4.1479,-4.1322,-4.1654,-4.1518,-4.1205,-4.1108,-4.1108,-4.1108,-4.1108,-4.1108,-4.1108,-4.1108,-4.1108,-4.1108,-4.1108,-4.1108,-4.1108,-4.1108,-4.1108,-4.1108,-4.6196,-4.6196,-4.6196,-4.6196,-4.6196,-4.6196,-4.6196,-4.6189,-4.6093,-4.6037,-4.6027,-4.5894,-4.5852,-4.5828,-4.5803,-4.579,-4.5764,-4.5717,-4.5684,-4.5631,-4.5248,-4.3694,-4.1996,-4.0964,-4.0489,-4.043,-4.0398,-4.0345,-4.0345,-4.0329,-4.0329,-4.0329,-4.0329,-4.0329,-4.0234,-4.0043,-3.9508,-3.8782,-3.8476,-3.7559,-3.6375,-3.6165,-3.5821,-3.5229,-3.5229,-3.5229,-3.5209,-3.519,-3.5207,-3.5239,-3.5242,-3.519,-3.519,-3.519,-3.519,-3.519,-3.519,-3.519,-3.519,-3.519,-3.519,-3.519,-3.519,-3.519,-3.5248,-3.6566,-3.7368,-3.796,-3.8992,-4.0024,-4.0272,-4.0329,-4.0329,-4.0329,-4.0329,-4.0329,-4.0329,-4.0329,-4.0329,-4.0329,-4.0329,-4.0328,-4.0345,-4.0379,-4.0422,-4.059,-4.0729,-4.0837,-4.0955,-4.107,-4.1108,-4.1108,-4.1186,-4.1557,-4.1713,-4.1361,-4.1381,-4.1888,-4.1713,-4.1147,-4.1108,-4.1108,-4.1108,-4.1108,-4.1108,-4.1108,-4.1108,-4.1108,-4.1108,-4.1108,-4.1108,-4.1108,-4.1108,-4.1108,-4.1108,-4.6196,-4.6196,-4.6196,-4.6196,-4.6196,-4.6146,-4.6111,-4.6074,-4.5936,-4.5871,-4.5847,-4.5744,-4.5684,-4.5684,-4.5645,-4.56,-4.5619,-4.5574,-4.5524,-4.537,-4.4648,-4.3481,-4.2139,-4.1065,-4.0381,-4.0329,-4.0329,-4.031,-4.031,-4.0329,-4.0329,-4.0329,-4.0329,-4.0329,-4.0329,-4.0291,-3.9871,-3.9145,-3.8973,-3.8323,-3.7139,-3.7005,-3.6547,-3.5935,-3.5744,-3.5649,-3.5305,-3.519,-3.519,-3.519,-3.519,-3.519,-3.519,-3.519,-3.519,-3.519,-3.519,-3.519,-3.519,-3.519,-3.519,-3.519,-3.519,-3.542,-3.5878,-3.6986,-3.7731,-3.8381,-3.9565,-4.0177,-4.0329,-4.0329,-4.0329,-4.0329,-4.0329,-4.0329,-4.0329,-4.0329,-4.0329,-4.0329,-4.0329,-4.0329,-4.0329,-4.0329,-4.0377,-4.0477,-4.0672,-4.0781,-4.0882,-4.1013,-4.1166,-4.1225,-4.1205,-4.1479,-4.1791,-4.1615,-4.1283,-4.1752,-4.1693,-4.1147,-4.1108,-4.1108,-4.1108,-4.1108,-4.1108,-4.1108,-4.1108,-4.1108,-4.1108,-4.1108,-4.1108,-4.1108,-4.1108,-4.1108,-4.1108,-4.6196,-4.6196,-4.6169,-4.6189,-4.6146,-4.6027,-4.5966,-4.5944,-4.5764,-4.5689,-4.5675,-4.566,-4.5615,-4.5645,-4.5505,-4.5491,-4.5473,-4.5381,-4.5225,-4.467,-4.3694,-4.2527,-4.2317,-4.0978,-4.0386,-4.0329,-4.0329,-4.0329,-4.0329,-4.0329,-4.0329,-4.0329,-4.0329,-4.0329,-4.0329,-4.0329,-3.9871,-3.9374,-3.9279,-3.882,-3.8037,-3.7808,-3.733,-3.6451,-3.6088,-3.5783,-3.5362,-3.519,-3.519,-3.519,-3.519,-3.519,-3.519,-3.519,-3.519,-3.519,-3.519,-3.519,-3.519,-3.519,-3.5305,-3.54,-3.5439,-3.5725,-3.6585,-3.7483,-3.8228,-3.8801,-3.9775,-4.0234,-4.0329,-4.0329,-4.0329,-4.0329,-4.0329,-4.0329,-4.0329,-4.0329,-4.0329,-4.0329,-4.0329,-4.0329,-4.031,-4.0327,-4.0341,-4.0408,-4.059,-4.0721,-4.0835,-4.0961,-4.1222,-4.1479,-4.142,-4.1342,-4.1654,-4.1888,-4.1557,-4.1498,-4.1381,-4.1108,-4.1108,-4.1108,-4.1108,-4.1108,-4.1108,-4.1108,-4.1108,-4.1108,-4.1108,-4.1108,-4.1108,-4.1108,-4.1108,-4.1108,-4.1108,-4.6196,-4.6196,-4.6084,-4.6037,-4.6017,-4.5828,-4.5777,-4.5764,-4.5603,-4.5558,-4.5524,-4.5438,-4.54,-4.54,-4.5361,-4.5341,-4.5341,-4.5222,-4.4972,-4.4074,-4.2565,-4.1858,-4.1609,-4.0731,-4.0368,-4.0329,-4.0329,-4.0329,-4.0329,-4.0329,-4.0329,-4.0329,-4.0329,-4.0329,-4.0329,-4.031,-4.0253,-4.0024,-4.0005,-3.9527,-3.8897,-3.8686,-3.8056,-3.6795,-3.5974,-3.5496,-3.5286,-3.519,-3.519,-3.519,-3.519,-3.519,-3.519,-3.519,-3.519,-3.519,-3.519,-3.519,-3.5209,-3.5267,-3.5534,-3.6069,-3.6222,-3.6566,-3.7387,-3.819,-3.8725,-3.9145,-3.9775,-4.0291,-4.0329,-4.0329,-4.0329,-4.0329,-4.0329,-4.0329,-4.0329,-4.0329,-4.0329,-4.0329,-4.0329,-4.0329,-4.0329,-4.0309,-4.0344,-4.036,-4.0481,-4.0648,-4.0791,-4.0921,-4.1198,-4.1491,-4.183,-4.1791,-4.1947,-4.2259,-4.222,-4.1849,-4.1576,-4.1147,-4.1147,-4.1108,-4.1108,-4.1108,-4.1108,-4.1108,-4.1108,-4.1108,-4.1108,-4.1108,-4.1108,-4.1108,-4.1108,-4.1108,-4.1108,-4.6174,-4.6093,-4.6027,-4.5944,-4.5835,-4.5694,-4.56,-4.5587,-4.5455,-4.5419,-4.54,-4.5319,-4.5277,-4.5277,-4.5277,-4.5277,-4.5163,-4.4819,-4.4227,-4.331,-4.2087,-4.1342,-4.0922,-4.0578,-4.0329,-4.0329,-4.0329,-4.0329,-4.0329,-4.0329,-4.0329,-4.0329,-4.0329,-4.0329,-4.0329,-4.0329,-4.031,-4.0291,-4.031,-4.0043,-3.968,-3.9584,-3.9088,-3.7674,-3.6528,-3.5821,-3.584,-3.54,-3.5229,-3.519,-3.5209,-3.519,-3.519,-3.519,-3.519,-3.519,-3.519,-3.519,-3.5229,-3.5592,-3.6031,-3.647,-3.6833,-3.7502,-3.8094,-3.8782,-3.9202,-3.9565,-4.0005,-4.0329,-4.0329,-4.0329,-4.0329,-4.0329,-4.0329,-4.0329,-4.0329,-4.0329,-4.0329,-4.0329,-4.0329,-4.0329,-4.031,-4.0327,-4.0327,-4.0344,-4.0454,-4.061,-4.0729,-4.0874,-4.1103,-4.1456,-4.2038,-4.2318,-4.2396,-4.265,-4.2959,-4.2627,-4.2275,-4.1647,-4.1199,-4.1143,-4.1108,-4.1108,-4.1108,-4.1108,-4.1108,-4.1108,-4.1108,-4.1108,-4.1108,-4.1108,-4.1108,-4.1108,-4.1108,-4.6093,-4.5956,-4.5933,-4.5822,-4.5679,-4.5524,-4.5473,-4.5437,-4.5341,-4.5319,-4.5277,-4.5277,-4.5277,-4.5277,-4.5277,-4.5277,-4.5029,-4.4208,-4.3443,-4.2851,-4.1724,-4.0979,-4.0482,-4.0368,-4.0329,-4.0329,-4.0329,-4.0329,-4.0329,-4.0329,-4.0329,-4.0329,-4.0329,-4.0329,-4.0329,-4.0329,-4.0329,-4.0329,-4.031,-4.0291,-4.0215,-4.0196,-3.9699,-3.8706,-3.7483,-3.6719,-3.6566,-3.6126,-3.563,-3.5439,-3.54,-3.5324,-3.5209,-3.519,-3.519,-3.519,-3.519,-3.519,-3.5362,-3.5935,-3.6509,-3.6661,-3.7445,-3.8266,-3.8973,-3.9279,-3.9603,-3.9966,-4.0329,-4.0329,-4.0329,-4.0329,-4.0329,-4.0329,-4.0329,-4.0329,-4.0329,-4.0329,-4.0329,-4.0329,-4.0329,-4.0329,-4.0329,-4.0327,-4.0327,-4.0345,-4.0454,-4.0577,-4.0707,-4.0946,-4.1234,-4.193,-4.2631,-4.324,-4.3377,-4.3088,-4.34,-4.3185,-4.2854,-4.2171,-4.1449,-4.1202,-4.1166,-4.1108,-4.1108,-4.1108,-4.1108,-4.1108,-4.1108,-4.1108,-4.1108,-4.1108,-4.1108,-4.1108,-4.1108,-4.5944,-4.5731,-4.5619,-4.5577,-4.5488,-4.5381,-4.532,-4.5339,-4.5298,-4.5277,-4.5277,-4.5277,-4.5277,-4.5277,-4.5277,-4.5277,-4.4972,-4.3902,-4.3004,-4.2507,-4.1399,-4.0444,-4.0387,-4.0329,-4.0329,-4.0329,-4.0329,-4.0329,-4.0329,-4.0329,-4.0329,-4.0329,-4.0329,-4.0329,-4.0329,-4.0329,-4.0329,-4.0329,-4.0329,-4.0329,-4.0329,-4.0272,-3.9966,-3.9126,-3.8075,-3.7578,-3.7483,-3.733,-3.6986,-3.6375,-3.6317,-3.5897,-3.5496,-3.5305,-3.5324,-3.519,-3.5209,-3.5229,-3.5458,-3.6088,-3.6814,-3.7483,-3.8285,-3.9107,-3.9775,-4.0024,-4.0081,-4.0177,-4.0329,-4.0329,-4.0329,-4.0329,-4.0329,-4.0329,-4.0329,-4.0329,-4.0329,-4.0329,-4.0329,-4.0329,-4.0329,-4.031,-4.0328,-4.0381,-4.0394,-4.046,-4.0559,-4.0687,-4.081,-4.1138,-4.1512,-4.2415,-4.3456,-4.4007,-4.4475,-4.3987,-4.3792,-4.3563,-4.3197,-4.2616,-4.1956,-4.1436,-4.1225,-4.1147,-4.1108,-4.1108,-4.1108,-4.1108,-4.1108,-4.1108,-4.1108,-4.1108,-4.1108,-4.1108,-4.1108,-4.5854,-4.5603,-4.5524,-4.5455,-4.54,-4.5339,-4.5277,-4.5277,-4.5277,-4.5277,-4.5277,-4.5277,-4.5277,-4.5277,-4.5277,-4.5277,-4.4838,-4.3577,-4.2851,-4.2412,-4.117,-4.0329,-4.0329,-4.0329,-4.0329,-4.0329,-4.0329,-4.0329,-4.0329,-4.0329,-4.0329,-4.0329,-4.0329,-4.0329,-4.0329,-4.0329,-4.0329,-4.0329,-4.0329,-4.0329,-4.0329,-4.0329,-4.0024,-3.9603,-3.8877,-3.8419,-3.8285,-3.7846,-3.7557,-3.7194,-3.712,-3.6642,-3.6239,-3.6143,-3.6088,-3.5439,-3.5267,-3.5477,-3.5897,-3.6661,-3.7483,-3.8323,-3.9164,-3.9794,-4.0177,-4.0291,-4.0329,-4.0329,-4.0329,-4.0329,-4.0329,-4.0329,-4.0329,-4.0329,-4.0329,-4.0329,-4.0329,-4.0329,-4.0329,-4.0329,-4.0329,-4.031,-4.0328,-4.0379,-4.0473,-4.0559,-4.0655,-4.0776,-4.0887,-4.1163,-4.1532,-4.2715,-4.3777,-4.4718,-4.5167,-4.4952,-4.4504,-4.4192,-4.3543,-4.2982,-4.2303,-4.1686,-4.1322,-4.1127,-4.1108,-4.1108,-4.1108,-4.1108,-4.1108,-4.1108,-4.1108,-4.1108,-4.1108,-4.1108,-4.1108,-4.5747,-4.5455,-4.5455,-4.54,-4.5298,-4.5277,-4.5277,-4.5277,-4.5277,-4.5277,-4.5277,-4.5277,-4.5277,-4.5277,-4.5258,-4.5201,-4.4914,-4.3405,-4.2756,-4.2144,-4.1036,-4.0329,-4.0329,-4.0329,-4.0329,-4.0329,-4.0329,-4.0329,-4.0329,-4.0329,-4.0329,-4.0329,-4.0329,-4.0329,-4.0329,-4.0329,-4.0329,-4.0329,-4.0329,-4.0329,-4.0329,-4.0329,-4.0329,-4.031,-3.9623,-3.9279,-3.9202,-3.8763,-3.8285,-3.8056,-3.7884,-3.7578,-3.7003,-3.7328,-3.7043,-3.5974,-3.5706,-3.6126,-3.67,-3.7502,-3.8228,-3.882,-3.9756,-4.0196,-4.031,-4.0329,-4.0329,-4.0329,-4.0329,-4.0329,-4.0329,-4.0329,-4.0329,-4.0329,-4.0329,-4.0329,-4.0329,-4.0329,-4.0329,-4.0329,-4.0329,-4.031,-4.031,-4.0394,-4.0504,-4.0629,-4.0738,-4.0849,-4.096,-4.0976,-4.1512,-4.2825,-4.4019,-4.5214,-4.576,-4.5903,-4.5487,-4.5156,-4.4217,-4.3333,-4.2596,-4.1862,-4.1495,-4.1108,-4.1108,-4.1108,-4.1108,-4.1108,-4.1108,-4.1108,-4.1108,-4.1108,-4.1108,-4.1108,-4.1108,-4.5455,-4.53,-4.53,-4.5317,-4.5277,-4.5277,-4.5277,-4.5277,-4.5277,-4.5277,-4.5277,-4.5277,-4.5277,-4.5277,-4.522,-4.4838,-4.4093,-4.3157,-4.2335,-4.1705,-4.0807,-4.0329,-4.0329,-4.0329,-4.0329,-4.0329,-4.0329,-4.0329,-4.0329,-4.0329,-4.0329,-4.0329,-4.0329,-4.0329,-4.0329,-4.0329,-4.0329,-4.0329,-4.0329,-4.0329,-4.0329,-4.0329,-4.0329,-4.0272,-4.0157,-4.0043,-4.0005,-3.9718,-3.947,-3.8898,-3.8859,-3.842,-3.7771,-3.7617,-3.7674,-3.7464,-3.7426,-3.7464,-3.7693,-3.8228,-3.882,-3.9221,-3.9852,-4.0234,-4.0329,-4.0329,-4.0329,-4.0329,-4.0329,-4.0329,-4.0329,-4.0329,-4.0329,-4.0329,-4.0329,-4.0329,-4.0329,-4.0329,-4.0329,-4.0329,-4.0329,-4.0329,-4.031,-4.043,-4.0549,-4.0688,-4.0796,-4.0917,-4.1073,-4.1167,-4.1434,-4.2689,-4.4046,-4.5261,-4.5598,-4.5832,-4.5852,-4.567,-4.4543,-4.345,-4.2752,-4.196,-4.1397,-4.1108,-4.1108,-4.1108,-4.1108,-4.1108,-4.1108,-4.1108,-4.1108,-4.1108,-4.1108,-4.1108,-4.1108,-4.5341,-4.5297,-4.5277,-4.5277,-4.5277,-4.5277,-4.5277,-4.5277,-4.5277,-4.5277,-4.5277,-4.5277,-4.5277,-4.522,-4.4838,-4.438,-4.3768,-4.2679,-4.1915,-4.1399,-4.0711,-4.0329,-4.0329,-4.0329,-4.0329,-4.0329,-4.0329,-4.0329,-4.0329,-4.0329,-4.0329,-4.0329,-4.0329,-4.0329,-4.0329,-4.0329,-4.0329,-4.0329,-4.0329,-4.0329,-4.0329,-4.0329,-4.0329,-4.0329,-4.0329,-4.0329,-4.0329,-4.031,-4.0158,-3.9738,-3.9738,-3.9336,-3.8839,-3.882,-3.903,-3.8476,-3.8935,-3.8916,-3.861,-3.8858,-3.9221,-3.9661,-4.0081,-4.0291,-4.0329,-4.0329,-4.0329,-4.0329,-4.0329,-4.0329,-4.0329,-4.0329,-4.0329,-4.0329,-4.0329,-4.0329,-4.0329,-4.0329,-4.0329,-4.0329,-4.0329,-4.0329,-4.0329,-4.0396,-4.0489,-4.0574,-4.0738,-4.0878,-4.1224,-4.1575,-4.1928,-4.2487,-4.3877,-4.5228,-4.5248,-4.5313,-4.5378,-4.5046,-4.3875,-4.2978,-4.2635,-4.2034,-4.1417,-4.1108,-4.1108,-4.1108,-4.1108,-4.1108,-4.1108,-4.1108,-4.1108,-4.1108,-4.1108,-4.1108,-4.1108,-4.5277,-4.5277,-4.5277,-4.5277,-4.5277,-4.5277,-4.5277,-4.5277,-4.5277,-4.5277,-4.5277,-4.5277,-4.5277,-4.5105,-4.4475,-4.394,-4.3577,-4.2163,-4.1476,-4.1036,-4.0654,-4.0368,-4.0329,-4.0329,-4.0329,-4.0329,-4.0329,-4.0329,-4.0329,-4.0329,-4.0329,-4.0329,-4.0329,-4.0329,-4.0329,-4.0329,-4.0329,-4.0329,-4.0329,-4.0329,-4.0329,-4.0329,-4.0329,-4.0329,-4.0329,-4.0329,-4.0329,-4.0329,-4.0291,-4.0253,-4.0234,-3.9871,-3.9489,-3.9718,-3.9814,-3.9508,-3.9794,-3.9833,-3.9489,-3.947,-3.9718,-4.0062,-4.0329,-4.0329,-4.0329,-4.0329,-4.0329,-4.0329,-4.0329,-4.0329,-4.0329,-4.0329,-4.0329,-4.0329,-4.0329,-4.0329,-4.0329,-4.0329,-4.0329,-4.0329,-4.0329,-4.0329,-4.0347,-4.0379,-4.046,-4.0519,-4.0642,-4.0818,-4.1217,-4.1684,-4.2057,-4.2422,-4.3448,-4.4715,-4.5033,-4.4975,-4.4962,-4.4682,-4.3504,-4.2876,-4.2763,-4.2073,-4.1264,-4.1108,-4.1108,-4.1108,-4.1108,-4.1108,-4.1108,-4.1108,-4.1108,-4.1108,-4.1108,-4.1108,-4.1108,-4.5277,-4.5277,-4.5277,-4.5277,-4.5277,-4.5277,-4.5277,-4.5277,-4.5277,-4.5277,-4.5277,-4.5277,-4.5277,-4.5067,-4.4399,-4.3615,-4.2889,-4.1915,-4.117,-4.0654,-4.0329,-4.0329,-4.0329,-4.0329,-4.0329,-4.0329,-4.0329,-4.0329,-4.0329,-4.0329,-4.0329,-4.0329,-4.0329,-4.0329,-4.0329,-4.0329,-4.0329,-4.0329,-4.0329,-4.0329,-4.0329,-4.0329,-4.0329,-4.0329,-4.0329,-4.0329,-4.0329,-4.0329,-4.0329,-4.0329,-4.0329,-4.031,-4.0081,-4.0196,-4.0138,-4.0138,-4.0138,-4.0196,-4.0043,-4.0024,-4.0196,-4.0291,-4.0329,-4.0329,-4.0329,-4.0329,-4.0329,-4.0329,-4.0329,-4.0329,-4.0329,-4.0329,-4.0329,-4.0329,-4.0329,-4.0329,-4.0329,-4.0329,-4.0329,-4.0329,-4.0329,-4.0329,-4.0329,-4.0364,-4.0379,-4.0444,-4.0574,-4.0761,-4.1044,-4.1466,-4.1848,-4.2318,-4.3111,-4.4014,-4.4741,-4.4858,-4.4982,-4.4812,-4.4044,-4.3548,-4.33,-4.2397,-4.1413,-4.1104,-4.1104,-4.1108,-4.1108,-4.1108,-4.1108,-4.1108,-4.1108,-4.1108,-4.1108,-4.1108,-4.1108,-4.5277,-4.5277,-4.5277,-4.5277,-4.5277,-4.5277,-4.5277,-4.5277,-4.5277,-4.5277,-4.5277,-4.5277,-4.5277,-4.5048,-4.4399,-4.3558,-4.2756,-4.1896,-4.1074,-4.0559,-4.0329,-4.0329,-4.0329,-4.0329,-4.0329,-4.0329,-4.0329,-4.0329,-4.0329,-4.0329,-4.0329,-4.0329,-4.0329,-4.0329,-4.0329,-4.0329,-4.0329,-4.0329,-4.0329,-4.0329,-4.0329,-4.0329,-4.0329,-4.0329,-4.0329,-4.0329,-4.0329,-4.0329,-4.0329,-4.0329,-4.0329,-4.0329,-4.0329,-4.0329,-4.0329,-4.0329,-4.0329,-4.0329,-4.0329,-4.0329,-4.0329,-4.0329,-4.0329,-4.0329,-4.0329,-4.0329,-4.0329,-4.0329,-4.0329,-4.0329,-4.0329,-4.0329,-4.0329,-4.0329,-4.0329,-4.0329,-4.0329,-4.0329,-4.0329,-4.0329,-4.0329,-4.0329,-4.0329,-4.031,-4.0328,-4.0381,-4.0519,-4.0726,-4.107,-4.1382,-4.1785,-4.231,-4.3091,-4.3643,-4.4345,-4.4702,-4.502,-4.4832,-4.4565,-4.3966,-4.347,-4.2812,-4.1948,-4.1523,-4.1101,-4.1101,-4.1104,-4.1108,-4.1108,-4.1108,-4.1108,-4.1108,-4.1108,-4.1108,-4.1108,-4.5277,-4.5277,-4.5277,-4.5277,-4.5277,-4.5277,-4.5277,-4.5277,-4.5277,-4.5277,-4.5277,-4.5277,-4.5277,-4.501,-4.4093,-4.3405,-4.2584,-4.1667,-4.0903,-4.0482,-4.0329,-4.0329,-4.0329,-4.0329,-4.0329,-4.0329,-4.0329,-4.0329,-4.0329,-4.0329,-4.0329,-4.0329,-4.0329,-4.0329,-4.0329,-4.0329,-4.0329,-4.0329,-4.0329,-4.0329,-4.0329,-4.0329,-4.0329,-4.0329,-4.0329,-4.0329,-4.0329,-4.0329,-4.0329,-4.0329,-4.0329,-4.0329,-4.0329,-4.0329,-4.0329,-4.0329,-4.0329,-4.0329,-4.0329,-4.0329,-4.0329,-4.0329,-4.0329,-4.0329,-4.0329,-4.0329,-4.0329,-4.0329,-4.0329,-4.0329,-4.0329,-4.0329,-4.0329,-4.0329,-4.0329,-4.0329,-4.0329,-4.0329,-4.0329,-4.0329,-4.0329,-4.0329,-4.0329,-4.0329,-4.0368,-4.0366,-4.0398,-4.0776,-4.1362,-4.1635,-4.1866,-4.2432,-4.3111,-4.3585,-4.4033,-4.4559,-4.5092,-4.5391,-4.4949,-4.4,-4.3382,-4.2827,-4.2149,-4.1417,-4.1109,-4.1117,-4.1101,-4.1104,-4.1108,-4.1108,-4.1108,-4.1108,-4.1108,-4.1108,-4.1108,-4.5239,-4.5277,-4.522,-4.522,-4.5201,-4.5277,-4.5277,-4.5277,-4.5277,-4.5277,-4.5277,-4.5277,-4.5277,-4.4953,-4.3825,-4.31,-4.2545,-4.1285,-4.0444,-4.0368,-4.0329,-4.0329,-4.0329,-4.0329,-4.0329,-4.0329,-4.0329,-4.0329,-4.0329,-4.0329,-4.0329,-4.0329,-4.0329,-4.0329,-4.0329,-4.0329,-4.0329,-4.0329,-4.0329,-4.0329,-4.0329,-4.0329,-4.0329,-4.0329,-4.0329,-4.0329,-4.0329,-4.0329,-4.0329,-4.0329,-4.0329,-4.0329,-4.0329,-4.0329,-4.0329,-4.0329,-4.0329,-4.0329,-4.0329,-4.0329,-4.0329,-4.0329,-4.0329,-4.0329,-4.0329,-4.0329,-4.0329,-4.0329,-4.0329,-4.0329,-4.0329,-4.0329,-4.0329,-4.0329,-4.0329,-4.0329,-4.0329,-4.0329,-4.0329,-4.052,-4.0425,-4.0329,-4.0329,-4.0348,-4.0425,-4.0425,-4.0348,-4.0811,-4.166,-4.2036,-4.2286,-4.2741,-4.3413,-4.3922,-4.4389,-4.4734,-4.517,-4.556,-4.5443,-4.4611,-4.376,-4.3167,-4.2373,-4.1442,-4.11,-4.1109,-4.1117,-4.1101,-4.1104,-4.1108,-4.1108,-4.1108,-4.1108,-4.1108,-4.1108,-4.3958,-4.4399,-4.3864,-4.394,-4.4475,-4.5048,-4.5277,-4.5277,-4.5277,-4.5277,-4.5277,-4.5277,-4.5277,-4.4895,-4.4093,-4.3176,-4.2565,-4.1781,-4.0979,-4.0329,-4.0329,-4.0329,-4.0329,-4.0329,-4.0329,-4.0329,-4.0329,-4.0329,-4.0329,-4.0329,-4.0329,-4.0329,-4.0329,-4.0329,-4.0329,-4.0329,-4.0329,-4.0329,-4.0329,-4.0329,-4.0329,-4.0329,-4.0329,-4.0329,-4.0329,-4.0329,-4.0329,-4.0329,-4.0329,-4.0329,-4.0329,-4.0329,-4.0329,-4.0329,-4.0329,-4.0329,-4.0329,-4.0329,-4.0329,-4.0329,-4.0329,-4.0329,-4.0329,-4.0329,-4.0329,-4.0329,-4.0329,-4.0329,-4.0329,-4.0329,-4.0329,-4.0329,-4.0329,-4.0329,-4.0329,-4.0329,-4.0329,-4.0348,-4.0406,-4.075,-4.0826,-4.0463,-4.0329,-4.0731,-4.0903,-4.1208,-4.1265,-4.172,-4.2491,-4.2717,-4.2954,-4.3315,-4.3849,-4.4359,-4.483,-4.5214,-4.5494,-4.5852,-4.5871,-4.5482,-4.4631,-4.3682,-4.2966,-4.2212,-4.1618,-4.11,-4.123,-4.1277,-4.1143,-4.1108,-4.1108,-4.1108,-4.1108,-4.1108,-4.1108,-4.3099,-4.352,-4.3023,-4.31,-4.3692,-4.4494,-4.4838,-4.4857,-4.4838,-4.4704,-4.4437,-4.4399,-4.438,-4.4131,-4.3539,-4.2985,-4.2259,-4.1457,-4.096,-4.0329,-4.0329,-4.0329,-4.0329,-4.0329,-4.0329,-4.0329,-4.0329,-4.0329,-4.0329,-4.0329,-4.0329,-4.0329,-4.0329,-4.0329,-4.0329,-4.0329,-4.0329,-4.0329,-4.0329,-4.0329,-4.0329,-4.0329,-4.0329,-4.0329,-4.0329,-4.0329,-4.0329,-4.0329,-4.0329,-4.0329,-4.0329,-4.0329,-4.0329,-4.0329,-4.0329,-4.0329,-4.0329,-4.0329,-4.0329,-4.0329,-4.0329,-4.0329,-4.0329,-4.0329,-4.0329,-4.0329,-4.0329,-4.0329,-4.0329,-4.0329,-4.0329,-4.0329,-4.0329,-4.0329,-4.0368,-4.0368,-4.0406,-4.0425,-4.0711,-4.1055,-4.0922,-4.0597,-4.0425,-4.1036,-4.1457,-4.1858,-4.2278,-4.2809,-4.3302,-4.3485,-4.375,-4.4172,-4.454,-4.5071,-4.5453,-4.574,-4.5981,-4.6176,-4.6059,-4.5884,-4.5222,-4.4234,-4.3598,-4.3033,-4.2582,-4.2105,-4.1636,-4.1472,-4.1222,-4.1108,-4.1108,-4.1108,-4.1108,-4.1108,-4.1108,-4.2736,-4.2775,-4.2737,-4.2698,-4.2889,-4.3634,-4.3978,-4.3978,-4.3959,-4.3558,-4.2908,-4.3004,-4.3119,-4.2794,-4.2011,-4.1686,-4.1514,-4.0769,-4.0463,-4.0348,-4.0329,-4.0329,-4.0329,-4.0329,-4.0329,-4.0329,-4.0329,-4.0329,-4.0329,-4.0329,-4.0329,-4.0329,-4.0329,-4.0329,-4.0329,-4.0329,-4.0329,-4.0329,-4.0329,-4.0329,-4.0329,-4.0329,-4.0329,-4.0329,-4.0329,-4.0329,-4.0329,-4.0329,-4.0329,-4.0329,-4.0329,-4.0329,-4.0329,-4.0329,-4.0329,-4.0329,-4.0329,-4.0329,-4.0329,-4.0329,-4.0329,-4.0329,-4.0329,-4.0329,-4.0329,-4.0329,-4.0329,-4.0329,-4.0329,-4.0329,-4.0329,-4.0329,-4.0329,-4.0368,-4.0444,-4.0482,-4.052,-4.0711,-4.1055,-4.1151,-4.0864,-4.0616,-4.054,-4.1017,-4.2106,-4.2527,-4.3025,-4.3752,-4.4172,-4.4275,-4.4611,-4.517,-4.5539,-4.5877,-4.6115,-4.6084,-4.6137,-4.6196,-4.6176,-4.5962,-4.5338,-4.4851,-4.4293,-4.3806,-4.3565,-4.307,-4.2212,-4.1601,-4.116,-4.1104,-4.1101,-4.1108,-4.1104,-4.1108,-4.1108,-4.1361,-4.18,-4.1266,-4.1342,-4.1972,-4.2794,-4.3138,-4.3157,-4.3157,-4.2966,-4.2794,-4.2794,-4.2622,-4.2698,-4.1915,-4.1552,-4.1189,-4.0788,-4.0444,-4.0329,-4.0329,-4.0329,-4.0329,-4.0329,-4.0329,-4.0329,-4.0329,-4.0329,-4.0329,-4.0329,-4.0329,-4.0329,-4.0329,-4.0329,-4.0329,-4.0329,-4.0329,-4.0329,-4.0329,-4.0329,-4.0329,-4.0329,-4.0329,-4.0329,-4.0329,-4.0329,-4.0329,-4.0329,-4.0329,-4.0329,-4.0329,-4.0329,-4.0329,-4.0329,-4.0329,-4.0329,-4.0329,-4.0329,-4.0329,-4.0329,-4.0329,-4.0329,-4.0329,-4.0329,-4.0329,-4.0329,-4.0329,-4.0329,-4.0329,-4.0329,-4.0329,-4.0329,-4.0329,-4.0368,-4.0501,-4.0711,-4.0826,-4.1227,-4.1571,-4.1628,-4.1323,-4.1074,-4.0979,-4.1743,-4.2756,-4.3176,-4.3731,-4.4459,-4.4902,-4.4937,-4.506,-4.5617,-4.5835,-4.5968,-4.6093,-4.6091,-4.6142,-4.6196,-4.6176,-4.6137,-4.5806,-4.5358,-4.4929,-4.4429,-4.389,-4.3226,-4.2442,-4.1827,-4.1152,-4.1109,-4.1105,-4.1117,-4.1104,-4.1104,-4.1104,-4.0597,-4.0922,-4.052,-4.0597,-4.1074,-4.159,-4.182,-4.1858,-4.2125,-4.2144,-4.1839,-4.1762,-4.182,-4.1667,-4.1208,-4.0979,-4.0922,-4.0578,-4.0329,-4.0329,-4.0329,-4.0329,-4.0329,-4.0329,-4.0329,-4.0329,-4.0329,-4.0329,-4.0329,-4.0329,-4.0329,-4.0329,-4.0329,-4.0329,-4.0329,-4.0329,-4.0329,-4.0329,-4.0329,-4.0329,-4.0329,-4.0329,-4.0329,-4.0329,-4.0329,-4.0329,-4.0329,-4.0329,-4.0329,-4.0329,-4.0329,-4.0329,-4.0329,-4.0329,-4.0329,-4.0329,-4.0329,-4.0329,-4.0329,-4.0329,-4.0329,-4.0329,-4.0329,-4.0329,-4.0329,-4.0329,-4.0329,-4.0329,-4.0329,-4.0329,-4.0329,-4.0329,-4.0329,-4.0329,-4.0635,-4.0941,-4.1342,-4.1781,-4.2011,-4.2163,-4.203,-4.1762,-4.203,-4.2775,-4.3367,-4.3692,-4.4169,-4.482,-4.5169,-4.5208,-4.528,-4.5536,-4.5694,-4.5815,-4.5936,-4.6056,-4.6138,-4.6181,-4.6196,-4.6137,-4.6059,-4.5923,-4.5553,-4.4819,-4.4027,-4.346,-4.2958,-4.1818,-4.1115,-4.115,-4.1169,-4.11,-4.1109,-4.1109,-4.1113,-4.0234,-4.0234,-4.0234,-4.0214,-4.0253,-4.0329,-4.031,-4.0311,-4.1035,-4.0979,-4.0463,-4.0311,-4.0463,-4.0635,-4.0463,-4.0425,-4.0463,-4.0368,-4.0329,-4.0329,-4.0329,-4.0329,-4.0329,-4.0329,-4.0329,-4.0329,-4.0329,-4.0329,-4.0329,-4.0329,-4.0329,-4.0329,-4.0329,-4.0329,-4.0329,-4.0329,-4.0329,-4.0329,-4.0329,-4.0329,-4.0329,-4.0329,-4.0329,-4.0329,-4.0329,-4.0329,-4.0329,-4.0329,-4.0329,-4.0329,-4.0329,-4.0329,-4.0329,-4.0329,-4.0329,-4.0329,-4.0329,-4.0329,-4.0329,-4.0329,-4.0329,-4.0329,-4.0329,-4.0329,-4.0329,-4.0329,-4.0329,-4.0329,-4.0329,-4.0329,-4.0329,-4.0329,-4.0329,-4.0444,-4.0711,-4.0941,-4.1227,-4.1686,-4.2068,-4.224,-4.2316,-4.2125,-4.2259,-4.2928,-4.3596,-4.4055,-4.4571,-4.5182,-4.5319,-4.5381,-4.5419,-4.5473,-4.5574,-4.5694,-4.5859,-4.5988,-4.6084,-4.6138,-4.6181,-4.6196,-4.6137,-4.6157,-4.6196,-4.5423,-4.465,-4.4124,-4.3512,-4.2387,-4.1549,-4.1393,-4.1354,-4.1164,-4.1111,-4.1111,-4.11,-3.9883,-3.9693,-3.9693,-3.9693,-3.9693,-3.9693,-3.9712,-3.9712,-3.9863,-4.0141,-4.0234,-4.0098,-4.0098,-4.0234,-4.0098,-4.0117,-4.0291,-4.0329,-4.0329,-4.0329,-4.0329,-4.0329,-4.0329,-4.0329,-4.0329,-4.0329,-4.0329,-4.0329,-4.0329,-4.0329,-4.0329,-4.0329,-4.0329,-4.0329,-4.0329,-4.0329,-4.0329,-4.0329,-4.0329,-4.0329,-4.0329,-4.0329,-4.0329,-4.0329,-4.0329,-4.0329,-4.0329,-4.0329,-4.0329,-4.0329,-4.0329,-4.0329,-4.0329,-4.0329,-4.0329,-4.0329,-4.0329,-4.0329,-4.0329,-4.0329,-4.0329,-4.0329,-4.0329,-4.0329,-4.0329,-4.0329,-4.0329,-4.0329,-4.0329,-4.0329,-4.0329,-4.0329,-4.0348,-4.0559,-4.0731,-4.0903,-4.1094,-4.1552,-4.203,-4.2297,-4.2469,-4.2622,-4.2717,-4.3157,-4.3749,-4.4322,-4.4857,-4.5258,-4.5277,-4.532,-4.532,-4.5381,-4.5473,-4.5607,-4.5736,-4.5859,-4.5966,-4.6093,-4.6154,-4.6189,-4.6196,-4.6196,-4.6176,-4.5903,-4.5365,-4.4709,-4.3949,-4.3026,-4.2331,-4.1902,-4.1557,-4.1362,-4.1167,-4.1109,-4.11,-3.9502,-3.9389,-3.9371,-3.9371,-3.9371,-3.9414,-3.9414,-3.9414,-3.9483,-3.967,-3.9911,-3.9826,-3.987,-4.0098,-3.9975,-4.0017,-4.0234,-4.0329,-4.0329,-4.0329,-4.0291,-4.0329,-4.0329,-4.0329,-4.0329,-4.0329,-4.0329,-4.0329,-4.0329,-4.0329,-4.0329,-4.0329,-4.0329,-4.0329,-4.0329,-4.0329,-4.0329,-4.0329,-4.0329,-4.0329,-4.0329,-4.0329,-4.0329,-4.0329,-4.0329,-4.0329,-4.0329,-4.0329,-4.0329,-4.0329,-4.0329,-4.0329,-4.0329,-4.0329,-4.0329,-4.0329,-4.0329,-4.0329,-4.0329,-4.0329,-4.0329,-4.0329,-4.0329,-4.0329,-4.0329,-4.0329,-4.0329,-4.0329,-4.0329,-4.0329,-4.0329,-4.0329,-4.0329,-4.0444,-4.0578,-4.0731,-4.1074,-4.1514,-4.2087,-4.2622,-4.2928,-4.3348,-4.3577,-4.4093,-4.459,-4.4723,-4.522,-4.5258,-4.5277,-4.5277,-4.5277,-4.5298,-4.54,-4.5473,-4.5587,-4.5708,-4.5829,-4.5966,-4.6102,-4.6154,-4.6181,-4.6189,-4.6137,-4.5942,-4.5611,-4.5027,-4.4247,-4.3565,-4.2786,-4.2227,-4.187,-4.1578,-4.1383,-4.1188,-4.1162,-3.9144,-3.9117,-3.9099,-3.9099,-3.9099,-3.9152,-3.9171,-3.9197,-3.9287,-3.9313,-3.9357,-3.9331,-3.9532,-3.9743,-3.9807,-3.9996,-4.0077,-4.0057,-4.0137,-4.0215,-4.0196,-4.0253,-4.0291,-4.0329,-4.0329,-4.0329,-4.0329,-4.0329,-4.0329,-4.0329,-4.0329,-4.0329,-4.0329,-4.0329,-4.0329,-4.0329,-4.0329,-4.0329,-4.0329,-4.0329,-4.0329,-4.0329,-4.0329,-4.0329,-4.0329,-4.0329,-4.0329,-4.0329,-4.0329,-4.0329,-4.0329,-4.0329,-4.0329,-4.0329,-4.0329,-4.0329,-4.0329,-4.0329,-4.0329,-4.0329,-4.0329,-4.0329,-4.0329,-4.0329,-4.0329,-4.0329,-4.0329,-4.0329,-4.0329,-4.0329,-4.0329,-4.0501,-4.0501,-4.054,-4.0673,-4.0883,-4.1304,-4.1609,-4.2125,-4.2794,-4.3386,-4.3864,-4.4399,-4.4914,-4.5125,-4.5239,-4.5277,-4.5277,-4.5277,-4.5277,-4.5277,-4.5277,-4.532,-4.54,-4.549,-4.5574,-4.5684,-4.5854,-4.5998,-4.6084,-4.6146,-4.6189,-4.6176,-4.6098,-4.5709,-4.5358,-4.4949,-4.4384,-4.3565,-4.2825,-4.2546,-4.2312,-4.1734,-4.1539,-4.1305,-3.8741,-3.8585,-3.8535,-3.8566,-3.8566,-3.8585,-3.8585,-3.8585,-3.8597,-3.8615,-3.8676,-3.8707,-3.8933,-3.9575,-3.9324,-3.9427,-3.9698,-3.9717,-3.9829,-3.9935,-3.9975,-4.0098,-4.0234,-4.0291,-4.0311,-4.0291,-4.0291,-4.0291,-4.0253,-4.0273,-4.0329,-4.0329,-4.0329,-4.0329,-4.0329,-4.0329,-4.0329,-4.0329,-4.0329,-4.0329,-4.0329,-4.0329,-4.0329,-4.0329,-4.0329,-4.0329,-4.0329,-4.0329,-4.0329,-4.0329,-4.0329,-4.0329,-4.0329,-4.0329,-4.0329,-4.0329,-4.0329,-4.0329,-4.0329,-4.0329,-4.0329,-4.0329,-4.0329,-4.0329,-4.0329,-4.0329,-4.0329,-4.0329,-4.0329,-4.0329,-4.0425,-4.096,-4.1132,-4.1227,-4.1323,-4.1743,-4.2163,-4.2011,-4.2068,-4.2908,-4.3711,-4.4227,-4.4743,-4.5086,-4.5201,-4.5277,-4.5277,-4.5277,-4.5277,-4.5277,-4.5277,-4.5277,-4.5277,-4.5381,-4.5473,-4.5473,-4.5594,-4.5742,-4.5902,-4.6047,-4.6146,-4.6189,-4.6176,-4.6137,-4.6137,-4.5942,-4.5514,-4.5085,-4.4676,-4.4014,-4.3585,-4.315,-4.2416,-4.1851,-4.1598]}]]